Wetterdaten: Montag, 22.02.2016
Datum Zeit Auen-Temp. Temp gefhlt Luftfeuchte Luftdruck Regen Wind Richtung Richtung Sonnenschein Taupunkt Windben
22.02.2016 00:00 9,5 C 9,4 C 47 % 1015,7 hPa 0,0 mm 9,2 km/h (2 Bft) W-SW 247 0 min -1,2 C 12,8 km/h (3 Bft)
22.02.2016 00:01 9,7 C 9,4 C 47 % 1015,7 hPa 0,0 mm 9,8 km/h (2 Bft) W-NW 292 0 min -1,1 C 10,1 km/h (2 Bft)
22.02.2016 00:02 9,7 C 9,4 C 47 % 1015,7 hPa 0,0 mm 9,8 km/h (2 Bft) W-NW 292 0 min -1,1 C 10,1 km/h (2 Bft)
22.02.2016 00:03 9,7 C 9,4 C 47 % 1015,6 hPa 0,0 mm 9,8 km/h (2 Bft) W-NW 292 0 min -1,1 C 10,1 km/h (2 Bft)
22.02.2016 00:04 9,7 C 9,4 C 47 % 1015,6 hPa 0,0 mm 9,8 km/h (2 Bft) W-NW 292 0 min -1,1 C 10,1 km/h (2 Bft)
22.02.2016 00:05 9,5 C 9,3 C 47 % 1015,6 hPa 0,0 mm 9,8 km/h (2 Bft) W-SW 247 0 min -1,2 C 9,8 km/h (2 Bft)
22.02.2016 00:06 9,5 C 9,3 C 47 % 1015,6 hPa 0,0 mm 9,8 km/h (2 Bft) W-SW 247 0 min -1,2 C 9,8 km/h (2 Bft)
22.02.2016 00:07 9,4 C 9,2 C 47 % 1015,6 hPa 0,0 mm 9,5 km/h (2 Bft) W 270 0 min -1,3 C 13,1 km/h (3 Bft)
22.02.2016 00:08 9,4 C 9,2 C 47 % 1015,6 hPa 0,0 mm 9,5 km/h (2 Bft) W 270 0 min -1,3 C 13,1 km/h (3 Bft)
22.02.2016 00:09 9,6 C 9,4 C 47 % 1015,6 hPa 0,0 mm 9,5 km/h (2 Bft) NW 315 0 min -1,1 C 8,0 km/h (2 Bft)
22.02.2016 00:10 9,6 C 9,4 C 47 % 1015,6 hPa 0,0 mm 9,5 km/h (2 Bft) NW 315 0 min -1,1 C 8,0 km/h (2 Bft)
22.02.2016 00:11 9,5 C 9,3 C 46 % 1015,6 hPa 0,0 mm 9,2 km/h (2 Bft) W-NW 292 0 min -1,5 C 8,3 km/h (2 Bft)
22.02.2016 00:12 9,5 C 9,3 C 46 % 1015,6 hPa 0,0 mm 9,2 km/h (2 Bft) W-NW 292 0 min -1,5 C 8,3 km/h (2 Bft)
22.02.2016 00:13 9,4 C 9,2 C 46 % 1015,6 hPa 0,0 mm 8,9 km/h (2 Bft) W 270 0 min -1,6 C 6,3 km/h (2 Bft)
22.02.2016 00:14 9,4 C 9,2 C 46 % 1015,6 hPa 0,0 mm 8,9 km/h (2 Bft) W 270 0 min -1,6 C 22,1 km/h (4 Bft)
22.02.2016 00:15 9,3 C 9,2 C 46 % 1015,6 hPa 0,0 mm 8,3 km/h (2 Bft) W-SW 247 0 min -1,7 C 7,2 km/h (2 Bft)
22.02.2016 00:16 9,3 C 9,2 C 46 % 1015,6 hPa 0,0 mm 8,3 km/h (2 Bft) W-SW 247 0 min -1,7 C 7,2 km/h (2 Bft)
22.02.2016 00:17 9,2 C 9,1 C 46 % 1015,6 hPa 0,0 mm 8,6 km/h (2 Bft) SW 225 0 min -1,8 C 12,2 km/h (2 Bft)
22.02.2016 00:18 9,2 C 9,1 C 46 % 1015,6 hPa 0,0 mm 8,6 km/h (2 Bft) SW 225 0 min -1,8 C 12,2 km/h (2 Bft)
22.02.2016 00:19 9,2 C 9,1 C 46 % 1015,6 hPa 0,0 mm 8,3 km/h (2 Bft) W-SW 247 0 min -1,8 C 10,7 km/h (2 Bft)
22.02.2016 00:20 9,2 C 9,1 C 46 % 1015,6 hPa 0,0 mm 8,3 km/h (2 Bft) W-SW 247 0 min -1,8 C 10,7 km/h (2 Bft)
22.02.2016 00:21 9,2 C 9,1 C 46 % 1015,6 hPa 0,0 mm 7,7 km/h (2 Bft) W 270 0 min -1,8 C 8,9 km/h (2 Bft)
22.02.2016 00:22 9,2 C 9,1 C 46 % 1015,6 hPa 0,0 mm 7,7 km/h (2 Bft) W 270 0 min -1,8 C 8,9 km/h (2 Bft)
22.02.2016 00:23 9,2 C 9,1 C 45 % 1015,4 hPa 0,0 mm 8,3 km/h (2 Bft) SW 225 0 min -2,1 C 12,2 km/h (2 Bft)
22.02.2016 00:24 9,2 C 9,1 C 45 % 1015,4 hPa 0,0 mm 8,3 km/h (2 Bft) SW 225 0 min -2,1 C 12,2 km/h (2 Bft)
22.02.2016 00:25 9,4 C 9,2 C 45 % 1015,4 hPa 0,0 mm 8,6 km/h (2 Bft) SW 225 0 min -1,9 C 12,2 km/h (2 Bft)
22.02.2016 00:26 9,4 C 9,2 C 45 % 1015,4 hPa 0,0 mm 8,6 km/h (2 Bft) SW 225 0 min -1,9 C 12,2 km/h (2 Bft)
22.02.2016 00:27 9,4 C 9,1 C 44 % 1015,4 hPa 0,0 mm 9,2 km/h (2 Bft) SW 225 0 min -2,2 C 14,9 km/h (3 Bft)
22.02.2016 00:28 9,4 C 9,1 C 44 % 1015,4 hPa 0,0 mm 9,2 km/h (2 Bft) SW 225 0 min -2,2 C 14,9 km/h (3 Bft)
22.02.2016 00:29 9,3 C 9,1 C 43 % 1015,4 hPa 0,0 mm 9,5 km/h (2 Bft) NO 45 0 min -2,6 C 14,6 km/h (3 Bft)
22.02.2016 00:30 9,3 C 9,1 C 43 % 1015,4 hPa 0,0 mm 9,5 km/h (2 Bft) NO 45 0 min -2,6 C 14,6 km/h (3 Bft)
22.02.2016 00:31 9,1 C 8,9 C 43 % 1015,4 hPa 0,0 mm 9,8 km/h (2 Bft) W-SW 247 0 min -2,8 C 11,6 km/h (2 Bft)
22.02.2016 00:32 9,1 C 8,9 C 43 % 1015,4 hPa 0,0 mm 9,8 km/h (2 Bft) W-SW 247 0 min -2,8 C 11,6 km/h (2 Bft)
22.02.2016 00:33 9,1 C 8,8 C 43 % 1015,4 hPa 0,0 mm 10,7 km/h (2 Bft) SW 225 0 min -2,8 C 12,8 km/h (3 Bft)
22.02.2016 00:34 9,1 C 8,8 C 43 % 1015,4 hPa 0,0 mm 10,7 km/h (2 Bft) SW 225 0 min -2,8 C 12,8 km/h (3 Bft)
22.02.2016 00:35 9,1 C 8,8 C 43 % 1015,4 hPa 0,0 mm 10,7 km/h (2 Bft) S-SW 202 0 min -2,8 C 14,6 km/h (3 Bft)
22.02.2016 00:36 9,1 C 8,8 C 43 % 1015,4 hPa 0,0 mm 10,7 km/h (2 Bft) S-SW 202 0 min -2,8 C 14,6 km/h (3 Bft)
22.02.2016 00:37 9,1 C 8,8 C 43 % 1015,4 hPa 0,0 mm 11,0 km/h (2 Bft) SW 225 0 min -2,8 C 16,7 km/h (3 Bft)
22.02.2016 00:38 9,1 C 8,8 C 43 % 1015,4 hPa 0,0 mm 11,0 km/h (2 Bft) SW 225 0 min -2,8 C 16,7 km/h (3 Bft)
22.02.2016 00:39 9,1 C 8,7 C 43 % 1015,4 hPa 0,0 mm 11,6 km/h (2 Bft) W-SW 247 0 min -2,8 C 10,7 km/h (2 Bft)
22.02.2016 00:40 9,1 C 8,7 C 43 % 1015,4 hPa 0,0 mm 11,6 km/h (2 Bft) W-SW 247 0 min -2,8 C 10,7 km/h (2 Bft)
22.02.2016 00:41 9,1 C 8,7 C 43 % 1015,4 hPa 0,0 mm 11,6 km/h (2 Bft) W-SW 247 0 min -2,8 C 11,0 km/h (2 Bft)
22.02.2016 00:42 9,1 C 8,7 C 43 % 1015,4 hPa 0,0 mm 11,6 km/h (2 Bft) W-SW 247 0 min -2,8 C 11,0 km/h (2 Bft)
22.02.2016 00:43 9,0 C 8,6 C 43 % 1015,3 hPa 0,0 mm 11,6 km/h (2 Bft) W-SW 247 0 min -2,9 C 13,4 km/h (3 Bft)
22.02.2016 00:44 9,0 C 8,6 C 43 % 1015,3 hPa 0,0 mm 11,6 km/h (2 Bft) W-SW 247 0 min -2,9 C 13,4 km/h (3 Bft)
22.02.2016 00:45 9,1 C 8,7 C 43 % 1015,3 hPa 0,0 mm 11,6 km/h (2 Bft) W-SW 247 0 min -2,8 C 11,6 km/h (2 Bft)
22.02.2016 00:46 9,1 C 8,7 C 43 % 1015,3 hPa 0,0 mm 11,6 km/h (2 Bft) W-SW 247 0 min -2,8 C 11,6 km/h (2 Bft)
22.02.2016 00:47 9,2 C 8,8 C 43 % 1015,3 hPa 0,0 mm 11,6 km/h (2 Bft) W-SW 247 0 min -2,7 C 12,5 km/h (3 Bft)
22.02.2016 00:48 9,2 C 8,8 C 43 % 1015,3 hPa 0,0 mm 11,6 km/h (2 Bft) W-SW 247 0 min -2,7 C 12,5 km/h (3 Bft)
22.02.2016 00:49 9,2 C 8,9 C 43 % 1015,3 hPa 0,0 mm 11,0 km/h (2 Bft) W-SW 247 0 min -2,7 C 15,2 km/h (3 Bft)
22.02.2016 00:50 9,2 C 8,9 C 43 % 1015,3 hPa 0,0 mm 11,0 km/h (2 Bft) W-SW 247 0 min -2,7 C 15,2 km/h (3 Bft)
22.02.2016 00:51 9,3 C 9,0 C 43 % 1015,3 hPa 0,0 mm 11,0 km/h (2 Bft) W-SW 247 0 min -2,6 C 20,0 km/h (4 Bft)
22.02.2016 00:52 9,3 C 9,0 C 43 % 1015,3 hPa 0,0 mm 11,0 km/h (2 Bft) W-SW 247 0 min -2,6 C 20,0 km/h (4 Bft)
22.02.2016 00:53 9,4 C 9,1 C 43 % 1015,3 hPa 0,0 mm 10,7 km/h (2 Bft) W 270 0 min -2,5 C 13,4 km/h (3 Bft)
22.02.2016 00:54 9,4 C 9,1 C 43 % 1015,3 hPa 0,0 mm 10,7 km/h (2 Bft) W 270 0 min -2,5 C 13,4 km/h (3 Bft)
22.02.2016 00:55 9,3 C 9,0 C 42 % 1015,3 hPa 0,0 mm 10,7 km/h (2 Bft) W-NW 292 0 min -2,9 C 13,7 km/h (3 Bft)
22.02.2016 00:56 9,3 C 9,0 C 42 % 1015,3 hPa 0,0 mm 10,7 km/h (2 Bft) W-NW 292 0 min -2,9 C 13,7 km/h (3 Bft)
22.02.2016 00:57 9,3 C 9,0 C 42 % 1015,3 hPa 0,0 mm 10,4 km/h (2 Bft) W-SW 247 0 min -2,9 C 9,8 km/h (2 Bft)
22.02.2016 00:58 9,3 C 9,0 C 42 % 1015,3 hPa 0,0 mm 10,4 km/h (2 Bft) W-SW 247 0 min -2,9 C 9,8 km/h (2 Bft)
22.02.2016 00:59 9,4 C 9,1 C 42 % 1015,3 hPa 0,0 mm 10,1 km/h (2 Bft) W-SW 247 0 min -2,8 C 10,4 km/h (2 Bft)
22.02.2016 01:00 9,4 C 9,1 C 42 % 1015,3 hPa 0,0 mm 10,1 km/h (2 Bft) W-SW 247 0 min -2,8 C 10,4 km/h (2 Bft)
22.02.2016 01:01 9,6 C 9,3 C 42 % 1015,3 hPa 0,0 mm 10,1 km/h (2 Bft) S-SW 202 0 min -2,7 C 11,0 km/h (2 Bft)
22.02.2016 01:02 9,6 C 9,3 C 42 % 1015,3 hPa 0,0 mm 10,1 km/h (2 Bft) S-SW 202 0 min -2,7 C 11,0 km/h (2 Bft)
22.02.2016 01:03 9,7 C 9,3 C 42 % 1015,1 hPa 0,0 mm 10,1 km/h (2 Bft) S 180 0 min -2,6 C 10,4 km/h (2 Bft)
22.02.2016 01:04 9,7 C 9,3 C 42 % 1015,1 hPa 0,0 mm 10,1 km/h (2 Bft) S 180 0 min -2,6 C 10,4 km/h (2 Bft)
22.02.2016 01:05 9,7 C 9,4 C 41 % 1015,1 hPa 0,0 mm 10,4 km/h (2 Bft) SW 225 0 min -2,9 C 14,3 km/h (3 Bft)
22.02.2016 01:06 9,7 C 9,4 C 41 % 1015,1 hPa 0,0 mm 10,4 km/h (2 Bft) SW 225 0 min -2,9 C 14,3 km/h (3 Bft)
22.02.2016 01:07 9,8 C 9,4 C 41 % 1015,1 hPa 0,0 mm 11,6 km/h (2 Bft) SW 225 0 min -2,8 C 18,8 km/h (3 Bft)
22.02.2016 01:08 9,8 C 9,4 C 41 % 1015,1 hPa 0,0 mm 11,6 km/h (2 Bft) SW 225 0 min -2,8 C 18,8 km/h (3 Bft)
22.02.2016 01:09 9,9 C 9,5 C 40 % 1015,1 hPa 0,0 mm 12,2 km/h (2 Bft) S-SW 202 0 min -3,1 C 20,6 km/h (4 Bft)
22.02.2016 01:10 9,9 C 9,5 C 40 % 1015,1 hPa 0,0 mm 12,2 km/h (2 Bft) S-SW 202 0 min -3,1 C 20,6 km/h (4 Bft)
22.02.2016 01:11 9,9 C 9,5 C 40 % 1015,1 hPa 0,0 mm 13,1 km/h (3 Bft) SW 225 0 min -3,1 C 17,9 km/h (3 Bft)
22.02.2016 01:12 9,9 C 9,5 C 40 % 1015,1 hPa 0,0 mm 13,1 km/h (3 Bft) SW 225 0 min -3,1 C 17,9 km/h (3 Bft)
22.02.2016 01:13 9,8 C 9,4 C 39 % 1015,1 hPa 0,0 mm 13,4 km/h (3 Bft) SW 225 0 min -3,5 C 11,0 km/h (2 Bft)
22.02.2016 01:14 9,8 C 9,4 C 39 % 1015,1 hPa 0,0 mm 13,4 km/h (3 Bft) SW 225 0 min -3,5 C 11,0 km/h (2 Bft)
22.02.2016 01:15 9,7 C 9,3 C 39 % 1015,1 hPa 0,0 mm 14,0 km/h (3 Bft) SW 225 0 min -3,6 C 13,1 km/h (3 Bft)
22.02.2016 01:16 9,7 C 9,3 C 39 % 1015,1 hPa 0,0 mm 14,0 km/h (3 Bft) SW 225 0 min -3,6 C 13,1 km/h (3 Bft)
22.02.2016 01:17 9,8 C 9,5 C 39 % 1015,1 hPa 0,0 mm 14,3 km/h (3 Bft) W-SW 247 0 min -3,5 C 15,5 km/h (3 Bft)
22.02.2016 01:18 9,8 C 9,3 C 39 % 1015,1 hPa 0,0 mm 14,3 km/h (3 Bft) W-SW 247 0 min -3,5 C 15,5 km/h (3 Bft)
22.02.2016 01:19 10,0 C 9,5 C 39 % 1015,1 hPa 0,0 mm 13,7 km/h (3 Bft) W-SW 247 0 min -3,3 C 15,2 km/h (3 Bft)
22.02.2016 01:20 10,0 C 9,5 C 39 % 1015,1 hPa 0,0 mm 13,7 km/h (3 Bft) W-SW 247 0 min -3,3 C 15,2 km/h (3 Bft)
22.02.2016 01:21 9,9 C 9,5 C 39 % 1015,1 hPa 0,0 mm 13,7 km/h (3 Bft) SW 225 0 min -3,4 C 14,9 km/h (3 Bft)
22.02.2016 01:22 9,9 C 9,5 C 39 % 1015,1 hPa 0,0 mm 13,7 km/h (3 Bft) SW 225 0 min -3,4 C 14,9 km/h (3 Bft)
22.02.2016 01:23 9,7 C 9,4 C 39 % 1014,8 hPa 0,0 mm 13,4 km/h (3 Bft) S 180 0 min -3,6 C 16,1 km/h (3 Bft)
22.02.2016 01:24 9,7 C 9,4 C 39 % 1014,8 hPa 0,0 mm 13,4 km/h (3 Bft) S 180 0 min -3,6 C 16,1 km/h (3 Bft)
22.02.2016 01:25 9,7 C 9,4 C 39 % 1014,8 hPa 0,0 mm 13,4 km/h (3 Bft) S-SW 202 0 min -3,6 C 15,5 km/h (3 Bft)
22.02.2016 01:26 9,7 C 9,4 C 39 % 1014,8 hPa 0,0 mm 13,4 km/h (3 Bft) S-SW 202 0 min -3,6 C 15,5 km/h (3 Bft)
22.02.2016 01:27 9,8 C 9,4 C 39 % 1014,8 hPa 0,0 mm 13,1 km/h (3 Bft) SW 225 0 min -3,5 C 13,4 km/h (3 Bft)
22.02.2016 01:28 9,8 C 9,4 C 39 % 1014,8 hPa 0,0 mm 13,1 km/h (3 Bft) SW 225 0 min -3,5 C 13,4 km/h (3 Bft)
22.02.2016 01:29 10,0 C 9,6 C 39 % 1014,8 hPa 0,0 mm 12,8 km/h (3 Bft) SW 225 0 min -3,3 C 15,2 km/h (3 Bft)
22.02.2016 01:30 10,0 C 9,6 C 39 % 1014,8 hPa 0,0 mm 12,8 km/h (3 Bft) SW 225 0 min -3,3 C 15,2 km/h (3 Bft)
22.02.2016 01:31 10,0 C 9,6 C 39 % 1014,8 hPa 0,0 mm 12,8 km/h (3 Bft) W-SW 247 0 min -3,3 C 9,8 km/h (2 Bft)
22.02.2016 01:32 10,0 C 9,6 C 39 % 1014,8 hPa 0,0 mm 12,8 km/h (3 Bft) W-SW 247 0 min -3,3 C 9,8 km/h (2 Bft)
22.02.2016 01:33 10,0 C 9,6 C 39 % 1014,8 hPa 0,0 mm 12,5 km/h (3 Bft) W-SW 247 0 min -3,3 C 10,4 km/h (2 Bft)
22.02.2016 01:34 10,0 C 9,6 C 39 % 1014,8 hPa 0,0 mm 12,5 km/h (3 Bft) W-SW 247 0 min -3,3 C 10,4 km/h (2 Bft)
22.02.2016 01:35 9,9 C 9,7 C 39 % 1014,8 hPa 0,0 mm 11,0 km/h (2 Bft) W-SW 247 0 min -3,4 C 8,0 km/h (2 Bft)
22.02.2016 01:36 9,9 C 9,7 C 39 % 1014,8 hPa 0,0 mm 11,0 km/h (2 Bft) W-SW 247 0 min -3,4 C 8,0 km/h (2 Bft)
22.02.2016 01:37 9,8 C 9,6 C 40 % 1014,8 hPa 0,0 mm 10,4 km/h (2 Bft) W 270 0 min -3,1 C 8,9 km/h (2 Bft)
22.02.2016 01:38 9,8 C 9,6 C 40 % 1014,8 hPa 0,0 mm 10,4 km/h (2 Bft) W 270 0 min -3,1 C 8,9 km/h (2 Bft)
22.02.2016 01:39 9,4 C 9,3 C 40 % 1014,8 hPa 0,0 mm 8,9 km/h (2 Bft) SW 225 0 min -3,5 C 6,3 km/h (2 Bft)
22.02.2016 01:40 9,4 C 9,3 C 40 % 1014,8 hPa 0,0 mm 8,9 km/h (2 Bft) SW 225 0 min -3,5 C 6,3 km/h (2 Bft)
22.02.2016 01:41 8,5 C 9,3 C 40 % 1014,8 hPa 0,0 mm 7,7 km/h (2 Bft) W-SW 247 0 min -4,3 C 9,8 km/h (2 Bft)
22.02.2016 01:42 8,5 C 9,3 C 40 % 1014,8 hPa 0,0 mm 7,7 km/h (2 Bft) W-SW 247 0 min -4,3 C 9,8 km/h (2 Bft)
22.02.2016 01:43 8,8 C 9,3 C 41 % 1014,3 hPa 0,0 mm 7,5 km/h (2 Bft) W 270 0 min -3,7 C 10,7 km/h (2 Bft)
22.02.2016 01:44 8,8 C 9,3 C 41 % 1014,3 hPa 0,0 mm 7,5 km/h (2 Bft) W 270 0 min -3,7 C 10,7 km/h (2 Bft)
22.02.2016 01:45 9,4 C 9,4 C 41 % 1014,3 hPa 0,0 mm 7,2 km/h (2 Bft) W 270 0 min -3,2 C 8,6 km/h (2 Bft)
22.02.2016 01:46 9,4 C 9,4 C 41 % 1014,3 hPa 0,0 mm 7,2 km/h (2 Bft) W 270 0 min -3,2 C 8,6 km/h (2 Bft)
22.02.2016 01:47 9,4 C 9,4 C 41 % 1014,3 hPa 0,0 mm 7,5 km/h (2 Bft) W-SW 247 0 min -3,2 C 7,7 km/h (2 Bft)
22.02.2016 01:48 9,4 C 9,4 C 41 % 1014,3 hPa 0,0 mm 7,5 km/h (2 Bft) W-SW 247 0 min -3,2 C 7,7 km/h (2 Bft)
22.02.2016 01:49 7,4 C 9,2 C 41 % 1014,3 hPa 0,0 mm 6,6 km/h (2 Bft) W 270 0 min -5,0 C 0,0 km/h (0 Bft)
22.02.2016 01:50 7,4 C 9,2 C 41 % 1014,3 hPa 0,0 mm 6,6 km/h (2 Bft) W 270 0 min -5,0 C 0,0 km/h (0 Bft)
22.02.2016 01:51 6,2 C 8,8 C 42 % 1014,3 hPa 0,0 mm 6,3 km/h (2 Bft) W-SW 247 0 min -5,7 C 20,6 km/h (4 Bft)
22.02.2016 01:52 6,2 C 8,8 C 42 % 1014,3 hPa 0,0 mm 6,3 km/h (2 Bft) W-SW 247 0 min -5,7 C 20,6 km/h (4 Bft)
22.02.2016 01:53 7,2 C 8,3 C 43 % 1014,3 hPa 0,0 mm 7,2 km/h (2 Bft) S 180 0 min -4,5 C 6,9 km/h (2 Bft)
22.02.2016 01:54 7,2 C 8,3 C 43 % 1014,3 hPa 0,0 mm 7,2 km/h (2 Bft) S 180 0 min -4,5 C 6,9 km/h (2 Bft)
22.02.2016 01:55 8,1 C 8,1 C 43 % 1014,3 hPa 0,0 mm 8,3 km/h (2 Bft) SW 225 0 min -3,7 C 19,4 km/h (3 Bft)
22.02.2016 01:56 8,1 C 8,1 C 43 % 1014,3 hPa 0,0 mm 8,3 km/h (2 Bft) SW 225 0 min -3,7 C 19,4 km/h (3 Bft)
22.02.2016 01:57 8,6 C 8,4 C 42 % 1014,3 hPa 0,0 mm 8,9 km/h (2 Bft) SW 225 0 min -3,6 C 11,9 km/h (2 Bft)
22.02.2016 01:58 8,6 C 8,4 C 42 % 1014,3 hPa 0,0 mm 8,9 km/h (2 Bft) SW 225 0 min -3,6 C 11,9 km/h (2 Bft)
22.02.2016 01:59 8,8 C 8,5 C 42 % 1014,3 hPa 0,0 mm 9,5 km/h (2 Bft) SW 225 0 min -3,4 C 8,9 km/h (2 Bft)
22.02.2016 02:00 8,8 C 8,5 C 42 % 1014,3 hPa 0,0 mm 9,5 km/h (2 Bft) SW 225 0 min -3,4 C 8,9 km/h (2 Bft)
22.02.2016 02:01 8,0 C 7,9 C 42 % 1014,3 hPa 0,0 mm 11,0 km/h (2 Bft) NW 315 0 min -4,1 C 3,3 km/h (1 Bft)
22.02.2016 02:02 8,0 C 7,9 C 42 % 1014,3 hPa 0,0 mm 11,0 km/h (2 Bft) NW 315 0 min -4,1 C 3,3 km/h (1 Bft)
22.02.2016 02:03 6,6 C 7,9 C 42 % 1014,6 hPa 0,0 mm 9,2 km/h (2 Bft) SO 135 0 min -5,4 C 0,0 km/h (0 Bft)
22.02.2016 02:04 6,6 C 7,9 C 42 % 1014,6 hPa 0,0 mm 9,2 km/h (2 Bft) SO 135 0 min -5,4 C 0,0 km/h (0 Bft)
22.02.2016 02:05 5,2 C 7,5 C 46 % 1014,6 hPa 0,0 mm 7,5 km/h (2 Bft) S 180 0 min -5,5 C 8,3 km/h (2 Bft)
22.02.2016 02:06 5,2 C 7,5 C 46 % 1014,6 hPa 0,0 mm 7,5 km/h (2 Bft) S 180 0 min -5,5 C 8,3 km/h (2 Bft)
22.02.2016 02:07 4,5 C 7,2 C 48 % 1014,6 hPa 0,0 mm 6,0 km/h (2 Bft) SW 225 0 min -5,5 C 11,6 km/h (2 Bft)
22.02.2016 02:08 4,5 C 7,2 C 48 % 1014,6 hPa 0,0 mm 6,0 km/h (2 Bft) SW 225 0 min -5,5 C 11,6 km/h (2 Bft)
22.02.2016 02:09 4,9 C 7,0 C 49 % 1014,6 hPa 0,0 mm 5,7 km/h (1 Bft) S-SW 202 0 min -4,9 C 9,5 km/h (2 Bft)
22.02.2016 02:10 4,9 C 7,0 C 49 % 1014,6 hPa 0,0 mm 5,7 km/h (1 Bft) S-SW 202 0 min -4,9 C 9,5 km/h (2 Bft)
22.02.2016 02:11 6,0 C 7,1 C 48 % 1014,6 hPa 0,0 mm 6,6 km/h (2 Bft) SW 225 0 min -4,2 C 15,2 km/h (3 Bft)
22.02.2016 02:12 6,0 C 7,1 C 48 % 1014,6 hPa 0,0 mm 6,6 km/h (2 Bft) SW 225 0 min -4,2 C 15,2 km/h (3 Bft)
22.02.2016 02:13 7,0 C 7,0 C 48 % 1014,6 hPa 0,0 mm 8,6 km/h (2 Bft) S 180 0 min -3,2 C 17,3 km/h (3 Bft)
22.02.2016 02:14 7,0 C 7,0 C 48 % 1014,6 hPa 0,0 mm 8,6 km/h (2 Bft) S 180 0 min -3,2 C 17,3 km/h (3 Bft)
22.02.2016 02:15 7,7 C 7,4 C 46 % 1014,6 hPa 0,0 mm 10,4 km/h (2 Bft) SW 225 0 min -3,2 C 14,3 km/h (3 Bft)
22.02.2016 02:16 7,7 C 7,4 C 46 % 1014,6 hPa 0,0 mm 10,4 km/h (2 Bft) SW 225 0 min -3,2 C 14,3 km/h (3 Bft)
22.02.2016 02:17 8,1 C 7,7 C 46 % 1014,6 hPa 0,0 mm 11,6 km/h (2 Bft) S 180 0 min -2,8 C 13,4 km/h (3 Bft)
22.02.2016 02:18 8,1 C 7,7 C 46 % 1014,6 hPa 0,0 mm 11,6 km/h (2 Bft) S 180 0 min -2,8 C 13,4 km/h (3 Bft)
22.02.2016 02:19 8,7 C 8,2 C 45 % 1014,6 hPa 0,0 mm 12,2 km/h (2 Bft) W-SW 247 0 min -2,6 C 9,8 km/h (2 Bft)
22.02.2016 02:20 8,7 C 8,2 C 45 % 1014,6 hPa 0,0 mm 12,2 km/h (2 Bft) W-SW 247 0 min -2,6 C 9,8 km/h (2 Bft)
22.02.2016 02:21 9,0 C 8,4 C 43 % 1014,6 hPa 0,0 mm 12,2 km/h (2 Bft) SW 225 0 min -2,9 C 10,1 km/h (2 Bft)
22.02.2016 02:22 9,0 C 8,4 C 43 % 1014,6 hPa 0,0 mm 12,2 km/h (2 Bft) SW 225 0 min -2,9 C 10,1 km/h (2 Bft)
22.02.2016 02:23 8,9 C 8,5 C 43 % 1013,9 hPa 0,0 mm 11,9 km/h (2 Bft) W-SW 247 0 min -3,0 C 14,6 km/h (3 Bft)
22.02.2016 02:24 8,9 C 8,5 C 43 % 1013,9 hPa 0,0 mm 11,9 km/h (2 Bft) W-SW 247 0 min -3,0 C 14,6 km/h (3 Bft)
22.02.2016 02:25 9,2 C 8,8 C 43 % 1013,9 hPa 0,0 mm 11,0 km/h (2 Bft) SW 225 0 min -2,7 C 10,7 km/h (2 Bft)
22.02.2016 02:26 9,2 C 8,8 C 43 % 1013,9 hPa 0,0 mm 11,0 km/h (2 Bft) SW 225 0 min -2,7 C 10,7 km/h (2 Bft)
22.02.2016 02:27 9,3 C 8,9 C 41 % 1013,9 hPa 0,0 mm 11,0 km/h (2 Bft) W-SW 247 0 min -3,3 C 10,7 km/h (2 Bft)
22.02.2016 02:28 9,3 C 8,9 C 41 % 1013,9 hPa 0,0 mm 11,0 km/h (2 Bft) W-SW 247 0 min -3,3 C 10,7 km/h (2 Bft)
22.02.2016 02:29 9,1 C 8,9 C 41 % 1013,9 hPa 0,0 mm 10,7 km/h (2 Bft) SW 225 0 min -3,4 C 18,8 km/h (3 Bft)
22.02.2016 02:30 9,1 C 8,9 C 41 % 1013,9 hPa 0,0 mm 10,7 km/h (2 Bft) SW 225 0 min -3,4 C 18,8 km/h (3 Bft)
22.02.2016 02:31 9,0 C 8,8 C 41 % 1013,9 hPa 0,0 mm 10,7 km/h (2 Bft) SW 225 0 min -3,5 C 13,4 km/h (3 Bft)
22.02.2016 02:32 9,0 C 8,8 C 41 % 1013,9 hPa 0,0 mm 10,7 km/h (2 Bft) SW 225 0 min -3,5 C 13,4 km/h (3 Bft)
22.02.2016 02:33 8,8 C 8,7 C 41 % 1013,9 hPa 0,0 mm 11,3 km/h (2 Bft) SW 225 0 min -3,7 C 17,0 km/h (3 Bft)
22.02.2016 02:34 8,8 C 8,7 C 41 % 1013,9 hPa 0,0 mm 11,3 km/h (2 Bft) SW 225 0 min -3,7 C 17,0 km/h (3 Bft)
22.02.2016 02:35 8,6 C 8,6 C 41 % 1013,9 hPa 0,0 mm 10,4 km/h (2 Bft) W-SW 247 0 min -3,9 C 5,4 km/h (1 Bft)
22.02.2016 02:37 6,5 C 8,4 C 42 % 1013,9 hPa 0,0 mm 9,2 km/h (2 Bft) S-SW 202 0 min -5,5 C 11,0 km/h (2 Bft)
22.02.2016 02:38 6,5 C 8,4 C 42 % 1013,9 hPa 0,0 mm 9,2 km/h (2 Bft) S-SW 202 0 min -5,5 C 11,0 km/h (2 Bft)
22.02.2016 02:39 7,2 C 7,8 C 43 % 1013,9 hPa 0,0 mm 9,2 km/h (2 Bft) S-SO 157 0 min -4,5 C 11,0 km/h (2 Bft)
22.02.2016 02:40 7,2 C 7,8 C 43 % 1013,9 hPa 0,0 mm 9,2 km/h (2 Bft) S-SO 157 0 min -4,5 C 11,0 km/h (2 Bft)
22.02.2016 02:41 8,0 C 8,0 C 44 % 1013,9 hPa 0,0 mm 9,2 km/h (2 Bft) W-SW 247 0 min -3,5 C 11,3 km/h (2 Bft)
22.02.2016 02:42 8,0 C 8,0 C 44 % 1013,9 hPa 0,0 mm 9,2 km/h (2 Bft) W-SW 247 0 min -3,5 C 11,3 km/h (2 Bft)
22.02.2016 02:43 8,3 C 8,3 C 43 % 1014,0 hPa 0,0 mm 8,3 km/h (2 Bft) W 270 0 min -3,5 C 0,0 km/h (0 Bft)
22.02.2016 02:44 8,3 C 8,3 C 43 % 1014,0 hPa 0,0 mm 8,3 km/h (2 Bft) W 270 0 min -3,5 C 0,0 km/h (0 Bft)
22.02.2016 02:45 6,4 C 8,3 C 43 % 1014,0 hPa 0,0 mm 6,0 km/h (2 Bft) O-NO 67 0 min -5,2 C 0,0 km/h (0 Bft)
22.02.2016 02:46 6,4 C 8,3 C 43 % 1014,0 hPa 0,0 mm 6,0 km/h (2 Bft) O-NO 67 0 min -5,2 C 0,0 km/h (0 Bft)
22.02.2016 02:47 5,1 C 7,7 C 44 % 1014,0 hPa 0,0 mm 6,0 km/h (2 Bft) O-SO 112 0 min -6,1 C 8,0 km/h (2 Bft)
22.02.2016 02:48 5,1 C 7,7 C 44 % 1014,0 hPa 0,0 mm 6,0 km/h (2 Bft) O-SO 112 0 min -6,1 C 8,0 km/h (2 Bft)
22.02.2016 02:49 4,6 C 7,1 C 46 % 1014,0 hPa 0,0 mm 6,0 km/h (2 Bft) W-SW 247 0 min -6,0 C 10,1 km/h (2 Bft)
22.02.2016 02:50 4,6 C 7,1 C 46 % 1014,0 hPa 0,0 mm 6,0 km/h (2 Bft) W-SW 247 0 min -6,0 C 10,1 km/h (2 Bft)
22.02.2016 02:51 5,2 C 7,1 C 47 % 1014,0 hPa 0,0 mm 5,7 km/h (1 Bft) W-SW 247 0 min -5,2 C 11,9 km/h (2 Bft)
22.02.2016 02:52 5,2 C 7,1 C 47 % 1014,0 hPa 0,0 mm 5,7 km/h (1 Bft) W-SW 247 0 min -5,2 C 11,9 km/h (2 Bft)
22.02.2016 02:53 7,1 C 7,2 C 47 % 1014,0 hPa 0,0 mm 6,0 km/h (2 Bft) W 270 0 min -3,4 C 14,6 km/h (3 Bft)
22.02.2016 02:54 7,1 C 7,2 C 47 % 1014,0 hPa 0,0 mm 6,0 km/h (2 Bft) W 270 0 min -3,4 C 14,6 km/h (3 Bft)
22.02.2016 02:55 7,6 C 7,6 C 46 % 1014,0 hPa 0,0 mm 7,2 km/h (2 Bft) W-SW 247 0 min -3,3 C 12,2 km/h (2 Bft)
22.02.2016 02:56 7,6 C 7,6 C 46 % 1014,0 hPa 0,0 mm 7,2 km/h (2 Bft) W-SW 247 0 min -3,3 C 12,2 km/h (2 Bft)
22.02.2016 02:57 7,9 C 7,7 C 45 % 1014,0 hPa 0,0 mm 8,3 km/h (2 Bft) SW 225 0 min -3,3 C 10,4 km/h (2 Bft)
22.02.2016 02:58 7,9 C 7,7 C 45 % 1014,0 hPa 0,0 mm 8,3 km/h (2 Bft) SW 225 0 min -3,3 C 10,4 km/h (2 Bft)
22.02.2016 02:59 8,4 C 8,1 C 45 % 1014,0 hPa 0,0 mm 9,2 km/h (2 Bft) W-SW 247 0 min -2,8 C 17,3 km/h (3 Bft)
22.02.2016 03:00 8,4 C 8,1 C 45 % 1014,0 hPa 0,0 mm 9,2 km/h (2 Bft) W-SW 247 0 min -2,8 C 17,3 km/h (3 Bft)
22.02.2016 03:01 8,6 C 8,3 C 44 % 1014,0 hPa 0,0 mm 9,2 km/h (2 Bft) W-SW 247 0 min -2,9 C 16,4 km/h (3 Bft)
22.02.2016 03:02 8,6 C 8,3 C 44 % 1014,0 hPa 0,0 mm 9,2 km/h (2 Bft) W-SW 247 0 min -2,9 C 16,4 km/h (3 Bft)
22.02.2016 03:04 8,6 C 8,3 C 44 % 1013,8 hPa 0,0 mm 9,2 km/h (2 Bft) W-SW 247 0 min -2,9 C 16,4 km/h (3 Bft)
22.02.2016 03:05 8,8 C 8,6 C 43 % 1013,8 hPa 0,0 mm 8,6 km/h (2 Bft) W-SW 247 0 min -3,1 C 9,5 km/h (2 Bft)
22.02.2016 03:06 8,8 C 8,6 C 43 % 1013,8 hPa 0,0 mm 8,6 km/h (2 Bft) W-SW 247 0 min -3,1 C 9,5 km/h (2 Bft)
22.02.2016 03:07 8,9 C 8,7 C 43 % 1013,8 hPa 0,0 mm 8,6 km/h (2 Bft) NW 315 0 min -3,0 C 13,4 km/h (3 Bft)
22.02.2016 03:08 8,9 C 8,7 C 43 % 1013,8 hPa 0,0 mm 8,6 km/h (2 Bft) NW 315 0 min -3,0 C 13,4 km/h (3 Bft)
22.02.2016 03:09 8,8 C 8,7 C 43 % 1013,8 hPa 0,0 mm 8,3 km/h (2 Bft) W 270 0 min -3,1 C 9,2 km/h (2 Bft)
22.02.2016 03:10 8,8 C 8,7 C 43 % 1013,8 hPa 0,0 mm 8,3 km/h (2 Bft) W 270 0 min -3,1 C 9,2 km/h (2 Bft)
22.02.2016 03:11 8,8 C 8,7 C 43 % 1013,8 hPa 0,0 mm 8,0 km/h (2 Bft) W-SW 247 0 min -3,1 C 7,5 km/h (2 Bft)
22.02.2016 03:12 8,8 C 8,7 C 43 % 1013,8 hPa 0,0 mm 8,0 km/h (2 Bft) W-SW 247 0 min -3,1 C 7,5 km/h (2 Bft)
22.02.2016 03:13 8,9 C 8,8 C 43 % 1013,8 hPa 0,0 mm 8,0 km/h (2 Bft) W-SW 247 0 min -3,0 C 10,1 km/h (2 Bft)
22.02.2016 03:14 8,9 C 8,8 C 43 % 1013,8 hPa 0,0 mm 8,0 km/h (2 Bft) W-SW 247 0 min -3,0 C 10,1 km/h (2 Bft)
22.02.2016 03:15 9,1 C 9,0 C 42 % 1013,8 hPa 0,0 mm 8,6 km/h (2 Bft) W-SW 247 0 min -3,1 C 14,9 km/h (3 Bft)
22.02.2016 03:16 9,1 C 9,0 C 42 % 1013,8 hPa 0,0 mm 8,6 km/h (2 Bft) W-SW 247 0 min -3,1 C 14,9 km/h (3 Bft)
22.02.2016 03:17 9,4 C 9,2 C 41 % 1013,8 hPa 0,0 mm 8,6 km/h (2 Bft) W-SW 247 0 min -3,2 C 9,5 km/h (2 Bft)
22.02.2016 03:18 9,4 C 9,2 C 41 % 1013,8 hPa 0,0 mm 8,6 km/h (2 Bft) W-SW 247 0 min -3,2 C 9,5 km/h (2 Bft)
22.02.2016 03:19 9,5 C 9,3 C 41 % 1013,8 hPa 0,0 mm 9,2 km/h (2 Bft) W-SW 247 0 min -3,1 C 12,8 km/h (3 Bft)
22.02.2016 03:20 9,5 C 9,3 C 41 % 1013,8 hPa 0,0 mm 9,2 km/h (2 Bft) W-SW 247 0 min -3,1 C 12,8 km/h (3 Bft)
22.02.2016 03:21 9,5 C 9,3 C 41 % 1013,8 hPa 0,0 mm 9,5 km/h (2 Bft) W-SW 247 0 min -3,1 C 8,9 km/h (2 Bft)
22.02.2016 03:22 9,5 C 9,3 C 41 % 1013,8 hPa 0,0 mm 9,5 km/h (2 Bft) W-SW 247 0 min -3,1 C 8,9 km/h (2 Bft)
22.02.2016 03:23 9,5 C 9,3 C 41 % 1013,6 hPa 0,0 mm 9,8 km/h (2 Bft) W-SW 247 0 min -3,1 C 11,3 km/h (2 Bft)
22.02.2016 03:24 9,5 C 9,3 C 41 % 1013,6 hPa 0,0 mm 9,8 km/h (2 Bft) W-SW 247 0 min -3,1 C 11,3 km/h (2 Bft)
22.02.2016 03:25 9,6 C 9,4 C 40 % 1013,6 hPa 0,0 mm 9,5 km/h (2 Bft) W 270 0 min -3,3 C 8,3 km/h (2 Bft)
22.02.2016 03:26 9,6 C 9,4 C 40 % 1013,6 hPa 0,0 mm 9,5 km/h (2 Bft) W 270 0 min -3,3 C 8,3 km/h (2 Bft)
22.02.2016 03:27 9,5 C 9,4 C 40 % 1013,6 hPa 0,0 mm 9,2 km/h (2 Bft) W-SW 247 0 min -3,4 C 11,9 km/h (2 Bft)
22.02.2016 03:28 9,5 C 9,4 C 40 % 1013,6 hPa 0,0 mm 9,2 km/h (2 Bft) W-SW 247 0 min -3,4 C 11,9 km/h (2 Bft)
22.02.2016 03:29 9,5 C 9,4 C 40 % 1013,6 hPa 0,0 mm 8,9 km/h (2 Bft) W 270 0 min -3,4 C 8,6 km/h (2 Bft)
22.02.2016 03:30 9,5 C 9,4 C 40 % 1013,6 hPa 0,0 mm 8,9 km/h (2 Bft) W 270 0 min -3,4 C 8,6 km/h (2 Bft)
22.02.2016 03:31 9,5 C 9,5 C 40 % 1013,6 hPa 0,0 mm 8,6 km/h (2 Bft) W 270 0 min -3,4 C 6,9 km/h (2 Bft)
22.02.2016 03:32 9,5 C 9,5 C 40 % 1013,6 hPa 0,0 mm 8,6 km/h (2 Bft) W 270 0 min -3,4 C 6,9 km/h (2 Bft)
22.02.2016 03:33 9,4 C 9,4 C 40 % 1013,6 hPa 0,0 mm 8,3 km/h (2 Bft) W-SW 247 0 min -3,5 C 10,1 km/h (2 Bft)
22.02.2016 03:34 9,4 C 9,4 C 40 % 1013,6 hPa 0,0 mm 8,3 km/h (2 Bft) W-SW 247 0 min -3,5 C 10,1 km/h (2 Bft)
22.02.2016 03:35 9,6 C 9,5 C 40 % 1013,6 hPa 0,0 mm 8,3 km/h (2 Bft) NW 315 0 min -3,3 C 8,0 km/h (2 Bft)
22.02.2016 03:36 9,6 C 9,5 C 40 % 1013,6 hPa 0,0 mm 8,3 km/h (2 Bft) NW 315 0 min -3,3 C 8,0 km/h (2 Bft)
22.02.2016 03:37 9,5 C 9,5 C 40 % 1013,6 hPa 0,0 mm 8,3 km/h (2 Bft) W 270 0 min -3,4 C 7,7 km/h (2 Bft)
22.02.2016 03:38 9,5 C 9,5 C 40 % 1013,6 hPa 0,0 mm 8,3 km/h (2 Bft) W 270 0 min -3,4 C 7,7 km/h (2 Bft)
22.02.2016 03:39 9,4 C 9,6 C 40 % 1013,6 hPa 0,0 mm 7,7 km/h (2 Bft) W-SW 247 0 min -3,5 C 8,0 km/h (2 Bft)
22.02.2016 03:40 9,4 C 9,6 C 40 % 1013,6 hPa 0,0 mm 7,7 km/h (2 Bft) W-SW 247 0 min -3,5 C 8,0 km/h (2 Bft)
22.02.2016 03:41 9,4 C 9,4 C 40 % 1013,6 hPa 0,0 mm 8,3 km/h (2 Bft) W 270 0 min -3,5 C 11,9 km/h (2 Bft)
22.02.2016 03:42 9,4 C 9,4 C 40 % 1013,6 hPa 0,0 mm 8,3 km/h (2 Bft) W 270 0 min -3,5 C 11,9 km/h (2 Bft)
22.02.2016 03:43 9,5 C 9,5 C 40 % 1013,4 hPa 0,0 mm 8,6 km/h (2 Bft) W-SW 247 0 min -3,4 C 14,9 km/h (3 Bft)
22.02.2016 03:44 9,5 C 9,5 C 40 % 1013,4 hPa 0,0 mm 8,6 km/h (2 Bft) W-SW 247 0 min -3,4 C 14,9 km/h (3 Bft)
22.02.2016 03:45 9,5 C 9,5 C 40 % 1013,4 hPa 0,0 mm 8,0 km/h (2 Bft) SW 225 0 min -3,4 C 12,5 km/h (3 Bft)
22.02.2016 03:46 9,5 C 9,5 C 40 % 1013,4 hPa 0,0 mm 8,0 km/h (2 Bft) SW 225 0 min -3,4 C 12,5 km/h (3 Bft)
22.02.2016 03:47 9,4 C 9,4 C 41 % 1013,4 hPa 0,0 mm 8,0 km/h (2 Bft) W 270 0 min -3,2 C 7,5 km/h (2 Bft)
22.02.2016 03:48 9,4 C 9,4 C 41 % 1013,4 hPa 0,0 mm 8,0 km/h (2 Bft) W 270 0 min -3,2 C 7,5 km/h (2 Bft)
22.02.2016 03:49 9,3 C 9,4 C 41 % 1013,4 hPa 0,0 mm 8,0 km/h (2 Bft) W-SW 247 0 min -3,3 C 9,2 km/h (2 Bft)
22.02.2016 03:50 9,3 C 9,4 C 41 % 1013,4 hPa 0,0 mm 8,0 km/h (2 Bft) W-SW 247 0 min -3,3 C 9,2 km/h (2 Bft)
22.02.2016 03:51 9,3 C 9,3 C 41 % 1013,4 hPa 0,0 mm 7,7 km/h (2 Bft) NW 315 0 min -3,3 C 6,6 km/h (2 Bft)
22.02.2016 03:52 9,3 C 9,3 C 41 % 1013,4 hPa 0,0 mm 7,7 km/h (2 Bft) NW 315 0 min -3,3 C 6,6 km/h (2 Bft)
22.02.2016 03:53 9,4 C 9,4 C 41 % 1013,4 hPa 0,0 mm 7,7 km/h (2 Bft) SW 225 0 min -3,2 C 15,5 km/h (3 Bft)
22.02.2016 03:54 9,4 C 9,4 C 41 % 1013,4 hPa 0,0 mm 7,7 km/h (2 Bft) SW 225 0 min -3,2 C 15,5 km/h (3 Bft)
22.02.2016 03:55 9,6 C 9,5 C 41 % 1013,4 hPa 0,0 mm 8,0 km/h (2 Bft) NW 315 0 min -3,0 C 9,2 km/h (2 Bft)
22.02.2016 03:56 9,6 C 9,5 C 41 % 1013,4 hPa 0,0 mm 8,0 km/h (2 Bft) NW 315 0 min -3,0 C 9,2 km/h (2 Bft)
22.02.2016 03:57 9,6 C 9,5 C 41 % 1013,4 hPa 0,0 mm 8,3 km/h (2 Bft) W 270 0 min -3,0 C 9,2 km/h (2 Bft)
22.02.2016 03:58 9,6 C 9,5 C 41 % 1013,4 hPa 0,0 mm 8,3 km/h (2 Bft) W 270 0 min -3,0 C 9,2 km/h (2 Bft)
22.02.2016 03:59 9,5 C 9,5 C 42 % 1013,4 hPa 0,0 mm 8,3 km/h (2 Bft) W 270 0 min -2,8 C 11,3 km/h (2 Bft)
22.02.2016 04:00 9,5 C 9,5 C 42 % 1013,4 hPa 0,0 mm 8,3 km/h (2 Bft) W 270 0 min -2,8 C 11,3 km/h (2 Bft)
22.02.2016 04:01 9,5 C 9,4 C 42 % 1013,4 hPa 0,0 mm 8,9 km/h (2 Bft) W-SW 247 0 min -2,8 C 14,3 km/h (3 Bft)
22.02.2016 04:02 9,5 C 9,4 C 42 % 1013,4 hPa 0,0 mm 8,9 km/h (2 Bft) W-SW 247 0 min -2,8 C 14,3 km/h (3 Bft)
22.02.2016 04:03 9,5 C 9,4 C 42 % 1013,0 hPa 0,0 mm 9,2 km/h (2 Bft) W 270 0 min -2,8 C 6,9 km/h (2 Bft)
22.02.2016 04:04 9,5 C 9,4 C 42 % 1013,0 hPa 0,0 mm 9,2 km/h (2 Bft) W 270 0 min -2,8 C 6,9 km/h (2 Bft)
22.02.2016 04:05 9,4 C 9,4 C 42 % 1013,0 hPa 0,0 mm 8,3 km/h (2 Bft) W-SW 247 0 min -2,8 C 7,2 km/h (2 Bft)
22.02.2016 04:06 9,4 C 9,4 C 42 % 1013,0 hPa 0,0 mm 8,3 km/h (2 Bft) W-SW 247 0 min -2,8 C 7,2 km/h (2 Bft)
22.02.2016 04:07 9,4 C 9,4 C 42 % 1013,0 hPa 0,0 mm 8,0 km/h (2 Bft) W-SW 247 0 min -2,8 C 8,9 km/h (2 Bft)
22.02.2016 04:08 9,4 C 9,4 C 42 % 1013,0 hPa 0,0 mm 8,0 km/h (2 Bft) W-SW 247 0 min -2,8 C 8,9 km/h (2 Bft)
22.02.2016 04:09 9,3 C 9,4 C 42 % 1013,0 hPa 0,0 mm 7,7 km/h (2 Bft) W-SW 247 0 min -2,9 C 7,5 km/h (2 Bft)
22.02.2016 04:10 9,3 C 9,4 C 42 % 1013,0 hPa 0,0 mm 7,7 km/h (2 Bft) W-SW 247 0 min -2,9 C 7,5 km/h (2 Bft)
22.02.2016 04:11 9,2 C 9,4 C 42 % 1013,0 hPa 0,0 mm 7,7 km/h (2 Bft) W-SW 247 0 min -3,0 C 9,5 km/h (2 Bft)
22.02.2016 04:12 9,2 C 9,4 C 42 % 1013,0 hPa 0,0 mm 7,7 km/h (2 Bft) W-SW 247 0 min -3,0 C 9,5 km/h (2 Bft)
22.02.2016 04:13 9,2 C 9,4 C 42 % 1013,0 hPa 0,0 mm 7,2 km/h (2 Bft) W 270 0 min -3,0 C 6,9 km/h (2 Bft)
22.02.2016 04:14 9,2 C 9,4 C 42 % 1013,0 hPa 0,0 mm 7,2 km/h (2 Bft) W 270 0 min -3,0 C 6,9 km/h (2 Bft)
22.02.2016 04:15 9,2 C 9,4 C 42 % 1013,0 hPa 0,0 mm 6,9 km/h (2 Bft) W 270 0 min -3,0 C 4,8 km/h (1 Bft)
22.02.2016 04:16 9,2 C 9,4 C 42 % 1013,0 hPa 0,0 mm 6,9 km/h (2 Bft) W 270 0 min -3,0 C 4,8 km/h (1 Bft)
22.02.2016 04:17 9,2 C 9,3 C 42 % 1013,0 hPa 0,0 mm 7,2 km/h (2 Bft) W-SW 247 0 min -3,0 C 11,0 km/h (2 Bft)
22.02.2016 04:18 9,2 C 9,3 C 42 % 1013,0 hPa 0,0 mm 7,2 km/h (2 Bft) W-SW 247 0 min -3,0 C 11,0 km/h (2 Bft)
22.02.2016 04:19 9,2 C 9,2 C 42 % 1013,0 hPa 0,0 mm 7,7 km/h (2 Bft) W-SW 247 0 min -3,0 C 15,5 km/h (3 Bft)
22.02.2016 04:20 9,2 C 9,2 C 42 % 1013,0 hPa 0,0 mm 7,7 km/h (2 Bft) W-SW 247 0 min -3,0 C 15,5 km/h (3 Bft)
22.02.2016 04:21 9,3 C 9,3 C 42 % 1013,0 hPa 0,0 mm 8,0 km/h (2 Bft) W 270 0 min -2,9 C 8,3 km/h (2 Bft)
22.02.2016 04:22 9,3 C 9,3 C 42 % 1013,0 hPa 0,0 mm 8,0 km/h (2 Bft) W 270 0 min -2,9 C 8,3 km/h (2 Bft)
22.02.2016 04:23 9,2 C 9,2 C 42 % 1012,9 hPa 0,0 mm 8,3 km/h (2 Bft) SW 225 0 min -3,0 C 11,0 km/h (2 Bft)
22.02.2016 04:24 9,2 C 9,2 C 42 % 1012,9 hPa 0,0 mm 8,3 km/h (2 Bft) SW 225 0 min -3,0 C 11,0 km/h (2 Bft)
22.02.2016 04:25 9,2 C 9,1 C 42 % 1012,9 hPa 0,0 mm 8,6 km/h (2 Bft) SW 225 0 min -3,0 C 11,0 km/h (2 Bft)
22.02.2016 04:26 9,2 C 9,1 C 42 % 1012,9 hPa 0,0 mm 8,6 km/h (2 Bft) SW 225 0 min -3,0 C 11,0 km/h (2 Bft)
22.02.2016 04:27 9,2 C 9,1 C 42 % 1012,9 hPa 0,0 mm 9,5 km/h (2 Bft) W-NW 292 0 min -3,0 C 18,2 km/h (3 Bft)
22.02.2016 04:28 9,2 C 9,1 C 42 % 1012,9 hPa 0,0 mm 9,5 km/h (2 Bft) W-NW 292 0 min -3,0 C 18,2 km/h (3 Bft)
22.02.2016 04:29 9,2 C 9,1 C 42 % 1012,9 hPa 0,0 mm 9,5 km/h (2 Bft) W 270 0 min -3,0 C 14,3 km/h (3 Bft)
22.02.2016 04:30 9,2 C 9,1 C 42 % 1012,9 hPa 0,0 mm 9,5 km/h (2 Bft) W 270 0 min -3,0 C 14,3 km/h (3 Bft)
22.02.2016 04:31 9,1 C 9,1 C 42 % 1012,9 hPa 0,0 mm 8,3 km/h (2 Bft) W-SW 247 0 min -3,1 C 4,8 km/h (1 Bft)
22.02.2016 04:32 9,1 C 9,1 C 42 % 1012,9 hPa 0,0 mm 8,3 km/h (2 Bft) W-SW 247 0 min -3,1 C 4,8 km/h (1 Bft)
22.02.2016 04:33 9,0 C 9,0 C 43 % 1012,9 hPa 0,0 mm 8,0 km/h (2 Bft) W-SW 247 0 min -2,9 C 8,6 km/h (2 Bft)
22.02.2016 04:34 9,0 C 9,0 C 43 % 1012,9 hPa 0,0 mm 8,0 km/h (2 Bft) W-SW 247 0 min -2,9 C 8,6 km/h (2 Bft)
22.02.2016 04:35 8,9 C 8,9 C 43 % 1012,9 hPa 0,0 mm 7,7 km/h (2 Bft) W-NW 292 0 min -3,0 C 8,9 km/h (2 Bft)
22.02.2016 04:36 8,9 C 8,9 C 43 % 1012,9 hPa 0,0 mm 7,7 km/h (2 Bft) W-NW 292 0 min -3,0 C 8,9 km/h (2 Bft)
22.02.2016 04:37 9,0 C 8,9 C 43 % 1012,9 hPa 0,0 mm 7,7 km/h (2 Bft) W-SW 247 0 min -2,9 C 16,4 km/h (3 Bft)
22.02.2016 04:38 9,0 C 8,9 C 43 % 1012,9 hPa 0,0 mm 7,7 km/h (2 Bft) W-SW 247 0 min -2,9 C 16,4 km/h (3 Bft)
22.02.2016 04:39 9,1 C 9,0 C 43 % 1012,9 hPa 0,0 mm 7,7 km/h (2 Bft) W 270 0 min -2,8 C 9,5 km/h (2 Bft)
22.02.2016 04:40 9,1 C 9,0 C 43 % 1012,9 hPa 0,0 mm 7,7 km/h (2 Bft) W 270 0 min -2,8 C 9,5 km/h (2 Bft)
22.02.2016 04:41 9,2 C 9,1 C 43 % 1012,9 hPa 0,0 mm 8,0 km/h (2 Bft) W 270 0 min -2,7 C 8,6 km/h (2 Bft)
22.02.2016 04:42 9,2 C 9,1 C 43 % 1012,9 hPa 0,0 mm 8,0 km/h (2 Bft) W 270 0 min -2,7 C 8,6 km/h (2 Bft)
22.02.2016 04:43 9,2 C 9,0 C 43 % 1013,3 hPa 0,0 mm 9,2 km/h (2 Bft) W-SW 247 0 min -2,7 C 15,5 km/h (3 Bft)
22.02.2016 04:44 9,2 C 9,0 C 43 % 1013,3 hPa 0,0 mm 9,2 km/h (2 Bft) W-SW 247 0 min -2,7 C 15,5 km/h (3 Bft)
22.02.2016 04:45 9,3 C 9,1 C 43 % 1013,3 hPa 0,0 mm 10,4 km/h (2 Bft) W-NW 292 0 min -2,6 C 10,7 km/h (2 Bft)
22.02.2016 04:46 9,3 C 9,1 C 43 % 1013,3 hPa 0,0 mm 10,4 km/h (2 Bft) W-NW 292 0 min -2,6 C 10,7 km/h (2 Bft)
22.02.2016 04:47 9,3 C 9,1 C 42 % 1013,3 hPa 0,0 mm 11,3 km/h (2 Bft) W 270 0 min -2,9 C 13,1 km/h (3 Bft)
22.02.2016 04:48 9,3 C 9,1 C 42 % 1013,3 hPa 0,0 mm 11,3 km/h (2 Bft) W 270 0 min -2,9 C 13,1 km/h (3 Bft)
22.02.2016 04:49 9,4 C 9,2 C 42 % 1013,3 hPa 0,0 mm 11,6 km/h (2 Bft) W 270 0 min -2,8 C 20,9 km/h (4 Bft)
22.02.2016 04:50 9,4 C 9,2 C 42 % 1013,3 hPa 0,0 mm 11,6 km/h (2 Bft) W 270 0 min -2,8 C 20,9 km/h (4 Bft)
22.02.2016 04:51 9,4 C 9,1 C 42 % 1013,3 hPa 0,0 mm 12,2 km/h (2 Bft) W 270 0 min -2,8 C 18,2 km/h (3 Bft)
22.02.2016 04:52 9,4 C 9,1 C 42 % 1013,3 hPa 0,0 mm 12,2 km/h (2 Bft) W 270 0 min -2,8 C 18,2 km/h (3 Bft)
22.02.2016 04:53 9,5 C 9,2 C 42 % 1013,3 hPa 0,0 mm 12,2 km/h (2 Bft) W-SW 247 0 min -2,8 C 15,8 km/h (3 Bft)
22.02.2016 04:54 9,5 C 9,2 C 42 % 1013,3 hPa 0,0 mm 12,2 km/h (2 Bft) W-SW 247 0 min -2,8 C 23,5 km/h (4 Bft)
22.02.2016 04:55 9,5 C 9,3 C 42 % 1013,3 hPa 0,0 mm 11,9 km/h (2 Bft) W-SW 247 0 min -2,8 C 13,4 km/h (3 Bft)
22.02.2016 04:56 9,5 C 9,3 C 42 % 1013,3 hPa 0,0 mm 11,9 km/h (2 Bft) W-SW 247 0 min -2,8 C 13,4 km/h (3 Bft)
22.02.2016 04:57 9,6 C 9,3 C 42 % 1013,3 hPa 0,0 mm 11,9 km/h (2 Bft) W 270 0 min -2,7 C 16,1 km/h (3 Bft)
22.02.2016 04:58 9,6 C 9,3 C 42 % 1013,3 hPa 0,0 mm 11,9 km/h (2 Bft) W 270 0 min -2,7 C 16,1 km/h (3 Bft)
22.02.2016 04:59 9,5 C 9,4 C 42 % 1013,3 hPa 0,0 mm 10,7 km/h (2 Bft) W 270 0 min -2,8 C 5,4 km/h (1 Bft)
22.02.2016 05:00 9,5 C 9,4 C 42 % 1013,3 hPa 0,0 mm 10,7 km/h (2 Bft) W 270 0 min -2,8 C 5,4 km/h (1 Bft)
22.02.2016 05:01 9,4 C 9,3 C 42 % 1013,3 hPa 0,0 mm 9,8 km/h (2 Bft) W 270 0 min -2,8 C 8,0 km/h (2 Bft)
22.02.2016 05:02 9,4 C 9,3 C 42 % 1013,3 hPa 0,0 mm 9,8 km/h (2 Bft) W 270 0 min -2,8 C 8,0 km/h (2 Bft)
22.02.2016 05:03 9,5 C 9,3 C 42 % 1013,5 hPa 0,0 mm 9,5 km/h (2 Bft) W-NW 292 0 min -2,8 C 14,0 km/h (3 Bft)
22.02.2016 05:04 9,5 C 9,3 C 42 % 1013,5 hPa 0,0 mm 9,5 km/h (2 Bft) W-NW 292 0 min -2,8 C 14,0 km/h (3 Bft)
22.02.2016 05:05 9,5 C 9,3 C 42 % 1013,5 hPa 0,0 mm 9,8 km/h (2 Bft) W 270 0 min -2,8 C 8,9 km/h (2 Bft)
22.02.2016 05:06 9,5 C 9,3 C 42 % 1013,5 hPa 0,0 mm 9,8 km/h (2 Bft) W 270 0 min -2,8 C 8,9 km/h (2 Bft)
22.02.2016 05:07 9,6 C 9,4 C 42 % 1013,5 hPa 0,0 mm 9,5 km/h (2 Bft) W-SW 247 0 min -2,7 C 13,4 km/h (3 Bft)
22.02.2016 05:08 9,6 C 9,4 C 42 % 1013,5 hPa 0,0 mm 9,5 km/h (2 Bft) W-SW 247 0 min -2,7 C 13,4 km/h (3 Bft)
22.02.2016 05:09 9,5 C 9,4 C 43 % 1013,5 hPa 0,0 mm 9,5 km/h (2 Bft) SO 135 0 min -2,4 C 9,8 km/h (2 Bft)
22.02.2016 05:10 9,5 C 9,4 C 43 % 1013,5 hPa 0,0 mm 9,5 km/h (2 Bft) SO 135 0 min -2,4 C 9,8 km/h (2 Bft)
22.02.2016 05:11 9,5 C 9,4 C 43 % 1013,5 hPa 0,0 mm 9,8 km/h (2 Bft) W-SW 247 0 min -2,4 C 8,0 km/h (2 Bft)
22.02.2016 05:12 9,5 C 9,4 C 43 % 1013,5 hPa 0,0 mm 9,8 km/h (2 Bft) W-SW 247 0 min -2,4 C 8,0 km/h (2 Bft)
22.02.2016 05:13 9,5 C 9,3 C 43 % 1013,5 hPa 0,0 mm 9,8 km/h (2 Bft) W-SW 247 0 min -2,4 C 14,6 km/h (3 Bft)
22.02.2016 05:14 9,5 C 9,3 C 43 % 1013,5 hPa 0,0 mm 9,8 km/h (2 Bft) W-SW 247 0 min -2,4 C 24,7 km/h (4 Bft)
22.02.2016 05:15 9,6 C 9,4 C 43 % 1013,5 hPa 0,0 mm 9,5 km/h (2 Bft) O-NO 67 0 min -2,4 C 9,8 km/h (2 Bft)
22.02.2016 05:16 9,6 C 9,4 C 43 % 1013,5 hPa 0,0 mm 9,5 km/h (2 Bft) O-NO 67 0 min -2,4 C 9,8 km/h (2 Bft)
22.02.2016 05:17 9,6 C 9,4 C 43 % 1013,5 hPa 0,0 mm 9,2 km/h (2 Bft) W-SW 247 0 min -2,4 C 15,8 km/h (3 Bft)
22.02.2016 05:18 9,6 C 9,4 C 43 % 1013,5 hPa 0,0 mm 9,2 km/h (2 Bft) W-SW 247 0 min -2,4 C 15,8 km/h (3 Bft)
22.02.2016 05:19 9,7 C 9,5 C 43 % 1013,5 hPa 0,0 mm 9,8 km/h (2 Bft) SW 225 0 min -2,3 C 11,0 km/h (2 Bft)
22.02.2016 05:20 9,7 C 9,5 C 43 % 1013,5 hPa 0,0 mm 9,8 km/h (2 Bft) SW 225 0 min -2,3 C 11,0 km/h (2 Bft)
22.02.2016 05:21 9,7 C 9,5 C 43 % 1013,5 hPa 0,0 mm 10,1 km/h (2 Bft) W 270 0 min -2,3 C 6,9 km/h (2 Bft)
22.02.2016 05:22 9,7 C 9,5 C 43 % 1013,5 hPa 0,0 mm 10,1 km/h (2 Bft) W 270 0 min -2,3 C 6,9 km/h (2 Bft)
22.02.2016 05:23 9,7 C 9,5 C 43 % 1013,8 hPa 0,0 mm 10,7 km/h (2 Bft) W 270 0 min -2,3 C 11,6 km/h (2 Bft)
22.02.2016 05:24 9,7 C 9,5 C 43 % 1013,8 hPa 0,0 mm 10,7 km/h (2 Bft) W 270 0 min -2,3 C 11,6 km/h (2 Bft)
22.02.2016 05:25 9,6 C 9,4 C 43 % 1013,8 hPa 0,0 mm 11,0 km/h (2 Bft) W-SW 247 0 min -2,4 C 15,8 km/h (3 Bft)
22.02.2016 05:26 9,6 C 9,4 C 43 % 1013,8 hPa 0,0 mm 11,0 km/h (2 Bft) W-SW 247 0 min -2,4 C 15,8 km/h (3 Bft)
22.02.2016 05:27 9,6 C 9,4 C 43 % 1013,8 hPa 0,0 mm 11,3 km/h (2 Bft) W-SW 247 0 min -2,4 C 13,7 km/h (3 Bft)
22.02.2016 05:28 9,6 C 9,4 C 43 % 1013,8 hPa 0,0 mm 11,3 km/h (2 Bft) W-SW 247 0 min -2,4 C 13,7 km/h (3 Bft)
22.02.2016 05:29 9,7 C 9,4 C 43 % 1013,8 hPa 0,0 mm 11,6 km/h (2 Bft) W-SW 247 0 min -2,3 C 22,9 km/h (4 Bft)
22.02.2016 05:30 9,7 C 9,4 C 43 % 1013,8 hPa 0,0 mm 11,6 km/h (2 Bft) W-SW 247 0 min -2,3 C 22,9 km/h (4 Bft)
22.02.2016 05:31 9,9 C 9,6 C 44 % 1013,8 hPa 0,0 mm 11,6 km/h (2 Bft) W-SW 247 0 min -1,8 C 12,2 km/h (2 Bft)
22.02.2016 05:32 9,9 C 9,6 C 44 % 1013,8 hPa 0,0 mm 11,6 km/h (2 Bft) W-SW 247 0 min -1,8 C 12,2 km/h (2 Bft)
22.02.2016 05:33 9,9 C 9,6 C 44 % 1013,8 hPa 0,0 mm 11,6 km/h (2 Bft) W-SW 247 0 min -1,8 C 8,9 km/h (2 Bft)
22.02.2016 05:34 9,9 C 9,6 C 44 % 1013,8 hPa 0,0 mm 11,6 km/h (2 Bft) W-SW 247 0 min -1,8 C 8,9 km/h (2 Bft)
22.02.2016 05:35 10,0 C 9,7 C 44 % 1013,8 hPa 0,0 mm 11,3 km/h (2 Bft) NW 315 0 min -1,7 C 11,9 km/h (2 Bft)
22.02.2016 05:36 10,0 C 9,7 C 44 % 1013,8 hPa 0,0 mm 11,3 km/h (2 Bft) NW 315 0 min -1,7 C 11,9 km/h (2 Bft)
22.02.2016 05:38 10,3 C 9,9 C 44 % 1013,8 hPa 0,0 mm 12,2 km/h (2 Bft) W 270 0 min -1,4 C 17,6 km/h (3 Bft)
22.02.2016 05:39 10,3 C 9,9 C 44 % 1013,8 hPa 0,0 mm 12,8 km/h (3 Bft) NW 315 0 min -1,4 C 31,3 km/h (5 Bft)
22.02.2016 05:40 10,3 C 9,9 C 44 % 1013,8 hPa 0,0 mm 12,8 km/h (3 Bft) NW 315 0 min -1,4 C 31,3 km/h (5 Bft)
22.02.2016 05:41 10,7 C 10,3 C 44 % 1013,8 hPa 0,0 mm 13,7 km/h (3 Bft) W 270 0 min -1,0 C 11,9 km/h (2 Bft)
22.02.2016 05:42 10,7 C 10,3 C 44 % 1013,8 hPa 0,0 mm 13,7 km/h (3 Bft) W 270 0 min -1,0 C 11,9 km/h (2 Bft)
22.02.2016 05:43 10,8 C 10,3 C 43 % 1013,8 hPa 0,0 mm 15,5 km/h (3 Bft) W-NW 292 0 min -1,3 C 32,8 km/h (5 Bft)
22.02.2016 05:44 10,8 C 10,3 C 43 % 1013,8 hPa 0,0 mm 15,5 km/h (3 Bft) W-NW 292 0 min -1,3 C 32,8 km/h (5 Bft)
22.02.2016 05:45 10,7 C 10,4 C 43 % 1013,8 hPa 0,0 mm 16,4 km/h (3 Bft) W-SW 247 0 min -1,4 C 14,6 km/h (3 Bft)
22.02.2016 05:46 10,7 C 10,3 C 43 % 1013,8 hPa 0,0 mm 16,4 km/h (3 Bft) W-SW 247 0 min -1,4 C 14,6 km/h (3 Bft)
22.02.2016 05:47 10,6 C 10,3 C 43 % 1013,8 hPa 0,0 mm 15,8 km/h (3 Bft) NW 315 0 min -1,4 C 21,2 km/h (4 Bft)
22.02.2016 05:48 10,6 C 10,3 C 43 % 1013,8 hPa 0,0 mm 15,8 km/h (3 Bft) NW 315 0 min -1,4 C 21,2 km/h (4 Bft)
22.02.2016 05:49 10,5 C 10,2 C 43 % 1013,8 hPa 0,0 mm 16,1 km/h (3 Bft) NW 315 0 min -1,5 C 13,4 km/h (3 Bft)
22.02.2016 05:50 10,5 C 10,2 C 43 % 1013,8 hPa 0,0 mm 16,1 km/h (3 Bft) NW 315 0 min -1,5 C 13,4 km/h (3 Bft)
22.02.2016 05:51 10,5 C 10,3 C 43 % 1013,8 hPa 0,0 mm 15,2 km/h (3 Bft) W 270 0 min -1,5 C 11,3 km/h (2 Bft)
22.02.2016 05:52 10,5 C 10,2 C 43 % 1013,8 hPa 0,0 mm 15,2 km/h (3 Bft) W 270 0 min -1,5 C 11,3 km/h (2 Bft)
22.02.2016 05:53 10,6 C 10,3 C 43 % 1013,8 hPa 0,0 mm 14,6 km/h (3 Bft) W-SW 247 0 min -1,4 C 15,8 km/h (3 Bft)
22.02.2016 05:54 10,6 C 10,3 C 43 % 1013,8 hPa 0,0 mm 14,6 km/h (3 Bft) W-SW 247 0 min -1,4 C 37,0 km/h (5 Bft)
22.02.2016 05:55 10,8 C 10,4 C 43 % 1013,8 hPa 0,0 mm 14,6 km/h (3 Bft) W-NW 292 0 min -1,3 C 21,8 km/h (4 Bft)
22.02.2016 05:56 10,8 C 10,4 C 43 % 1013,8 hPa 0,0 mm 14,6 km/h (3 Bft) W-NW 292 0 min -1,3 C 21,8 km/h (4 Bft)
22.02.2016 05:57 10,7 C 10,5 C 43 % 1013,8 hPa 0,0 mm 14,9 km/h (3 Bft) W 270 0 min -1,4 C 17,9 km/h (3 Bft)
22.02.2016 05:58 10,7 C 10,4 C 43 % 1013,8 hPa 0,0 mm 14,9 km/h (3 Bft) W 270 0 min -1,4 C 17,9 km/h (3 Bft)
22.02.2016 05:59 10,7 C 10,5 C 43 % 1013,8 hPa 0,0 mm 14,3 km/h (3 Bft) O 90 0 min -1,4 C 14,9 km/h (3 Bft)
22.02.2016 06:00 10,7 C 10,4 C 43 % 1013,8 hPa 0,0 mm 14,3 km/h (3 Bft) O 90 0 min -1,4 C 14,9 km/h (3 Bft)
22.02.2016 06:01 10,6 C 10,4 C 43 % 1013,8 hPa 0,0 mm 13,7 km/h (3 Bft) W-SW 247 0 min -1,4 C 16,1 km/h (3 Bft)
22.02.2016 06:02 10,6 C 10,4 C 43 % 1013,8 hPa 0,0 mm 13,7 km/h (3 Bft) W-SW 247 0 min -1,4 C 16,1 km/h (3 Bft)
22.02.2016 06:03 10,6 C 10,4 C 43 % 1013,6 hPa 0,0 mm 13,7 km/h (3 Bft) W-SW 247 0 min -1,4 C 16,1 km/h (3 Bft)
22.02.2016 06:04 10,6 C 10,4 C 43 % 1013,6 hPa 0,0 mm 13,7 km/h (3 Bft) W-SW 247 0 min -1,4 C 16,1 km/h (3 Bft)
22.02.2016 06:05 10,4 C 10,3 C 43 % 1013,6 hPa 0,0 mm 11,0 km/h (2 Bft) NW 315 0 min -1,6 C 6,9 km/h (2 Bft)
22.02.2016 06:06 10,4 C 10,3 C 43 % 1013,6 hPa 0,0 mm 11,0 km/h (2 Bft) NW 315 0 min -1,6 C 6,9 km/h (2 Bft)
22.02.2016 06:07 10,4 C 10,4 C 43 % 1013,6 hPa 0,0 mm 10,4 km/h (2 Bft) W-SW 247 0 min -1,6 C 10,1 km/h (2 Bft)
22.02.2016 06:08 10,4 C 10,4 C 43 % 1013,6 hPa 0,0 mm 10,4 km/h (2 Bft) W-SW 247 0 min -1,6 C 10,1 km/h (2 Bft)
22.02.2016 06:09 10,4 C 10,3 C 43 % 1013,6 hPa 0,0 mm 9,8 km/h (2 Bft) W 270 0 min -1,6 C 13,1 km/h (3 Bft)
22.02.2016 06:10 10,4 C 10,3 C 43 % 1013,6 hPa 0,0 mm 9,8 km/h (2 Bft) W 270 0 min -1,6 C 13,1 km/h (3 Bft)
22.02.2016 06:11 10,4 C 10,3 C 43 % 1013,6 hPa 0,0 mm 9,2 km/h (2 Bft) W-SW 247 0 min -1,6 C 9,2 km/h (2 Bft)
22.02.2016 06:12 10,4 C 10,3 C 43 % 1013,6 hPa 0,0 mm 9,2 km/h (2 Bft) W-SW 247 0 min -1,6 C 9,2 km/h (2 Bft)
22.02.2016 06:13 10,3 C 10,3 C 43 % 1013,6 hPa 0,0 mm 9,2 km/h (2 Bft) W-SW 247 0 min -1,7 C 17,0 km/h (3 Bft)
22.02.2016 06:14 10,3 C 10,3 C 43 % 1013,6 hPa 0,0 mm 9,2 km/h (2 Bft) W-SW 247 0 min -1,7 C 17,0 km/h (3 Bft)
22.02.2016 06:15 10,4 C 10,3 C 43 % 1013,6 hPa 0,0 mm 9,5 km/h (2 Bft) W-SW 247 0 min -1,6 C 16,7 km/h (3 Bft)
22.02.2016 06:16 10,4 C 10,3 C 43 % 1013,6 hPa 0,0 mm 9,5 km/h (2 Bft) W-SW 247 0 min -1,6 C 16,7 km/h (3 Bft)
22.02.2016 06:17 10,4 C 10,3 C 43 % 1013,6 hPa 0,0 mm 9,5 km/h (2 Bft) W 270 0 min -1,6 C 11,9 km/h (2 Bft)
22.02.2016 06:18 10,4 C 10,3 C 43 % 1013,6 hPa 0,0 mm 9,5 km/h (2 Bft) W 270 0 min -1,6 C 11,9 km/h (2 Bft)
22.02.2016 06:19 10,4 C 10,3 C 43 % 1013,6 hPa 0,0 mm 9,5 km/h (2 Bft) W 270 0 min -1,6 C 15,5 km/h (3 Bft)
22.02.2016 06:20 10,4 C 10,3 C 43 % 1013,6 hPa 0,0 mm 9,5 km/h (2 Bft) W 270 0 min -1,6 C 15,5 km/h (3 Bft)
22.02.2016 06:21 10,4 C 10,3 C 43 % 1013,6 hPa 0,0 mm 9,5 km/h (2 Bft) W-SW 247 0 min -1,6 C 16,4 km/h (3 Bft)
22.02.2016 06:22 10,4 C 10,3 C 43 % 1013,6 hPa 0,0 mm 9,5 km/h (2 Bft) W-SW 247 0 min -1,6 C 16,4 km/h (3 Bft)
22.02.2016 06:23 10,4 C 10,3 C 43 % 1014,0 hPa 0,0 mm 10,1 km/h (2 Bft) W-SW 247 0 min -1,6 C 16,4 km/h (3 Bft)
22.02.2016 06:24 10,4 C 10,3 C 43 % 1014,0 hPa 0,0 mm 10,1 km/h (2 Bft) W-SW 247 0 min -1,6 C 16,4 km/h (3 Bft)
22.02.2016 06:25 10,5 C 10,4 C 43 % 1014,0 hPa 0,0 mm 10,1 km/h (2 Bft) NW 315 0 min -1,5 C 14,9 km/h (3 Bft)
22.02.2016 06:26 10,5 C 10,4 C 43 % 1014,0 hPa 0,0 mm 10,1 km/h (2 Bft) NW 315 0 min -1,5 C 14,9 km/h (3 Bft)
22.02.2016 06:27 10,4 C 10,3 C 43 % 1014,0 hPa 0,0 mm 9,8 km/h (2 Bft) W 270 0 min -1,6 C 13,1 km/h (3 Bft)
22.02.2016 06:28 10,4 C 10,3 C 43 % 1014,0 hPa 0,0 mm 9,8 km/h (2 Bft) W 270 0 min -1,6 C 13,1 km/h (3 Bft)
22.02.2016 06:29 10,6 C 10,4 C 43 % 1014,0 hPa 0,0 mm 10,7 km/h (2 Bft) W-SW 247 0 min -1,4 C 14,9 km/h (3 Bft)
22.02.2016 06:30 10,6 C 10,4 C 43 % 1014,0 hPa 0,0 mm 10,7 km/h (2 Bft) W-SW 247 0 min -1,4 C 14,9 km/h (3 Bft)
22.02.2016 06:31 10,5 C 10,3 C 43 % 1014,0 hPa 0,0 mm 11,0 km/h (2 Bft) W 270 0 min -1,5 C 20,3 km/h (4 Bft)
22.02.2016 06:32 10,5 C 10,3 C 43 % 1014,0 hPa 0,0 mm 11,0 km/h (2 Bft) W 270 0 min -1,5 C 20,3 km/h (4 Bft)
22.02.2016 06:33 10,7 C 10,4 C 43 % 1014,0 hPa 0,0 mm 11,9 km/h (2 Bft) W 270 0 min -1,4 C 28,3 km/h (4 Bft)
22.02.2016 06:34 10,7 C 10,4 C 43 % 1014,0 hPa 0,0 mm 11,9 km/h (2 Bft) W 270 0 min -1,4 C 28,3 km/h (4 Bft)
22.02.2016 06:35 11,0 C 10,6 C 43 % 1014,0 hPa 0,0 mm 12,8 km/h (3 Bft) SW 225 0 min -1,1 C 19,1 km/h (3 Bft)
22.02.2016 06:36 11,0 C 10,6 C 43 % 1014,0 hPa 0,0 mm 12,8 km/h (3 Bft) SW 225 0 min -1,1 C 19,1 km/h (3 Bft)
22.02.2016 06:37 10,9 C 10,6 C 43 % 1014,0 hPa 0,0 mm 13,4 km/h (3 Bft) W 270 0 min -1,2 C 14,6 km/h (3 Bft)
22.02.2016 06:38 10,9 C 10,6 C 43 % 1014,0 hPa 0,0 mm 13,4 km/h (3 Bft) W 270 0 min -1,2 C 14,6 km/h (3 Bft)
22.02.2016 06:39 10,9 C 10,6 C 43 % 1014,0 hPa 0,0 mm 13,7 km/h (3 Bft) W-NW 292 0 min -1,2 C 20,6 km/h (4 Bft)
22.02.2016 06:40 10,9 C 10,6 C 43 % 1014,0 hPa 0,0 mm 13,7 km/h (3 Bft) W-NW 292 0 min -1,2 C 20,6 km/h (4 Bft)
22.02.2016 06:41 11,0 C 10,7 C 44 % 1014,0 hPa 0,0 mm 14,0 km/h (3 Bft) W-NW 292 0 min -0,8 C 17,0 km/h (3 Bft)
22.02.2016 06:42 11,0 C 10,7 C 44 % 1014,0 hPa 0,0 mm 14,0 km/h (3 Bft) W-NW 292 0 min -0,8 C 17,0 km/h (3 Bft)
22.02.2016 06:43 11,0 C 10,7 C 44 % 1014,1 hPa 0,0 mm 14,0 km/h (3 Bft) W 270 0 min -0,8 C 15,2 km/h (3 Bft)
22.02.2016 06:44 11,0 C 10,7 C 44 % 1014,1 hPa 0,0 mm 14,0 km/h (3 Bft) W 270 0 min -0,8 C 15,2 km/h (3 Bft)
22.02.2016 06:45 11,1 C 10,8 C 44 % 1014,1 hPa 0,0 mm 12,8 km/h (3 Bft) W-NW 292 0 min -0,7 C 20,6 km/h (4 Bft)
22.02.2016 06:46 11,1 C 10,8 C 44 % 1014,1 hPa 0,0 mm 12,8 km/h (3 Bft) W-NW 292 0 min -0,7 C 20,6 km/h (4 Bft)
22.02.2016 06:47 11,1 C 10,8 C 44 % 1014,1 hPa 0,0 mm 13,1 km/h (3 Bft) W-NW 292 0 min -0,7 C 17,0 km/h (3 Bft)
22.02.2016 06:48 11,1 C 10,8 C 44 % 1014,1 hPa 0,0 mm 13,1 km/h (3 Bft) W-NW 292 0 min -0,7 C 17,0 km/h (3 Bft)
22.02.2016 06:49 11,1 C 10,9 C 44 % 1014,1 hPa 0,0 mm 13,1 km/h (3 Bft) S 180 0 min -0,7 C 17,9 km/h (3 Bft)
22.02.2016 06:50 11,1 C 10,9 C 44 % 1014,1 hPa 0,0 mm 13,1 km/h (3 Bft) S 180 0 min -0,7 C 17,9 km/h (3 Bft)
22.02.2016 06:51 11,2 C 10,9 C 44 % 1014,1 hPa 0,0 mm 14,0 km/h (3 Bft) W-SW 247 0 min -0,6 C 19,1 km/h (3 Bft)
22.02.2016 06:52 11,2 C 10,9 C 44 % 1014,1 hPa 0,0 mm 14,0 km/h (3 Bft) W-SW 247 0 min -0,6 C 19,1 km/h (3 Bft)
22.02.2016 06:53 11,3 C 11,1 C 44 % 1014,1 hPa 0,0 mm 15,2 km/h (3 Bft) W-SW 247 0 min -0,5 C 20,6 km/h (4 Bft)
22.02.2016 06:54 11,3 C 11,0 C 44 % 1014,1 hPa 0,0 mm 15,2 km/h (3 Bft) W-SW 247 0 min -0,5 C 20,6 km/h (4 Bft)
22.02.2016 06:55 11,5 C 11,1 C 43 % 1014,1 hPa 0,0 mm 16,1 km/h (3 Bft) W 270 0 min -0,6 C 22,4 km/h (4 Bft)
22.02.2016 06:56 11,5 C 11,1 C 43 % 1014,1 hPa 0,0 mm 16,1 km/h (3 Bft) W 270 0 min -0,6 C 22,4 km/h (4 Bft)
22.02.2016 06:57 11,3 C 11,1 C 43 % 1014,1 hPa 0,0 mm 15,2 km/h (3 Bft) W-SW 247 0 min -0,8 C 11,9 km/h (2 Bft)
22.02.2016 06:58 11,3 C 11,0 C 43 % 1014,1 hPa 0,0 mm 15,2 km/h (3 Bft) W-SW 247 0 min -0,8 C 11,9 km/h (2 Bft)
22.02.2016 06:59 11,2 C 10,9 C 43 % 1014,1 hPa 0,0 mm 15,2 km/h (3 Bft) NW 315 0 min -0,9 C 20,3 km/h (4 Bft)
22.02.2016 07:00 11,2 C 10,9 C 43 % 1014,1 hPa 0,0 mm 15,2 km/h (3 Bft) NW 315 0 min -0,9 C 20,3 km/h (4 Bft)
22.02.2016 07:01 11,3 C 11,0 C 43 % 1014,1 hPa 0,0 mm 15,2 km/h (3 Bft) W-SW 247 0 min -0,8 C 13,4 km/h (3 Bft)
22.02.2016 07:02 11,3 C 11,0 C 43 % 1014,1 hPa 0,0 mm 15,2 km/h (3 Bft) W-SW 247 0 min -0,8 C 13,4 km/h (3 Bft)
22.02.2016 07:03 11,3 C 11,0 C 43 % 1014,1 hPa 0,0 mm 14,9 km/h (3 Bft) W-NW 292 0 min -0,8 C 25,6 km/h (4 Bft)
22.02.2016 07:04 11,3 C 11,0 C 43 % 1014,1 hPa 0,0 mm 14,9 km/h (3 Bft) W-NW 292 0 min -0,8 C 25,6 km/h (4 Bft)
22.02.2016 07:05 11,2 C 11,0 C 44 % 1014,1 hPa 0,0 mm 13,7 km/h (3 Bft) O 90 0 min -0,6 C 22,7 km/h (4 Bft)
22.02.2016 07:06 11,2 C 11,0 C 44 % 1014,1 hPa 0,0 mm 13,7 km/h (3 Bft) O 90 0 min -0,6 C 22,7 km/h (4 Bft)
22.02.2016 07:07 11,3 C 11,1 C 44 % 1014,1 hPa 0,0 mm 13,7 km/h (3 Bft) W 270 0 min -0,5 C 17,0 km/h (3 Bft)
22.02.2016 07:08 11,3 C 11,1 C 44 % 1014,1 hPa 0,0 mm 13,7 km/h (3 Bft) W 270 0 min -0,5 C 17,0 km/h (3 Bft)
22.02.2016 07:09 11,3 C 11,1 C 44 % 1014,1 hPa 0,0 mm 14,9 km/h (3 Bft) W-NW 292 0 min -0,5 C 18,5 km/h (3 Bft)
22.02.2016 07:10 11,3 C 11,0 C 44 % 1014,1 hPa 0,0 mm 14,9 km/h (3 Bft) W-NW 292 0 min -0,5 C 18,5 km/h (3 Bft)
22.02.2016 07:11 11,4 C 11,1 C 44 % 1014,1 hPa 0,0 mm 15,5 km/h (3 Bft) W-SW 247 0 min -0,4 C 19,1 km/h (3 Bft)
22.02.2016 07:12 11,4 C 11,1 C 44 % 1014,1 hPa 0,0 mm 15,5 km/h (3 Bft) W-SW 247 0 min -0,4 C 19,1 km/h (3 Bft)
22.02.2016 07:13 11,2 C 10,9 C 44 % 1014,1 hPa 0,0 mm 14,6 km/h (3 Bft) W-NW 292 0 min -0,6 C 11,9 km/h (2 Bft)
22.02.2016 07:14 11,2 C 10,9 C 44 % 1014,1 hPa 0,0 mm 14,6 km/h (3 Bft) W-NW 292 0 min -0,6 C 11,9 km/h (2 Bft)
22.02.2016 07:15 11,2 C 11,0 C 44 % 1014,1 hPa 0,0 mm 14,6 km/h (3 Bft) W-SW 247 0 min -0,6 C 10,4 km/h (2 Bft)
22.02.2016 07:16 11,2 C 10,9 C 44 % 1014,1 hPa 0,0 mm 14,6 km/h (3 Bft) W-SW 247 0 min -0,6 C 10,4 km/h (2 Bft)
22.02.2016 07:17 11,2 C 10,9 C 44 % 1014,1 hPa 0,0 mm 14,3 km/h (3 Bft) SW 225 0 min -0,6 C 11,0 km/h (2 Bft)
22.02.2016 07:18 11,2 C 10,9 C 44 % 1014,1 hPa 0,0 mm 14,3 km/h (3 Bft) SW 225 0 min -0,6 C 11,0 km/h (2 Bft)
22.02.2016 07:19 11,2 C 10,9 C 44 % 1014,1 hPa 0,0 mm 13,7 km/h (3 Bft) W 270 0 min -0,6 C 18,8 km/h (3 Bft)
22.02.2016 07:20 11,2 C 10,9 C 44 % 1014,1 hPa 0,0 mm 13,7 km/h (3 Bft) W 270 0 min -0,6 C 18,8 km/h (3 Bft)
22.02.2016 07:21 11,1 C 10,9 C 44 % 1014,1 hPa 0,0 mm 12,5 km/h (3 Bft) SW 225 0 min -0,7 C 12,2 km/h (2 Bft)
22.02.2016 07:22 11,1 C 10,9 C 44 % 1014,1 hPa 0,0 mm 12,5 km/h (3 Bft) SW 225 0 min -0,7 C 12,2 km/h (2 Bft)
22.02.2016 07:23 11,1 C 11,0 C 44 % 1014,2 hPa 0,0 mm 11,6 km/h (2 Bft) W 270 0 min -0,7 C 7,5 km/h (2 Bft)
22.02.2016 07:24 11,1 C 11,0 C 44 % 1014,2 hPa 0,0 mm 11,6 km/h (2 Bft) W 270 0 min -0,7 C 7,5 km/h (2 Bft)
22.02.2016 07:25 11,2 C 10,9 C 44 % 1014,2 hPa 0,0 mm 12,5 km/h (3 Bft) W 270 0 min -0,6 C 17,0 km/h (3 Bft)
22.02.2016 07:26 11,2 C 10,9 C 44 % 1014,2 hPa 0,0 mm 12,5 km/h (3 Bft) W 270 0 min -0,6 C 17,0 km/h (3 Bft)
22.02.2016 07:27 11,3 C 11,1 C 45 % 1014,2 hPa 0,0 mm 12,5 km/h (3 Bft) W 270 0 min -0,2 C 33,7 km/h (5 Bft)
22.02.2016 07:28 11,3 C 11,1 C 45 % 1014,2 hPa 0,0 mm 12,5 km/h (3 Bft) W 270 0 min -0,2 C 33,7 km/h (5 Bft)
22.02.2016 07:29 11,4 C 11,1 C 45 % 1014,2 hPa 0,0 mm 12,8 km/h (3 Bft) W-SW 247 0 min -0,1 C 15,2 km/h (3 Bft)
22.02.2016 07:30 11,4 C 11,1 C 45 % 1014,2 hPa 0,0 mm 12,8 km/h (3 Bft) W-SW 247 0 min -0,1 C 15,2 km/h (3 Bft)
22.02.2016 07:31 11,4 C 11,1 C 45 % 1014,2 hPa 0,0 mm 13,4 km/h (3 Bft) NW 315 0 min -0,1 C 26,2 km/h (4 Bft)
22.02.2016 07:32 11,4 C 11,1 C 45 % 1014,2 hPa 0,0 mm 13,4 km/h (3 Bft) NW 315 0 min -0,1 C 26,2 km/h (4 Bft)
22.02.2016 07:33 11,4 C 11,1 C 45 % 1014,2 hPa 0,0 mm 14,0 km/h (3 Bft) SW 225 0 min -0,1 C 18,2 km/h (3 Bft)
22.02.2016 07:34 11,4 C 11,1 C 45 % 1014,2 hPa 0,0 mm 14,0 km/h (3 Bft) SW 225 0 min -0,1 C 18,2 km/h (3 Bft)
22.02.2016 07:35 11,4 C 11,1 C 45 % 1014,2 hPa 0,0 mm 14,6 km/h (3 Bft) SW 225 0 min -0,1 C 14,9 km/h (3 Bft)
22.02.2016 07:36 11,4 C 11,1 C 45 % 1014,2 hPa 0,0 mm 14,6 km/h (3 Bft) SW 225 0 min -0,1 C 14,9 km/h (3 Bft)
22.02.2016 07:37 11,5 C 11,2 C 45 % 1014,2 hPa 0,0 mm 14,0 km/h (3 Bft) W 270 0 min -0,0 C 11,9 km/h (2 Bft)
22.02.2016 07:38 11,5 C 11,2 C 45 % 1014,2 hPa 0,0 mm 14,0 km/h (3 Bft) W 270 0 min -0,0 C 11,9 km/h (2 Bft)
22.02.2016 07:39 11,3 C 11,1 C 45 % 1014,2 hPa 0,0 mm 13,1 km/h (3 Bft) NW 315 0 min -0,2 C 15,5 km/h (3 Bft)
22.02.2016 07:40 11,3 C 11,1 C 45 % 1014,2 hPa 0,0 mm 13,1 km/h (3 Bft) NW 315 0 min -0,2 C 15,5 km/h (3 Bft)
22.02.2016 07:41 11,3 C 11,1 C 45 % 1014,2 hPa 0,0 mm 13,1 km/h (3 Bft) W-NW 292 0 min -0,2 C 17,3 km/h (3 Bft)
22.02.2016 07:42 11,3 C 11,1 C 45 % 1014,2 hPa 0,0 mm 13,1 km/h (3 Bft) W-NW 292 0 min -0,2 C 17,3 km/h (3 Bft)
22.02.2016 07:43 11,4 C 11,2 C 46 % 1014,1 hPa 0,0 mm 12,5 km/h (3 Bft) W-NW 292 0 min 0,2 C 17,6 km/h (3 Bft)
22.02.2016 07:44 11,4 C 11,2 C 46 % 1014,1 hPa 0,0 mm 12,5 km/h (3 Bft) W-NW 292 0 min 0,2 C 17,6 km/h (3 Bft)
22.02.2016 07:45 11,5 C 11,2 C 46 % 1014,1 hPa 0,0 mm 12,8 km/h (3 Bft) W-SW 247 0 min 0,3 C 22,4 km/h (4 Bft)
22.02.2016 07:46 11,5 C 11,2 C 46 % 1014,1 hPa 0,0 mm 12,8 km/h (3 Bft) W-SW 247 0 min 0,3 C 22,4 km/h (4 Bft)
22.02.2016 07:47 11,6 C 11,3 C 46 % 1014,1 hPa 0,0 mm 13,1 km/h (3 Bft) W 270 0 min 0,4 C 15,8 km/h (3 Bft)
22.02.2016 07:48 11,6 C 11,3 C 46 % 1014,1 hPa 0,0 mm 13,1 km/h (3 Bft) W 270 0 min 0,4 C 15,8 km/h (3 Bft)
22.02.2016 07:49 11,5 C 11,3 C 46 % 1014,1 hPa 0,0 mm 14,6 km/h (3 Bft) O-SO 112 0 min 0,3 C 16,7 km/h (3 Bft)
22.02.2016 07:50 11,5 C 11,2 C 46 % 1014,1 hPa 0,0 mm 14,6 km/h (3 Bft) O-SO 112 0 min 0,3 C 16,7 km/h (3 Bft)
22.02.2016 07:51 11,6 C 11,3 C 46 % 1014,1 hPa 0,0 mm 15,2 km/h (3 Bft) W 270 0 min 0,4 C 19,7 km/h (3 Bft)
22.02.2016 07:52 11,6 C 11,3 C 46 % 1014,1 hPa 0,0 mm 15,2 km/h (3 Bft) W 270 0 min 0,4 C 19,7 km/h (3 Bft)
22.02.2016 07:53 11,5 C 11,3 C 46 % 1014,1 hPa 0,0 mm 14,3 km/h (3 Bft) W 270 0 min 0,3 C 9,8 km/h (2 Bft)
22.02.2016 07:54 11,5 C 11,3 C 46 % 1014,1 hPa 0,0 mm 14,3 km/h (3 Bft) W 270 0 min 0,3 C 9,8 km/h (2 Bft)
22.02.2016 07:55 11,5 C 11,3 C 46 % 1014,1 hPa 0,0 mm 14,6 km/h (3 Bft) W-SW 247 0 min 0,3 C 15,2 km/h (3 Bft)
22.02.2016 07:56 11,5 C 11,3 C 46 % 1014,1 hPa 0,0 mm 14,6 km/h (3 Bft) W-SW 247 0 min 0,3 C 15,2 km/h (3 Bft)
22.02.2016 07:57 11,6 C 11,3 C 46 % 1014,1 hPa 0,0 mm 14,6 km/h (3 Bft) N-NW 337 0 min 0,4 C 9,2 km/h (2 Bft)
22.02.2016 07:58 11,6 C 11,3 C 46 % 1014,1 hPa 0,0 mm 14,6 km/h (3 Bft) N-NW 337 0 min 0,4 C 9,2 km/h (2 Bft)
22.02.2016 07:59 11,5 C 11,3 C 47 % 1014,1 hPa 0,0 mm 14,3 km/h (3 Bft) W-SW 247 0 min 0,6 C 12,5 km/h (3 Bft)
22.02.2016 08:00 11,5 C 11,3 C 47 % 1014,1 hPa 0,0 mm 14,3 km/h (3 Bft) W-SW 247 0 min 0,6 C 12,5 km/h (3 Bft)
22.02.2016 08:01 11,5 C 11,2 C 47 % 1014,1 hPa 0,0 mm 14,0 km/h (3 Bft) W 270 0 min 0,6 C 23,2 km/h (4 Bft)
22.02.2016 08:02 11,5 C 11,2 C 47 % 1014,1 hPa 0,0 mm 14,0 km/h (3 Bft) W 270 0 min 0,6 C 23,2 km/h (4 Bft)
22.02.2016 08:03 11,6 C 11,3 C 47 % 1013,9 hPa 0,0 mm 14,0 km/h (3 Bft) W-SW 247 0 min 0,7 C 14,3 km/h (3 Bft)
22.02.2016 08:04 11,6 C 11,3 C 47 % 1013,9 hPa 0,0 mm 14,0 km/h (3 Bft) W-SW 247 0 min 0,7 C 14,3 km/h (3 Bft)
22.02.2016 08:05 11,6 C 11,3 C 47 % 1013,9 hPa 0,0 mm 14,0 km/h (3 Bft) W-NW 292 0 min 0,7 C 29,2 km/h (5 Bft)
22.02.2016 08:06 11,6 C 11,3 C 47 % 1013,9 hPa 0,0 mm 14,0 km/h (3 Bft) W-NW 292 0 min 0,7 C 29,2 km/h (5 Bft)
22.02.2016 08:07 11,6 C 11,3 C 47 % 1013,9 hPa 0,0 mm 14,0 km/h (3 Bft) S-SW 202 0 min 0,7 C 23,2 km/h (4 Bft)
22.02.2016 08:08 11,6 C 11,3 C 47 % 1013,9 hPa 0,0 mm 14,0 km/h (3 Bft) S-SW 202 0 min 0,7 C 23,2 km/h (4 Bft)
22.02.2016 08:09 11,7 C 11,4 C 47 % 1013,9 hPa 0,0 mm 14,6 km/h (3 Bft) W 270 0 min 0,8 C 20,3 km/h (4 Bft)
22.02.2016 08:11 11,5 C 11,3 C 48 % 1013,9 hPa 0,0 mm 14,0 km/h (3 Bft) W 270 0 min 0,9 C 4,8 km/h (1 Bft)
22.02.2016 08:14 11,4 C 11,2 C 48 % 1013,9 hPa 0,0 mm 12,8 km/h (3 Bft) W 270 0 min 0,8 C 21,5 km/h (4 Bft)
22.02.2016 08:15 11,4 C 11,1 C 48 % 1013,9 hPa 0,0 mm 13,4 km/h (3 Bft) W-NW 292 0 min 0,8 C 20,6 km/h (4 Bft)
22.02.2016 08:16 11,4 C 11,1 C 48 % 1013,9 hPa 0,0 mm 13,4 km/h (3 Bft) W-NW 292 0 min 0,8 C 20,6 km/h (4 Bft)
22.02.2016 08:18 11,4 C 11,3 C 48 % 1013,9 hPa 0,0 mm 11,6 km/h (2 Bft) W-SW 247 0 min 0,8 C 4,5 km/h (1 Bft)
22.02.2016 08:21 11,6 C 11,4 C 48 % 1013,9 hPa 0,0 mm 11,9 km/h (2 Bft) NW 315 0 min 1,0 C 14,9 km/h (3 Bft)
22.02.2016 08:22 11,6 C 11,4 C 48 % 1013,9 hPa 0,0 mm 11,9 km/h (2 Bft) NW 315 0 min 1,0 C 14,9 km/h (3 Bft)
22.02.2016 08:23 11,6 C 11,4 C 48 % 1014,1 hPa 0,0 mm 12,8 km/h (3 Bft) W-NW 292 0 min 1,0 C 11,6 km/h (2 Bft)
22.02.2016 08:24 11,6 C 11,4 C 48 % 1014,1 hPa 0,0 mm 13,1 km/h (3 Bft) NW 315 0 min 1,0 C 20,9 km/h (4 Bft)
22.02.2016 08:29 11,7 C 10,3 C 48 % 1014,1 hPa 0,0 mm 14,3 km/h (3 Bft) W-NW 292 0 min 1,1 C 18,5 km/h (3 Bft)
22.02.2016 08:34 12,1 C 11,9 C 47 % 1014,1 hPa 0,0 mm 15,8 km/h (3 Bft) W-SW 247 0 min 1,1 C 11,9 km/h (2 Bft)
22.02.2016 08:39 12,3 C 12,0 C 47 % 1014,1 hPa 0,0 mm 16,7 km/h (3 Bft) W-SW 247 0 min 1,3 C 7,7 km/h (2 Bft)
22.02.2016 08:40 12,3 C 12,0 C 47 % 1014,1 hPa 0,0 mm 16,7 km/h (3 Bft) W-SW 247 0 min 1,3 C 7,7 km/h (2 Bft)
22.02.2016 08:41 12,2 C 12,0 C 47 % 1014,1 hPa 0,0 mm 15,2 km/h (3 Bft) W-NW 292 0 min 1,2 C 15,8 km/h (3 Bft)
22.02.2016 08:42 12,2 C 12,0 C 47 % 1014,1 hPa 0,0 mm 15,2 km/h (3 Bft) W-NW 292 0 min 1,2 C 15,8 km/h (3 Bft)
22.02.2016 08:43 12,2 C 12,1 C 47 % 1013,9 hPa 0,0 mm 14,9 km/h (3 Bft) W-SW 247 0 min 1,2 C 20,6 km/h (4 Bft)
22.02.2016 08:44 12,2 C 12,0 C 47 % 1013,9 hPa 0,0 mm 14,9 km/h (3 Bft) W-SW 247 0 min 1,2 C 20,6 km/h (4 Bft)
22.02.2016 08:45 12,2 C 12,0 C 47 % 1013,9 hPa 0,0 mm 14,6 km/h (3 Bft) W-NW 292 0 min 1,2 C 14,6 km/h (3 Bft)
22.02.2016 08:46 12,2 C 12,0 C 47 % 1013,9 hPa 0,0 mm 14,6 km/h (3 Bft) W-NW 292 0 min 1,2 C 14,6 km/h (3 Bft)
22.02.2016 08:47 12,3 C 12,1 C 47 % 1013,9 hPa 0,0 mm 15,8 km/h (3 Bft) W 270 0 min 1,3 C 20,9 km/h (4 Bft)
22.02.2016 08:48 12,3 C 12,1 C 47 % 1013,9 hPa 0,0 mm 15,8 km/h (3 Bft) W 270 0 min 1,3 C 20,9 km/h (4 Bft)
22.02.2016 08:49 12,5 C 12,3 C 46 % 1013,9 hPa 0,0 mm 15,2 km/h (3 Bft) SW 225 0 min 1,2 C 13,7 km/h (3 Bft)
22.02.2016 08:50 12,5 C 12,3 C 46 % 1013,9 hPa 0,0 mm 15,2 km/h (3 Bft) SW 225 0 min 1,2 C 13,7 km/h (3 Bft)
22.02.2016 08:51 12,5 C 12,4 C 46 % 1013,9 hPa 0,0 mm 16,4 km/h (3 Bft) SW 225 0 min 1,2 C 24,1 km/h (4 Bft)
22.02.2016 08:52 12,5 C 12,3 C 46 % 1013,9 hPa 0,0 mm 16,4 km/h (3 Bft) SW 225 0 min 1,2 C 24,1 km/h (4 Bft)
22.02.2016 08:53 12,5 C 12,4 C 46 % 1013,9 hPa 0,0 mm 17,0 km/h (3 Bft) NW 315 0 min 1,2 C 11,6 km/h (2 Bft)
22.02.2016 08:54 12,5 C 12,3 C 46 % 1013,9 hPa 0,0 mm 17,0 km/h (3 Bft) NW 315 0 min 1,2 C 11,6 km/h (2 Bft)
22.02.2016 08:55 12,4 C 12,3 C 46 % 1013,9 hPa 0,0 mm 17,0 km/h (3 Bft) W-SW 247 0 min 1,1 C 21,2 km/h (4 Bft)
22.02.2016 08:56 12,4 C 12,3 C 46 % 1013,9 hPa 0,0 mm 17,0 km/h (3 Bft) W-SW 247 0 min 1,1 C 21,2 km/h (4 Bft)
22.02.2016 08:57 12,3 C 12,3 C 46 % 1013,9 hPa 0,0 mm 16,1 km/h (3 Bft) W-SW 247 0 min 1,0 C 17,9 km/h (3 Bft)
22.02.2016 08:58 12,3 C 12,2 C 46 % 1013,9 hPa 0,0 mm 16,1 km/h (3 Bft) W-SW 247 0 min 1,0 C 17,9 km/h (3 Bft)
22.02.2016 08:59 12,4 C 12,3 C 45 % 1013,9 hPa 0,0 mm 15,8 km/h (3 Bft) W 270 0 min 0,8 C 18,8 km/h (3 Bft)
22.02.2016 09:00 12,4 C 12,3 C 45 % 1013,9 hPa 0,0 mm 15,8 km/h (3 Bft) W 270 0 min 0,8 C 18,8 km/h (3 Bft)
22.02.2016 09:01 12,6 C 12,5 C 45 % 1013,9 hPa 0,0 mm 15,8 km/h (3 Bft) W 270 0 min 1,0 C 28,9 km/h (5 Bft)
22.02.2016 09:02 12,6 C 12,4 C 45 % 1013,9 hPa 0,0 mm 15,8 km/h (3 Bft) W 270 0 min 1,0 C 28,9 km/h (5 Bft)
22.02.2016 09:03 12,8 C 12,6 C 43 % 1014,1 hPa 0,0 mm 16,7 km/h (3 Bft) W-SW 247 0 min 0,5 C 23,5 km/h (4 Bft)
22.02.2016 09:04 12,8 C 12,6 C 43 % 1014,1 hPa 0,0 mm 16,7 km/h (3 Bft) W-SW 247 0 min 0,5 C 23,5 km/h (4 Bft)
22.02.2016 09:05 12,8 C 12,7 C 43 % 1014,1 hPa 0,0 mm 16,7 km/h (3 Bft) W-SW 247 0 min 0,5 C 18,5 km/h (3 Bft)
22.02.2016 09:06 12,8 C 12,7 C 43 % 1014,1 hPa 0,0 mm 16,7 km/h (3 Bft) W-SW 247 0 min 0,5 C 18,5 km/h (3 Bft)
22.02.2016 09:07 12,7 C 12,6 C 43 % 1014,1 hPa 0,0 mm 16,1 km/h (3 Bft) W 270 0 min 0,5 C 7,7 km/h (2 Bft)
22.02.2016 09:08 12,7 C 12,6 C 43 % 1014,1 hPa 0,0 mm 16,1 km/h (3 Bft) W 270 0 min 0,5 C 7,7 km/h (2 Bft)
22.02.2016 09:09 12,7 C 12,6 C 43 % 1014,1 hPa 0,0 mm 16,1 km/h (3 Bft) W-SW 247 0 min 0,5 C 25,6 km/h (4 Bft)
22.02.2016 09:10 12,7 C 12,6 C 43 % 1014,1 hPa 0,0 mm 16,1 km/h (3 Bft) W-SW 247 0 min 0,5 C 25,6 km/h (4 Bft)
22.02.2016 09:11 12,9 C 12,7 C 42 % 1014,1 hPa 0,0 mm 17,6 km/h (3 Bft) NW 315 0 min 0,3 C 22,4 km/h (4 Bft)
22.02.2016 09:12 12,9 C 12,7 C 42 % 1014,1 hPa 0,0 mm 17,6 km/h (3 Bft) NW 315 0 min 0,3 C 22,4 km/h (4 Bft)
22.02.2016 09:13 12,8 C 12,8 C 42 % 1014,1 hPa 0,0 mm 16,4 km/h (3 Bft) NW 315 0 min 0,2 C 16,1 km/h (3 Bft)
22.02.2016 09:14 12,8 C 12,8 C 42 % 1014,1 hPa 0,0 mm 16,4 km/h (3 Bft) NW 315 0 min 0,2 C 48,9 km/h (6 Bft)
22.02.2016 09:15 13,0 C 12,9 C 41 % 1014,1 hPa 0,0 mm 17,0 km/h (3 Bft) W-NW 292 0 min 0,1 C 22,9 km/h (4 Bft)
22.02.2016 09:16 13,0 C 12,9 C 41 % 1014,1 hPa 0,0 mm 17,0 km/h (3 Bft) W-NW 292 0 min 0,1 C 22,9 km/h (4 Bft)
22.02.2016 09:17 13,1 C 13,0 C 41 % 1014,1 hPa 0,0 mm 18,2 km/h (3 Bft) W 270 0 min 0,2 C 22,4 km/h (4 Bft)
22.02.2016 09:18 13,1 C 13,0 C 41 % 1014,1 hPa 0,0 mm 18,2 km/h (3 Bft) W 270 0 min 0,2 C 22,4 km/h (4 Bft)
22.02.2016 09:19 13,1 C 13,0 C 40 % 1014,1 hPa 0,0 mm 19,4 km/h (3 Bft) W-SW 247 0 min -0,2 C 30,1 km/h (5 Bft)
22.02.2016 09:20 13,1 C 13,0 C 40 % 1014,1 hPa 0,0 mm 19,4 km/h (3 Bft) W-SW 247 0 min -0,2 C 30,1 km/h (5 Bft)
22.02.2016 09:21 13,0 C 13,2 C 40 % 1014,1 hPa 0,0 mm 17,9 km/h (3 Bft) W 270 0 min -0,3 C 20,6 km/h (4 Bft)
22.02.2016 09:22 13,0 C 13,1 C 40 % 1014,1 hPa 0,0 mm 17,9 km/h (3 Bft) W 270 0 min -0,3 C 20,6 km/h (4 Bft)
22.02.2016 09:23 12,9 C 13,3 C 40 % 1014,2 hPa 0,0 mm 17,3 km/h (3 Bft) W 270 0 min -0,4 C 20,3 km/h (4 Bft)
22.02.2016 09:24 12,9 C 13,2 C 40 % 1014,2 hPa 0,0 mm 17,3 km/h (3 Bft) W 270 0 min -0,4 C 20,3 km/h (4 Bft)
22.02.2016 09:25 12,9 C 13,6 C 40 % 1014,2 hPa 0,0 mm 15,5 km/h (3 Bft) W-SW 247 0 min -0,4 C 15,8 km/h (3 Bft)
22.02.2016 09:26 12,9 C 13,6 C 40 % 1014,2 hPa 0,0 mm 15,5 km/h (3 Bft) W-SW 247 0 min -0,4 C 15,8 km/h (3 Bft)
22.02.2016 09:27 13,1 C 13,8 C 40 % 1014,2 hPa 0,0 mm 15,2 km/h (3 Bft) W-SW 247 0 min -0,2 C 17,3 km/h (3 Bft)
22.02.2016 09:28 13,1 C 13,8 C 40 % 1014,2 hPa 0,0 mm 15,2 km/h (3 Bft) W-SW 247 0 min -0,2 C 17,3 km/h (3 Bft)
22.02.2016 09:29 13,1 C 14,0 C 40 % 1014,2 hPa 0,0 mm 14,9 km/h (3 Bft) SW 225 0 min -0,2 C 19,4 km/h (3 Bft)
22.02.2016 09:30 13,1 C 14,0 C 40 % 1014,2 hPa 0,0 mm 14,9 km/h (3 Bft) SW 225 0 min -0,2 C 19,4 km/h (3 Bft)
22.02.2016 09:31 13,2 C 14,4 C 40 % 1014,2 hPa 0,0 mm 13,7 km/h (3 Bft) W-SW 247 0 min -0,1 C 15,2 km/h (3 Bft)
22.02.2016 09:32 13,2 C 14,4 C 40 % 1014,2 hPa 0,0 mm 13,7 km/h (3 Bft) W-SW 247 0 min -0,1 C 15,2 km/h (3 Bft)
22.02.2016 09:33 13,3 C 14,4 C 40 % 1014,2 hPa 0,0 mm 14,9 km/h (3 Bft) W 270 0 min -0,0 C 16,4 km/h (3 Bft)
22.02.2016 09:34 13,3 C 14,4 C 40 % 1014,2 hPa 0,0 mm 14,9 km/h (3 Bft) W 270 0 min -0,0 C 16,4 km/h (3 Bft)
22.02.2016 09:35 13,3 C 14,6 C 40 % 1014,2 hPa 0,0 mm 14,6 km/h (3 Bft) W-NW 292 0 min -0,0 C 20,0 km/h (4 Bft)
22.02.2016 09:36 13,3 C 14,6 C 40 % 1014,2 hPa 0,0 mm 14,6 km/h (3 Bft) W-NW 292 0 min -0,0 C 20,0 km/h (4 Bft)
22.02.2016 09:37 13,3 C 14,6 C 40 % 1014,2 hPa 0,0 mm 14,9 km/h (3 Bft) W-SW 247 0 min -0,0 C 16,4 km/h (3 Bft)
22.02.2016 09:38 13,3 C 14,6 C 40 % 1014,2 hPa 0,0 mm 14,9 km/h (3 Bft) W-SW 247 0 min -0,0 C 16,4 km/h (3 Bft)
22.02.2016 09:39 13,2 C 14,6 C 40 % 1014,2 hPa 0,0 mm 14,3 km/h (3 Bft) W-SW 247 0 min -0,1 C 14,9 km/h (3 Bft)
22.02.2016 09:40 13,2 C 14,6 C 40 % 1014,2 hPa 0,0 mm 14,3 km/h (3 Bft) W-SW 247 0 min -0,1 C 14,9 km/h (3 Bft)
22.02.2016 09:41 13,2 C 14,9 C 40 % 1014,2 hPa 0,0 mm 13,7 km/h (3 Bft) W-NW 292 1 min -0,1 C 22,9 km/h (4 Bft)
22.02.2016 09:42 13,2 C 14,9 C 40 % 1014,2 hPa 0,0 mm 13,7 km/h (3 Bft) W-NW 292 1 min -0,1 C 22,9 km/h (4 Bft)
22.02.2016 09:43 13,4 C 15,2 C 40 % 1014,4 hPa 0,0 mm 14,0 km/h (3 Bft) SW 225 1 min 0,1 C 12,5 km/h (3 Bft)
22.02.2016 09:44 13,4 C 15,2 C 40 % 1014,4 hPa 0,0 mm 14,0 km/h (3 Bft) SW 225 1 min 0,1 C 12,5 km/h (3 Bft)
22.02.2016 09:45 13,4 C 15,6 C 40 % 1014,4 hPa 0,0 mm 13,7 km/h (3 Bft) W 270 1 min 0,1 C 8,6 km/h (2 Bft)
22.02.2016 09:46 13,4 C 15,6 C 40 % 1014,4 hPa 0,0 mm 13,7 km/h (3 Bft) W 270 1 min 0,1 C 8,6 km/h (2 Bft)
22.02.2016 09:47 13,3 C 15,9 C 40 % 1014,4 hPa 0,0 mm 12,2 km/h (2 Bft) W-NW 292 1 min -0,0 C 12,2 km/h (2 Bft)
22.02.2016 09:48 13,3 C 15,9 C 40 % 1014,4 hPa 0,0 mm 12,2 km/h (2 Bft) W-NW 292 1 min -0,0 C 12,2 km/h (2 Bft)
22.02.2016 09:49 13,3 C 16,1 C 40 % 1014,4 hPa 0,0 mm 11,6 km/h (2 Bft) W-NW 292 1 min -0,0 C 11,6 km/h (2 Bft)
22.02.2016 09:50 13,3 C 16,1 C 40 % 1014,4 hPa 0,0 mm 11,6 km/h (2 Bft) W-NW 292 1 min -0,0 C 11,6 km/h (2 Bft)
22.02.2016 09:51 13,4 C 16,2 C 40 % 1014,4 hPa 0,0 mm 12,8 km/h (3 Bft) W-SW 247 1 min 0,1 C 10,7 km/h (2 Bft)
22.02.2016 09:52 13,4 C 16,2 C 40 % 1014,4 hPa 0,0 mm 12,8 km/h (3 Bft) W-SW 247 1 min 0,1 C 10,7 km/h (2 Bft)
22.02.2016 09:53 13,5 C 16,3 C 40 % 1014,4 hPa 0,0 mm 12,5 km/h (3 Bft) W-NW 292 1 min 0,2 C 14,6 km/h (3 Bft)
22.02.2016 09:54 13,5 C 16,3 C 40 % 1014,4 hPa 0,0 mm 12,5 km/h (3 Bft) W-NW 292 1 min 0,2 C 14,6 km/h (3 Bft)
22.02.2016 09:55 13,4 C 16,4 C 40 % 1014,4 hPa 0,0 mm 10,7 km/h (2 Bft) N-NW 337 1 min 0,1 C 6,9 km/h (2 Bft)
22.02.2016 09:56 13,4 C 16,4 C 40 % 1014,4 hPa 0,0 mm 10,7 km/h (2 Bft) N-NW 337 1 min 0,1 C 6,9 km/h (2 Bft)
22.02.2016 09:57 13,5 C 16,4 C 40 % 1014,4 hPa 0,0 mm 11,0 km/h (2 Bft) W-NW 292 1 min 0,2 C 18,2 km/h (3 Bft)
22.02.2016 09:58 13,5 C 16,4 C 40 % 1014,4 hPa 0,0 mm 11,0 km/h (2 Bft) W-NW 292 1 min 0,2 C 18,2 km/h (3 Bft)
22.02.2016 09:59 13,6 C 16,4 C 40 % 1014,4 hPa 0,0 mm 11,9 km/h (2 Bft) W-SW 247 1 min 0,3 C 17,9 km/h (3 Bft)
22.02.2016 10:00 13,6 C 16,4 C 40 % 1014,4 hPa 0,0 mm 11,9 km/h (2 Bft) W-SW 247 1 min 0,3 C 17,9 km/h (3 Bft)
22.02.2016 10:01 13,6 C 16,4 C 40 % 1014,4 hPa 0,0 mm 11,3 km/h (2 Bft) W 270 1 min 0,3 C 15,8 km/h (3 Bft)
22.02.2016 10:02 13,6 C 16,4 C 40 % 1014,4 hPa 0,0 mm 11,3 km/h (2 Bft) W 270 1 min 0,3 C 15,8 km/h (3 Bft)
22.02.2016 10:03 13,9 C 16,4 C 39 % 1014,2 hPa 0,0 mm 12,8 km/h (3 Bft) W 270 1 min 0,2 C 24,4 km/h (4 Bft)
22.02.2016 10:04 13,9 C 16,4 C 39 % 1014,2 hPa 0,0 mm 12,8 km/h (3 Bft) W 270 1 min 0,2 C 24,4 km/h (4 Bft)
22.02.2016 10:05 14,0 C 16,7 C 39 % 1014,2 hPa 0,0 mm 14,6 km/h (3 Bft) NW 315 1 min 0,3 C 24,1 km/h (4 Bft)
22.02.2016 10:06 14,0 C 16,7 C 39 % 1014,2 hPa 0,0 mm 14,6 km/h (3 Bft) NW 315 1 min 0,3 C 24,1 km/h (4 Bft)
22.02.2016 10:07 14,1 C 16,8 C 37 % 1014,2 hPa 0,0 mm 18,5 km/h (3 Bft) W-NW 292 1 min -0,4 C 36,1 km/h (5 Bft)
22.02.2016 10:08 14,1 C 16,8 C 37 % 1014,2 hPa 0,0 mm 18,5 km/h (3 Bft) W-NW 292 1 min -0,4 C 36,1 km/h (5 Bft)
22.02.2016 10:09 14,1 C 16,9 C 37 % 1014,2 hPa 0,0 mm 20,0 km/h (4 Bft) W-NW 292 1 min -0,4 C 32,5 km/h (5 Bft)
22.02.2016 10:10 14,1 C 16,9 C 37 % 1014,2 hPa 0,0 mm 20,0 km/h (4 Bft) W-NW 292 1 min -0,4 C 32,5 km/h (5 Bft)
22.02.2016 10:11 14,0 C 17,1 C 37 % 1014,2 hPa 0,0 mm 21,2 km/h (4 Bft) W-NW 292 1 min -0,4 C 28,3 km/h (4 Bft)
22.02.2016 10:12 14,0 C 17,1 C 37 % 1014,2 hPa 0,0 mm 21,2 km/h (4 Bft) W-NW 292 1 min -0,4 C 28,3 km/h (4 Bft)
22.02.2016 10:13 14,0 C 17,1 C 37 % 1014,2 hPa 0,0 mm 22,9 km/h (4 Bft) W 270 1 min -0,4 C 23,2 km/h (4 Bft)
22.02.2016 10:14 14,0 C 17,1 C 37 % 1014,2 hPa 0,0 mm 22,9 km/h (4 Bft) W 270 1 min -0,4 C 23,2 km/h (4 Bft)
22.02.2016 10:15 13,9 C 17,3 C 37 % 1014,2 hPa 0,0 mm 22,9 km/h (4 Bft) S 180 1 min -0,5 C 19,1 km/h (3 Bft)
22.02.2016 10:16 13,9 C 17,3 C 37 % 1014,2 hPa 0,0 mm 22,9 km/h (4 Bft) S 180 1 min -0,5 C 19,1 km/h (3 Bft)
22.02.2016 10:17 13,9 C 17,3 C 37 % 1014,2 hPa 0,0 mm 22,9 km/h (4 Bft) W-NW 292 1 min -0,5 C 39,9 km/h (6 Bft)
22.02.2016 10:18 13,9 C 17,3 C 37 % 1014,2 hPa 0,0 mm 22,9 km/h (4 Bft) W-NW 292 1 min -0,5 C 39,9 km/h (6 Bft)
22.02.2016 10:19 14,0 C 17,4 C 37 % 1014,2 hPa 0,0 mm 22,7 km/h (4 Bft) W-SW 247 1 min -0,4 C 36,7 km/h (5 Bft)
22.02.2016 10:20 14,0 C 17,4 C 37 % 1014,2 hPa 0,0 mm 22,7 km/h (4 Bft) W-SW 247 1 min -0,4 C 36,7 km/h (5 Bft)
22.02.2016 10:21 14,0 C 17,4 C 37 % 1014,2 hPa 0,0 mm 22,4 km/h (4 Bft) W 270 1 min -0,4 C 25,6 km/h (4 Bft)
22.02.2016 10:22 14,0 C 17,4 C 37 % 1014,2 hPa 0,0 mm 22,4 km/h (4 Bft) W 270 1 min -0,4 C 25,6 km/h (4 Bft)
22.02.2016 10:23 14,1 C 17,5 C 37 % 1014,4 hPa 0,0 mm 21,5 km/h (4 Bft) NW 315 1 min -0,4 C 38,1 km/h (5 Bft)
22.02.2016 10:24 14,1 C 17,6 C 37 % 1014,4 hPa 0,0 mm 21,5 km/h (4 Bft) NW 315 1 min -0,4 C 38,1 km/h (5 Bft)
22.02.2016 10:25 14,1 C 17,7 C 37 % 1014,4 hPa 0,0 mm 21,2 km/h (4 Bft) W 270 1 min -0,4 C 26,2 km/h (4 Bft)
22.02.2016 10:26 14,1 C 17,7 C 37 % 1014,4 hPa 0,0 mm 21,2 km/h (4 Bft) W 270 1 min -0,4 C 26,2 km/h (4 Bft)
22.02.2016 10:27 14,1 C 17,7 C 38 % 1014,4 hPa 0,0 mm 20,6 km/h (4 Bft) NW 315 1 min 0,0 C 24,4 km/h (4 Bft)
22.02.2016 10:28 14,1 C 17,7 C 38 % 1014,4 hPa 0,0 mm 20,6 km/h (4 Bft) NW 315 1 min 0,0 C 24,4 km/h (4 Bft)
22.02.2016 10:29 14,1 C 17,8 C 37 % 1014,4 hPa 0,0 mm 20,3 km/h (4 Bft) S-SW 202 1 min -0,4 C 26,8 km/h (4 Bft)
22.02.2016 10:30 14,1 C 17,8 C 37 % 1014,4 hPa 0,0 mm 20,3 km/h (4 Bft) S-SW 202 1 min -0,4 C 26,8 km/h (4 Bft)
22.02.2016 10:31 14,2 C 17,8 C 37 % 1014,4 hPa 0,0 mm 20,0 km/h (4 Bft) W 270 1 min -0,3 C 22,9 km/h (4 Bft)
22.02.2016 10:32 14,2 C 17,8 C 37 % 1014,4 hPa 0,0 mm 20,0 km/h (4 Bft) W 270 1 min -0,3 C 22,9 km/h (4 Bft)
22.02.2016 10:33 14,3 C 17,7 C 37 % 1014,4 hPa 0,0 mm 20,3 km/h (4 Bft) W 270 1 min -0,2 C 19,4 km/h (3 Bft)
22.02.2016 10:34 14,3 C 17,7 C 37 % 1014,4 hPa 0,0 mm 20,3 km/h (4 Bft) W 270 1 min -0,2 C 19,4 km/h (3 Bft)
22.02.2016 10:35 14,3 C 17,7 C 37 % 1014,4 hPa 0,0 mm 19,7 km/h (3 Bft) NW 315 1 min -0,2 C 23,8 km/h (4 Bft)
22.02.2016 10:36 14,3 C 17,7 C 37 % 1014,4 hPa 0,0 mm 19,7 km/h (3 Bft) NW 315 1 min -0,2 C 23,8 km/h (4 Bft)
22.02.2016 10:37 14,3 C 17,8 C 38 % 1014,4 hPa 0,0 mm 19,1 km/h (3 Bft) W-SW 247 1 min 0,2 C 20,0 km/h (4 Bft)
22.02.2016 10:38 14,3 C 17,8 C 38 % 1014,4 hPa 0,0 mm 19,1 km/h (3 Bft) W-SW 247 1 min 0,2 C 20,0 km/h (4 Bft)
22.02.2016 10:39 14,4 C 18,0 C 38 % 1014,4 hPa 0,0 mm 17,9 km/h (3 Bft) W-SW 247 1 min 0,3 C 19,4 km/h (3 Bft)
22.02.2016 10:40 14,4 C 18,0 C 38 % 1014,4 hPa 0,0 mm 17,9 km/h (3 Bft) W-SW 247 1 min 0,3 C 19,4 km/h (3 Bft)
22.02.2016 10:41 14,4 C 18,2 C 38 % 1014,4 hPa 0,0 mm 17,9 km/h (3 Bft) W-NW 292 1 min 0,3 C 33,1 km/h (5 Bft)
22.02.2016 10:42 14,4 C 18,2 C 38 % 1014,4 hPa 0,0 mm 17,9 km/h (3 Bft) W-NW 292 1 min 0,3 C 33,1 km/h (5 Bft)
22.02.2016 10:43 14,3 C 18,2 C 38 % 1014,7 hPa 0,0 mm 17,0 km/h (3 Bft) W 270 1 min 0,2 C 17,9 km/h (3 Bft)
22.02.2016 10:44 14,3 C 18,2 C 38 % 1014,7 hPa 0,0 mm 17,0 km/h (3 Bft) W 270 1 min 0,2 C 17,9 km/h (3 Bft)
22.02.2016 10:45 14,3 C 18,3 C 38 % 1014,7 hPa 0,0 mm 16,4 km/h (3 Bft) W-SW 247 1 min 0,2 C 15,2 km/h (3 Bft)
22.02.2016 10:46 14,3 C 18,3 C 38 % 1014,7 hPa 0,0 mm 16,4 km/h (3 Bft) W-SW 247 1 min 0,2 C 15,2 km/h (3 Bft)
22.02.2016 10:47 14,3 C 18,5 C 38 % 1014,7 hPa 0,0 mm 16,4 km/h (3 Bft) W 270 1 min 0,2 C 26,5 km/h (4 Bft)
22.02.2016 10:48 14,3 C 18,5 C 38 % 1014,7 hPa 0,0 mm 16,4 km/h (3 Bft) W 270 1 min 0,2 C 26,5 km/h (4 Bft)
22.02.2016 10:49 14,3 C 18,5 C 38 % 1014,7 hPa 0,0 mm 17,6 km/h (3 Bft) W 270 1 min 0,2 C 16,1 km/h (3 Bft)
22.02.2016 10:50 14,3 C 18,5 C 38 % 1014,7 hPa 0,0 mm 17,6 km/h (3 Bft) W 270 1 min 0,2 C 16,1 km/h (3 Bft)
22.02.2016 10:51 14,4 C 18,5 C 39 % 1014,7 hPa 0,0 mm 17,0 km/h (3 Bft) W-NW 292 1 min 0,6 C 14,9 km/h (3 Bft)
22.02.2016 10:52 14,4 C 18,5 C 39 % 1014,7 hPa 0,0 mm 17,0 km/h (3 Bft) W-NW 292 1 min 0,6 C 14,9 km/h (3 Bft)
22.02.2016 10:53 14,5 C 18,5 C 38 % 1014,7 hPa 0,0 mm 17,0 km/h (3 Bft) W 270 1 min 0,4 C 26,5 km/h (4 Bft)
22.02.2016 10:54 14,5 C 18,5 C 38 % 1014,7 hPa 0,0 mm 17,0 km/h (3 Bft) W 270 1 min 0,4 C 26,5 km/h (4 Bft)
22.02.2016 10:55 14,5 C 18,5 C 39 % 1014,7 hPa 0,0 mm 15,8 km/h (3 Bft) W 270 1 min 0,7 C 16,1 km/h (3 Bft)
22.02.2016 10:56 14,5 C 18,5 C 39 % 1014,7 hPa 0,0 mm 15,8 km/h (3 Bft) W 270 1 min 0,7 C 16,1 km/h (3 Bft)
22.02.2016 10:57 14,6 C 18,5 C 39 % 1014,7 hPa 0,0 mm 16,4 km/h (3 Bft) SW 225 1 min 0,8 C 18,5 km/h (3 Bft)
22.02.2016 10:58 14,6 C 18,5 C 39 % 1014,7 hPa 0,0 mm 16,4 km/h (3 Bft) SW 225 1 min 0,8 C 18,5 km/h (3 Bft)
22.02.2016 10:59 14,5 C 18,2 C 38 % 1014,7 hPa 0,0 mm 16,7 km/h (3 Bft) W-NW 292 1 min 0,4 C 29,2 km/h (5 Bft)
22.02.2016 11:00 14,5 C 18,2 C 38 % 1014,7 hPa 0,0 mm 16,7 km/h (3 Bft) W-NW 292 1 min 0,4 C 29,2 km/h (5 Bft)
22.02.2016 11:01 14,7 C 17,9 C 38 % 1014,7 hPa 0,0 mm 17,3 km/h (3 Bft) W 270 1 min 0,5 C 13,7 km/h (3 Bft)
22.02.2016 11:02 14,7 C 17,9 C 38 % 1014,7 hPa 0,0 mm 17,3 km/h (3 Bft) W 270 1 min 0,5 C 13,7 km/h (3 Bft)
22.02.2016 11:03 14,8 C 17,9 C 38 % 1015,4 hPa 0,0 mm 17,6 km/h (3 Bft) W 270 1 min 0,6 C 25,0 km/h (4 Bft)
22.02.2016 11:04 14,8 C 17,9 C 38 % 1015,4 hPa 0,0 mm 17,6 km/h (3 Bft) W 270 1 min 0,6 C 25,0 km/h (4 Bft)
22.02.2016 11:05 14,9 C 18,2 C 38 % 1015,4 hPa 0,0 mm 18,5 km/h (3 Bft) W-NW 292 1 min 0,7 C 27,4 km/h (4 Bft)
22.02.2016 11:06 14,9 C 18,2 C 38 % 1015,4 hPa 0,0 mm 18,5 km/h (3 Bft) W-NW 292 1 min 0,7 C 27,4 km/h (4 Bft)
22.02.2016 11:07 15,0 C 18,3 C 37 % 1015,4 hPa 0,0 mm 18,5 km/h (3 Bft) W-SW 247 1 min 0,4 C 18,5 km/h (3 Bft)
22.02.2016 11:08 15,0 C 18,3 C 37 % 1015,4 hPa 0,0 mm 18,5 km/h (3 Bft) W-SW 247 1 min 0,4 C 18,5 km/h (3 Bft)
22.02.2016 11:09 15,1 C 18,7 C 37 % 1015,4 hPa 0,0 mm 19,1 km/h (3 Bft) W 270 1 min 0,5 C 29,2 km/h (5 Bft)
22.02.2016 11:10 15,1 C 18,7 C 37 % 1015,4 hPa 0,0 mm 19,1 km/h (3 Bft) W 270 1 min 0,5 C 29,2 km/h (5 Bft)
22.02.2016 11:11 15,3 C 18,8 C 37 % 1015,4 hPa 0,0 mm 17,6 km/h (3 Bft) W 270 1 min 0,7 C 20,0 km/h (4 Bft)
22.02.2016 11:12 15,3 C 18,8 C 37 % 1015,4 hPa 0,0 mm 17,6 km/h (3 Bft) W 270 1 min 0,7 C 20,0 km/h (4 Bft)
22.02.2016 11:13 15,4 C 18,8 C 37 % 1015,4 hPa 0,0 mm 18,8 km/h (3 Bft) W 270 1 min 0,8 C 23,2 km/h (4 Bft)
22.02.2016 11:14 15,4 C 18,8 C 37 % 1015,4 hPa 0,0 mm 18,8 km/h (3 Bft) W 270 1 min 0,8 C 23,2 km/h (4 Bft)
22.02.2016 11:15 15,5 C 18,8 C 37 % 1015,4 hPa 0,0 mm 17,9 km/h (3 Bft) N-NW 337 1 min 0,9 C 11,6 km/h (2 Bft)
22.02.2016 11:16 15,5 C 18,8 C 37 % 1015,4 hPa 0,0 mm 17,9 km/h (3 Bft) N-NW 337 1 min 0,9 C 11,6 km/h (2 Bft)
22.02.2016 11:17 15,5 C 18,8 C 37 % 1015,4 hPa 0,0 mm 19,1 km/h (3 Bft) W 270 1 min 0,9 C 28,3 km/h (4 Bft)
22.02.2016 11:18 15,5 C 18,8 C 37 % 1015,4 hPa 0,0 mm 19,1 km/h (3 Bft) W 270 1 min 0,9 C 28,3 km/h (4 Bft)
22.02.2016 11:19 15,5 C 18,8 C 37 % 1015,4 hPa 0,0 mm 18,2 km/h (3 Bft) W-NW 292 1 min 0,9 C 25,9 km/h (4 Bft)
22.02.2016 11:20 15,5 C 18,8 C 37 % 1015,4 hPa 0,0 mm 18,2 km/h (3 Bft) W-NW 292 1 min 0,9 C 25,9 km/h (4 Bft)
22.02.2016 11:21 15,6 C 18,7 C 37 % 1015,4 hPa 0,0 mm 19,4 km/h (3 Bft) W 270 1 min 1,0 C 40,8 km/h (6 Bft)
22.02.2016 11:22 15,6 C 18,7 C 37 % 1015,4 hPa 0,0 mm 19,4 km/h (3 Bft) W 270 1 min 1,0 C 40,8 km/h (6 Bft)
22.02.2016 11:23 15,5 C 18,7 C 37 % 1015,9 hPa 0,0 mm 18,8 km/h (3 Bft) W 270 1 min 0,9 C 23,2 km/h (4 Bft)
22.02.2016 11:24 15,5 C 18,7 C 37 % 1015,9 hPa 0,0 mm 18,8 km/h (3 Bft) W 270 1 min 0,9 C 23,2 km/h (4 Bft)
22.02.2016 11:25 15,7 C 18,7 C 37 % 1015,9 hPa 0,0 mm 17,9 km/h (3 Bft) S-SW 202 1 min 1,1 C 22,7 km/h (4 Bft)
22.02.2016 11:26 15,7 C 18,7 C 37 % 1015,9 hPa 0,0 mm 17,9 km/h (3 Bft) S-SW 202 1 min 1,1 C 22,7 km/h (4 Bft)
22.02.2016 11:27 15,7 C 18,7 C 37 % 1015,9 hPa 0,0 mm 18,2 km/h (3 Bft) W 270 1 min 1,1 C 17,6 km/h (3 Bft)
22.02.2016 11:28 15,7 C 18,7 C 37 % 1015,9 hPa 0,0 mm 18,2 km/h (3 Bft) W 270 1 min 1,1 C 17,6 km/h (3 Bft)
22.02.2016 11:29 15,8 C 18,8 C 37 % 1015,9 hPa 0,0 mm 17,6 km/h (3 Bft) W-SW 247 1 min 1,1 C 21,8 km/h (4 Bft)
22.02.2016 11:30 15,8 C 18,8 C 37 % 1015,9 hPa 0,0 mm 17,6 km/h (3 Bft) W-SW 247 1 min 1,1 C 21,8 km/h (4 Bft)
22.02.2016 11:31 15,8 C 18,9 C 37 % 1015,9 hPa 0,0 mm 17,3 km/h (3 Bft) W 270 1 min 1,1 C 15,8 km/h (3 Bft)
22.02.2016 11:32 15,8 C 18,9 C 37 % 1015,9 hPa 0,0 mm 17,3 km/h (3 Bft) W 270 1 min 1,1 C 15,8 km/h (3 Bft)
22.02.2016 11:33 15,8 C 19,0 C 37 % 1015,9 hPa 0,0 mm 16,1 km/h (3 Bft) W 270 1 min 1,1 C 23,5 km/h (4 Bft)
22.02.2016 11:34 15,8 C 19,0 C 37 % 1015,9 hPa 0,0 mm 16,1 km/h (3 Bft) W 270 1 min 1,1 C 23,5 km/h (4 Bft)
22.02.2016 11:35 15,8 C 19,0 C 37 % 1015,9 hPa 0,0 mm 17,0 km/h (3 Bft) W-SW 247 1 min 1,1 C 20,3 km/h (4 Bft)
22.02.2016 11:36 15,8 C 19,0 C 37 % 1015,9 hPa 0,0 mm 17,0 km/h (3 Bft) W-SW 247 1 min 1,1 C 20,3 km/h (4 Bft)
22.02.2016 11:37 15,8 C 18,8 C 37 % 1015,9 hPa 0,0 mm 17,0 km/h (3 Bft) SW 225 1 min 1,1 C 13,1 km/h (3 Bft)
22.02.2016 11:38 15,8 C 18,8 C 37 % 1015,9 hPa 0,0 mm 17,0 km/h (3 Bft) SW 225 1 min 1,1 C 13,1 km/h (3 Bft)
22.02.2016 11:40 15,7 C 18,6 C 37 % 1015,9 hPa 0,0 mm 15,8 km/h (3 Bft) W 270 2 min 1,1 C 12,8 km/h (3 Bft)
22.02.2016 11:41 15,8 C 18,5 C 38 % 1015,9 hPa 0,0 mm 15,8 km/h (3 Bft) W-SW 247 1 min 1,5 C 23,8 km/h (4 Bft)
22.02.2016 11:42 15,8 C 18,5 C 38 % 1015,9 hPa 0,0 mm 15,8 km/h (3 Bft) W-SW 247 1 min 1,5 C 23,8 km/h (4 Bft)
22.02.2016 11:43 15,8 C 18,5 C 37 % 1016,4 hPa 0,0 mm 17,9 km/h (3 Bft) W 270 1 min 1,1 C 32,2 km/h (5 Bft)
22.02.2016 11:44 15,8 C 18,5 C 37 % 1016,4 hPa 0,0 mm 17,9 km/h (3 Bft) W 270 1 min 1,1 C 32,2 km/h (5 Bft)
22.02.2016 11:45 15,7 C 18,3 C 37 % 1016,4 hPa 0,0 mm 17,6 km/h (3 Bft) W-NW 292 1 min 1,1 C 24,4 km/h (4 Bft)
22.02.2016 11:46 15,7 C 18,3 C 37 % 1016,4 hPa 0,0 mm 17,6 km/h (3 Bft) W-NW 292 1 min 1,1 C 24,4 km/h (4 Bft)
22.02.2016 11:47 15,7 C 18,3 C 37 % 1016,4 hPa 0,0 mm 17,6 km/h (3 Bft) W 270 1 min 1,1 C 20,0 km/h (4 Bft)
22.02.2016 11:48 15,7 C 18,3 C 37 % 1016,4 hPa 0,0 mm 17,6 km/h (3 Bft) W 270 1 min 1,1 C 20,0 km/h (4 Bft)
22.02.2016 11:49 15,4 C 17,9 C 37 % 1016,4 hPa 0,0 mm 18,8 km/h (3 Bft) W-NW 292 1 min 0,8 C 24,7 km/h (4 Bft)
22.02.2016 11:50 15,4 C 17,9 C 37 % 1016,4 hPa 0,0 mm 18,8 km/h (3 Bft) W-NW 292 1 min 0,8 C 24,7 km/h (4 Bft)
22.02.2016 11:51 15,3 C 17,5 C 36 % 1016,4 hPa 0,0 mm 20,6 km/h (4 Bft) W-NW 292 1 min 0,3 C 22,4 km/h (4 Bft)
22.02.2016 11:52 15,3 C 17,3 C 36 % 1016,4 hPa 0,0 mm 20,6 km/h (4 Bft) W-NW 292 1 min 0,3 C 22,4 km/h (4 Bft)
22.02.2016 11:53 15,3 C 17,1 C 37 % 1016,4 hPa 0,0 mm 21,2 km/h (4 Bft) W 270 1 min 0,7 C 31,9 km/h (5 Bft)
22.02.2016 11:54 15,3 C 16,9 C 37 % 1016,4 hPa 0,0 mm 21,2 km/h (4 Bft) W 270 0 min 0,7 C 31,9 km/h (5 Bft)
22.02.2016 11:55 15,2 C 16,7 C 37 % 1016,4 hPa 0,0 mm 20,0 km/h (4 Bft) W 270 0 min 0,6 C 20,0 km/h (4 Bft)
22.02.2016 11:56 15,2 C 16,6 C 37 % 1016,4 hPa 0,0 mm 20,0 km/h (4 Bft) W 270 0 min 0,6 C 20,0 km/h (4 Bft)
22.02.2016 11:57 15,4 C 16,5 C 37 % 1016,4 hPa 0,0 mm 19,4 km/h (3 Bft) W 270 0 min 0,8 C 19,1 km/h (3 Bft)
22.02.2016 11:58 15,4 C 16,4 C 37 % 1016,4 hPa 0,0 mm 19,4 km/h (3 Bft) W 270 0 min 0,8 C 19,1 km/h (3 Bft)
22.02.2016 11:59 15,5 C 16,4 C 37 % 1016,4 hPa 0,0 mm 20,3 km/h (4 Bft) W 270 0 min 0,9 C 34,6 km/h (5 Bft)
22.02.2016 12:00 15,5 C 16,4 C 37 % 1016,4 hPa 0,0 mm 20,3 km/h (4 Bft) W 270 0 min 0,9 C 34,6 km/h (5 Bft)
22.02.2016 12:01 15,6 C 16,6 C 37 % 1016,4 hPa 0,0 mm 19,7 km/h (3 Bft) W 270 0 min 1,0 C 31,3 km/h (5 Bft)
22.02.2016 12:02 15,6 C 16,6 C 37 % 1016,4 hPa 0,0 mm 19,7 km/h (3 Bft) W 270 0 min 1,0 C 31,3 km/h (5 Bft)
22.02.2016 12:03 15,6 C 16,6 C 37 % 1016,1 hPa 0,0 mm 19,7 km/h (3 Bft) W 270 0 min 1,0 C 31,3 km/h (5 Bft)
22.02.2016 12:04 15,6 C 16,6 C 37 % 1016,1 hPa 0,0 mm 19,7 km/h (3 Bft) W 270 0 min 1,0 C 31,3 km/h (5 Bft)
22.02.2016 12:05 15,6 C 16,6 C 37 % 1016,1 hPa 0,0 mm 19,7 km/h (3 Bft) W 270 0 min 1,0 C 31,3 km/h (5 Bft)
22.02.2016 12:06 15,6 C 16,6 C 37 % 1016,1 hPa 0,0 mm 19,7 km/h (3 Bft) W 270 0 min 1,0 C 31,3 km/h (5 Bft)
22.02.2016 12:07 15,7 C 16,7 C 37 % 1016,1 hPa 0,0 mm 18,5 km/h (3 Bft) NW 315 0 min 1,1 C 16,7 km/h (3 Bft)
22.02.2016 12:08 15,7 C 16,7 C 37 % 1016,1 hPa 0,0 mm 18,5 km/h (3 Bft) NW 315 0 min 1,1 C 16,7 km/h (3 Bft)
22.02.2016 12:09 15,7 C 16,7 C 37 % 1016,1 hPa 0,0 mm 18,2 km/h (3 Bft) W 270 0 min 1,1 C 20,3 km/h (4 Bft)
22.02.2016 12:10 15,7 C 16,7 C 37 % 1016,1 hPa 0,0 mm 18,2 km/h (3 Bft) W 270 0 min 1,1 C 20,3 km/h (4 Bft)
22.02.2016 12:11 15,7 C 16,7 C 37 % 1016,1 hPa 0,0 mm 17,6 km/h (3 Bft) W-NW 292 0 min 1,1 C 20,9 km/h (4 Bft)
22.02.2016 12:12 15,7 C 16,7 C 37 % 1016,1 hPa 0,0 mm 17,6 km/h (3 Bft) W-NW 292 0 min 1,1 C 20,9 km/h (4 Bft)
22.02.2016 12:13 15,8 C 16,5 C 36 % 1016,1 hPa 0,0 mm 18,8 km/h (3 Bft) NW 315 0 min 0,8 C 19,4 km/h (3 Bft)
22.02.2016 12:14 15,8 C 16,4 C 36 % 1016,1 hPa 0,0 mm 18,8 km/h (3 Bft) NW 315 0 min 0,8 C 19,4 km/h (3 Bft)
22.02.2016 12:15 15,8 C 16,4 C 37 % 1016,1 hPa 0,0 mm 19,1 km/h (3 Bft) W 270 0 min 1,1 C 26,8 km/h (4 Bft)
22.02.2016 12:16 15,8 C 16,3 C 37 % 1016,1 hPa 0,0 mm 19,1 km/h (3 Bft) W 270 0 min 1,1 C 26,8 km/h (4 Bft)
22.02.2016 12:17 15,8 C 16,3 C 36 % 1016,1 hPa 0,0 mm 20,0 km/h (4 Bft) NW 315 0 min 0,8 C 29,5 km/h (5 Bft)
22.02.2016 12:18 15,8 C 16,2 C 36 % 1016,1 hPa 0,0 mm 20,0 km/h (4 Bft) NW 315 0 min 0,8 C 29,5 km/h (5 Bft)
22.02.2016 12:19 15,8 C 16,3 C 36 % 1016,1 hPa 0,0 mm 20,0 km/h (4 Bft) W 270 0 min 0,8 C 17,9 km/h (3 Bft)
22.02.2016 12:20 15,8 C 16,3 C 36 % 1016,1 hPa 0,0 mm 20,0 km/h (4 Bft) W 270 0 min 0,8 C 17,9 km/h (3 Bft)
22.02.2016 12:21 15,8 C 16,4 C 36 % 1016,1 hPa 0,0 mm 19,7 km/h (3 Bft) NW 315 0 min 0,8 C 23,8 km/h (4 Bft)
22.02.2016 12:22 15,8 C 16,4 C 36 % 1016,1 hPa 0,0 mm 19,7 km/h (3 Bft) NW 315 0 min 0,8 C 23,8 km/h (4 Bft)
22.02.2016 12:23 15,9 C 16,6 C 36 % 1016,0 hPa 0,0 mm 18,8 km/h (3 Bft) W-SW 247 0 min 0,9 C 27,4 km/h (4 Bft)
22.02.2016 12:24 15,9 C 16,7 C 36 % 1016,0 hPa 0,0 mm 18,8 km/h (3 Bft) W-SW 247 0 min 0,9 C 27,4 km/h (4 Bft)
22.02.2016 12:25 15,9 C 16,8 C 36 % 1016,0 hPa 0,0 mm 18,2 km/h (3 Bft) N-NO 22 0 min 0,9 C 24,1 km/h (4 Bft)
22.02.2016 12:26 15,9 C 16,9 C 36 % 1016,0 hPa 0,0 mm 18,2 km/h (3 Bft) N-NO 22 0 min 0,9 C 24,1 km/h (4 Bft)
22.02.2016 12:27 15,9 C 17,2 C 36 % 1016,0 hPa 0,0 mm 17,0 km/h (3 Bft) W-SW 247 0 min 0,9 C 17,9 km/h (3 Bft)
22.02.2016 12:28 15,9 C 17,2 C 36 % 1016,0 hPa 0,0 mm 17,0 km/h (3 Bft) W-SW 247 0 min 0,9 C 17,9 km/h (3 Bft)
22.02.2016 12:29 15,9 C 17,5 C 36 % 1016,0 hPa 0,0 mm 17,6 km/h (3 Bft) W-NW 292 0 min 0,9 C 27,7 km/h (4 Bft)
22.02.2016 12:30 15,9 C 17,5 C 36 % 1016,0 hPa 0,0 mm 17,6 km/h (3 Bft) W-NW 292 0 min 0,9 C 27,7 km/h (4 Bft)
22.02.2016 12:31 16,0 C 17,6 C 37 % 1016,0 hPa 0,0 mm 17,6 km/h (3 Bft) W-NW 292 0 min 1,3 C 12,2 km/h (2 Bft)
22.02.2016 12:32 16,0 C 17,6 C 37 % 1016,0 hPa 0,0 mm 17,6 km/h (3 Bft) W-NW 292 0 min 1,3 C 12,2 km/h (2 Bft)
22.02.2016 12:33 16,1 C 17,9 C 37 % 1016,0 hPa 0,0 mm 17,3 km/h (3 Bft) W-SW 247 1 min 1,4 C 18,2 km/h (3 Bft)
22.02.2016 12:34 16,1 C 17,9 C 37 % 1016,0 hPa 0,0 mm 17,3 km/h (3 Bft) W-SW 247 1 min 1,4 C 18,2 km/h (3 Bft)
22.02.2016 12:35 16,0 C 18,2 C 37 % 1016,0 hPa 0,0 mm 17,3 km/h (3 Bft) W-NW 292 1 min 1,3 C 25,0 km/h (4 Bft)
22.02.2016 12:36 16,0 C 18,2 C 37 % 1016,0 hPa 0,0 mm 17,3 km/h (3 Bft) W-NW 292 1 min 1,3 C 25,0 km/h (4 Bft)
22.02.2016 12:37 16,0 C 18,3 C 37 % 1016,0 hPa 0,0 mm 18,2 km/h (3 Bft) W-SW 247 1 min 1,3 C 26,2 km/h (4 Bft)
22.02.2016 12:38 16,0 C 18,3 C 37 % 1016,0 hPa 0,0 mm 18,2 km/h (3 Bft) W-SW 247 1 min 1,3 C 26,2 km/h (4 Bft)
22.02.2016 12:39 16,0 C 18,5 C 37 % 1016,0 hPa 0,0 mm 16,1 km/h (3 Bft) W-NW 292 1 min 1,3 C 10,1 km/h (2 Bft)
22.02.2016 12:40 16,0 C 18,5 C 37 % 1016,0 hPa 0,0 mm 16,1 km/h (3 Bft) W-NW 292 1 min 1,3 C 10,1 km/h (2 Bft)
22.02.2016 12:41 16,1 C 18,9 C 37 % 1016,0 hPa 0,0 mm 16,1 km/h (3 Bft) W-SW 247 1 min 1,4 C 14,6 km/h (3 Bft)
22.02.2016 12:42 16,1 C 18,9 C 37 % 1016,0 hPa 0,0 mm 16,1 km/h (3 Bft) W-SW 247 1 min 1,4 C 14,6 km/h (3 Bft)
22.02.2016 12:43 16,1 C 19,0 C 37 % 1015,7 hPa 0,0 mm 14,9 km/h (3 Bft) W-NW 292 1 min 1,4 C 11,9 km/h (2 Bft)
22.02.2016 12:44 16,1 C 19,0 C 37 % 1015,7 hPa 0,0 mm 14,9 km/h (3 Bft) W-NW 292 1 min 1,4 C 11,9 km/h (2 Bft)
22.02.2016 12:45 16,2 C 19,2 C 37 % 1015,7 hPa 0,0 mm 15,5 km/h (3 Bft) W 270 1 min 1,5 C 23,5 km/h (4 Bft)
22.02.2016 12:46 16,2 C 19,2 C 37 % 1015,7 hPa 0,0 mm 15,5 km/h (3 Bft) W 270 1 min 1,5 C 23,5 km/h (4 Bft)
22.02.2016 12:47 16,2 C 19,2 C 37 % 1015,7 hPa 0,0 mm 15,5 km/h (3 Bft) N-NO 22 1 min 1,5 C 18,5 km/h (3 Bft)
22.02.2016 12:48 16,2 C 19,2 C 37 % 1015,7 hPa 0,0 mm 15,5 km/h (3 Bft) N-NO 22 1 min 1,5 C 18,5 km/h (3 Bft)
22.02.2016 12:49 16,2 C 19,2 C 37 % 1015,7 hPa 0,0 mm 15,5 km/h (3 Bft) NW 315 1 min 1,5 C 18,8 km/h (3 Bft)
22.02.2016 12:50 16,2 C 19,2 C 37 % 1015,7 hPa 0,0 mm 15,5 km/h (3 Bft) NW 315 1 min 1,5 C 18,8 km/h (3 Bft)
22.02.2016 12:51 16,2 C 19,1 C 37 % 1015,7 hPa 0,0 mm 16,4 km/h (3 Bft) S 180 1 min 1,5 C 14,9 km/h (3 Bft)
22.02.2016 12:52 16,2 C 19,1 C 37 % 1015,7 hPa 0,0 mm 16,4 km/h (3 Bft) S 180 1 min 1,5 C 14,9 km/h (3 Bft)
22.02.2016 12:53 16,3 C 19,2 C 37 % 1015,7 hPa 0,0 mm 15,2 km/h (3 Bft) W-SW 247 1 min 1,6 C 13,1 km/h (3 Bft)
22.02.2016 12:54 16,3 C 19,2 C 37 % 1015,7 hPa 0,0 mm 15,2 km/h (3 Bft) W-SW 247 1 min 1,6 C 13,1 km/h (3 Bft)
22.02.2016 12:55 16,5 C 19,4 C 37 % 1015,7 hPa 0,0 mm 15,2 km/h (3 Bft) NW 315 1 min 1,8 C 24,7 km/h (4 Bft)
22.02.2016 12:56 16,5 C 19,4 C 37 % 1015,7 hPa 0,0 mm 15,2 km/h (3 Bft) NW 315 1 min 1,8 C 24,7 km/h (4 Bft)
22.02.2016 12:57 16,7 C 19,7 C 37 % 1015,7 hPa 0,0 mm 14,0 km/h (3 Bft) NW 315 1 min 1,9 C 16,7 km/h (3 Bft)
22.02.2016 12:58 16,7 C 19,7 C 37 % 1015,7 hPa 0,0 mm 14,0 km/h (3 Bft) NW 315 1 min 1,9 C 16,7 km/h (3 Bft)
22.02.2016 12:59 16,7 C 19,7 C 37 % 1015,7 hPa 0,0 mm 13,4 km/h (3 Bft) W-SW 247 1 min 1,9 C 22,4 km/h (4 Bft)
22.02.2016 13:00 16,7 C 19,7 C 37 % 1015,7 hPa 0,0 mm 13,4 km/h (3 Bft) W-SW 247 1 min 1,9 C 22,4 km/h (4 Bft)
22.02.2016 13:01 16,5 C 19,5 C 36 % 1015,7 hPa 0,0 mm 14,3 km/h (3 Bft) W-NW 292 1 min 1,4 C 29,8 km/h (5 Bft)
22.02.2016 13:02 16,5 C 19,5 C 36 % 1015,7 hPa 0,0 mm 14,3 km/h (3 Bft) W-NW 292 1 min 1,4 C 29,8 km/h (5 Bft)
22.02.2016 13:03 16,5 C 19,4 C 36 % 1015,6 hPa 0,0 mm 14,9 km/h (3 Bft) W 270 1 min 1,4 C 10,4 km/h (2 Bft)
22.02.2016 13:04 16,5 C 19,4 C 36 % 1015,6 hPa 0,0 mm 14,9 km/h (3 Bft) W 270 1 min 1,4 C 10,4 km/h (2 Bft)
22.02.2016 13:05 16,7 C 19,4 C 37 % 1015,6 hPa 0,0 mm 14,6 km/h (3 Bft) W 270 1 min 1,9 C 10,7 km/h (2 Bft)
22.02.2016 13:06 16,7 C 19,4 C 37 % 1015,6 hPa 0,0 mm 14,6 km/h (3 Bft) W 270 1 min 1,9 C 10,7 km/h (2 Bft)
22.02.2016 13:07 16,7 C 19,6 C 36 % 1015,6 hPa 0,0 mm 15,2 km/h (3 Bft) W-SW 247 1 min 1,6 C 28,0 km/h (4 Bft)
22.02.2016 13:08 16,7 C 19,6 C 36 % 1015,6 hPa 0,0 mm 15,2 km/h (3 Bft) W-SW 247 1 min 1,6 C 28,0 km/h (4 Bft)
22.02.2016 13:09 16,5 C 19,6 C 36 % 1015,6 hPa 0,0 mm 15,2 km/h (3 Bft) W-SW 247 1 min 1,4 C 12,5 km/h (3 Bft)
22.02.2016 13:10 16,5 C 19,6 C 36 % 1015,6 hPa 0,0 mm 15,2 km/h (3 Bft) W-SW 247 1 min 1,4 C 12,5 km/h (3 Bft)
22.02.2016 13:11 16,5 C 19,6 C 36 % 1015,6 hPa 0,0 mm 14,9 km/h (3 Bft) W 270 1 min 1,4 C 23,8 km/h (4 Bft)
22.02.2016 13:12 16,5 C 19,6 C 36 % 1015,6 hPa 0,0 mm 14,9 km/h (3 Bft) W 270 1 min 1,4 C 23,8 km/h (4 Bft)
22.02.2016 13:13 16,5 C 19,4 C 36 % 1015,6 hPa 0,0 mm 15,5 km/h (3 Bft) W 270 1 min 1,4 C 22,1 km/h (4 Bft)
22.02.2016 13:14 16,5 C 19,4 C 36 % 1015,6 hPa 0,0 mm 15,5 km/h (3 Bft) W 270 1 min 1,4 C 22,1 km/h (4 Bft)
22.02.2016 13:15 16,6 C 19,4 C 36 % 1015,6 hPa 0,0 mm 16,7 km/h (3 Bft) W 270 1 min 1,5 C 21,8 km/h (4 Bft)
22.02.2016 13:16 16,6 C 19,4 C 36 % 1015,6 hPa 0,0 mm 16,7 km/h (3 Bft) W 270 1 min 1,5 C 21,8 km/h (4 Bft)
22.02.2016 13:17 16,6 C 19,3 C 36 % 1015,6 hPa 0,0 mm 17,9 km/h (3 Bft) S-SW 202 1 min 1,5 C 26,2 km/h (4 Bft)
22.02.2016 13:18 16,6 C 19,3 C 36 % 1015,6 hPa 0,0 mm 17,9 km/h (3 Bft) S-SW 202 1 min 1,5 C 26,2 km/h (4 Bft)
22.02.2016 13:19 16,5 C 19,3 C 35 % 1015,6 hPa 0,0 mm 17,9 km/h (3 Bft) W-SW 247 1 min 1,0 C 19,7 km/h (3 Bft)
22.02.2016 13:20 16,5 C 19,3 C 35 % 1015,6 hPa 0,0 mm 17,9 km/h (3 Bft) W-SW 247 1 min 1,0 C 19,7 km/h (3 Bft)
22.02.2016 13:21 16,5 C 19,4 C 36 % 1015,6 hPa 0,0 mm 17,9 km/h (3 Bft) W-NW 292 1 min 1,4 C 21,2 km/h (4 Bft)
22.02.2016 13:22 16,5 C 19,4 C 36 % 1015,6 hPa 0,0 mm 17,9 km/h (3 Bft) W-NW 292 1 min 1,4 C 21,2 km/h (4 Bft)
22.02.2016 13:23 16,6 C 19,4 C 36 % 1015,1 hPa 0,0 mm 17,6 km/h (3 Bft) NW 315 1 min 1,5 C 30,4 km/h (5 Bft)
22.02.2016 13:24 16,6 C 19,4 C 36 % 1015,1 hPa 0,0 mm 17,6 km/h (3 Bft) NW 315 1 min 1,5 C 30,4 km/h (5 Bft)
22.02.2016 13:25 16,6 C 19,2 C 35 % 1015,1 hPa 0,0 mm 18,5 km/h (3 Bft) W-SW 247 1 min 1,1 C 37,6 km/h (5 Bft)
22.02.2016 13:26 16,6 C 19,2 C 35 % 1015,1 hPa 0,0 mm 18,5 km/h (3 Bft) W-SW 247 1 min 1,1 C 37,6 km/h (5 Bft)
22.02.2016 13:27 16,6 C 19,2 C 35 % 1015,1 hPa 0,0 mm 17,3 km/h (3 Bft) W-SW 247 1 min 1,1 C 19,1 km/h (3 Bft)
22.02.2016 13:28 16,6 C 19,2 C 35 % 1015,1 hPa 0,0 mm 17,3 km/h (3 Bft) W-SW 247 1 min 1,1 C 19,1 km/h (3 Bft)
22.02.2016 13:29 16,6 C 19,2 C 35 % 1015,1 hPa 0,0 mm 19,4 km/h (3 Bft) W 270 1 min 1,1 C 32,8 km/h (5 Bft)
22.02.2016 13:30 16,6 C 19,2 C 35 % 1015,1 hPa 0,0 mm 19,4 km/h (3 Bft) W 270 1 min 1,1 C 32,8 km/h (5 Bft)
22.02.2016 13:31 16,6 C 19,2 C 35 % 1015,1 hPa 0,0 mm 20,3 km/h (4 Bft) W-NW 292 1 min 1,1 C 24,1 km/h (4 Bft)
22.02.2016 13:32 16,6 C 19,2 C 35 % 1015,1 hPa 0,0 mm 20,3 km/h (4 Bft) W-NW 292 1 min 1,1 C 24,1 km/h (4 Bft)
22.02.2016 13:33 16,7 C 19,1 C 35 % 1015,1 hPa 0,0 mm 20,3 km/h (4 Bft) W 270 1 min 1,2 C 22,9 km/h (4 Bft)
22.02.2016 13:34 16,7 C 19,1 C 35 % 1015,1 hPa 0,0 mm 20,3 km/h (4 Bft) W 270 1 min 1,2 C 22,9 km/h (4 Bft)
22.02.2016 13:35 16,8 C 19,2 C 35 % 1015,1 hPa 0,0 mm 19,1 km/h (3 Bft) NW 315 1 min 1,3 C 40,5 km/h (6 Bft)
22.02.2016 13:36 16,8 C 19,2 C 35 % 1015,1 hPa 0,0 mm 19,1 km/h (3 Bft) NW 315 1 min 1,3 C 40,5 km/h (6 Bft)
22.02.2016 13:37 16,9 C 19,2 C 35 % 1015,1 hPa 0,0 mm 19,4 km/h (3 Bft) W-SW 247 1 min 1,3 C 27,1 km/h (4 Bft)
22.02.2016 13:38 16,9 C 19,2 C 35 % 1015,1 hPa 0,0 mm 19,4 km/h (3 Bft) W-SW 247 1 min 1,3 C 27,1 km/h (4 Bft)
22.02.2016 13:39 16,8 C 19,2 C 35 % 1015,1 hPa 0,0 mm 20,6 km/h (4 Bft) W 270 1 min 1,3 C 34,6 km/h (5 Bft)
22.02.2016 13:40 16,8 C 19,2 C 35 % 1015,1 hPa 0,0 mm 20,6 km/h (4 Bft) W 270 1 min 1,3 C 34,6 km/h (5 Bft)
22.02.2016 13:41 16,8 C 19,2 C 35 % 1015,1 hPa 0,0 mm 18,8 km/h (3 Bft) O 90 1 min 1,3 C 29,5 km/h (5 Bft)
22.02.2016 13:42 16,8 C 19,2 C 35 % 1015,1 hPa 0,0 mm 18,8 km/h (3 Bft) O 90 1 min 1,3 C 29,5 km/h (5 Bft)
22.02.2016 13:43 16,9 C 19,2 C 35 % 1014,4 hPa 0,0 mm 18,2 km/h (3 Bft) W 270 1 min 1,3 C 10,7 km/h (2 Bft)
22.02.2016 13:44 16,9 C 19,2 C 35 % 1014,4 hPa 0,0 mm 18,2 km/h (3 Bft) W 270 1 min 1,3 C 10,7 km/h (2 Bft)
22.02.2016 13:45 16,8 C 19,2 C 35 % 1014,4 hPa 0,0 mm 20,0 km/h (4 Bft) W-SW 247 1 min 1,3 C 22,4 km/h (4 Bft)
22.02.2016 13:46 16,8 C 19,2 C 35 % 1014,4 hPa 0,0 mm 20,0 km/h (4 Bft) W-SW 247 1 min 1,3 C 22,4 km/h (4 Bft)
22.02.2016 13:47 16,8 C 19,1 C 35 % 1014,4 hPa 0,0 mm 20,0 km/h (4 Bft) NW 315 1 min 1,3 C 40,5 km/h (6 Bft)
22.02.2016 13:48 16,8 C 19,1 C 35 % 1014,4 hPa 0,0 mm 20,0 km/h (4 Bft) NW 315 1 min 1,3 C 40,5 km/h (6 Bft)
22.02.2016 13:49 16,7 C 19,0 C 35 % 1014,4 hPa 0,0 mm 20,9 km/h (4 Bft) W 270 1 min 1,2 C 34,3 km/h (5 Bft)
22.02.2016 13:50 16,7 C 19,0 C 35 % 1014,4 hPa 0,0 mm 20,9 km/h (4 Bft) W 270 1 min 1,2 C 34,3 km/h (5 Bft)
22.02.2016 13:51 16,7 C 19,0 C 35 % 1014,4 hPa 0,0 mm 19,7 km/h (3 Bft) NW 315 1 min 1,2 C 25,0 km/h (4 Bft)
22.02.2016 13:52 16,7 C 19,0 C 35 % 1014,4 hPa 0,0 mm 19,7 km/h (3 Bft) NW 315 1 min 1,2 C 25,0 km/h (4 Bft)
22.02.2016 13:53 16,7 C 19,0 C 34 % 1014,4 hPa 0,0 mm 20,9 km/h (4 Bft) W 270 1 min 0,8 C 34,3 km/h (5 Bft)
22.02.2016 13:54 16,7 C 19,0 C 34 % 1014,4 hPa 0,0 mm 20,9 km/h (4 Bft) W 270 1 min 0,8 C 53,6 km/h (7 Bft)
22.02.2016 13:55 16,7 C 19,0 C 34 % 1014,4 hPa 0,0 mm 20,6 km/h (4 Bft) W-SW 247 1 min 0,8 C 31,6 km/h (5 Bft)
22.02.2016 13:56 16,7 C 19,0 C 34 % 1014,4 hPa 0,0 mm 20,6 km/h (4 Bft) W-SW 247 1 min 0,8 C 31,6 km/h (5 Bft)
22.02.2016 13:57 16,7 C 19,0 C 35 % 1014,4 hPa 0,0 mm 20,3 km/h (4 Bft) W 270 1 min 1,2 C 26,2 km/h (4 Bft)
22.02.2016 13:58 16,7 C 19,0 C 35 % 1014,4 hPa 0,0 mm 20,3 km/h (4 Bft) W 270 1 min 1,2 C 26,2 km/h (4 Bft)
22.02.2016 13:59 16,7 C 19,1 C 34 % 1014,4 hPa 0,0 mm 19,4 km/h (3 Bft) W 270 1 min 0,8 C 16,4 km/h (3 Bft)
22.02.2016 14:00 16,7 C 19,1 C 34 % 1014,4 hPa 0,0 mm 19,4 km/h (3 Bft) W 270 1 min 0,8 C 16,4 km/h (3 Bft)
22.02.2016 14:01 16,8 C 19,1 C 34 % 1014,4 hPa 0,0 mm 19,1 km/h (3 Bft) SW 225 1 min 0,9 C 14,6 km/h (3 Bft)
22.02.2016 14:02 16,8 C 19,1 C 34 % 1014,4 hPa 0,0 mm 19,1 km/h (3 Bft) SW 225 1 min 0,9 C 14,6 km/h (3 Bft)
22.02.2016 14:03 16,8 C 19,1 C 34 % 1013,9 hPa 0,0 mm 19,4 km/h (3 Bft) SW 225 1 min 0,9 C 18,2 km/h (3 Bft)
22.02.2016 14:04 16,8 C 19,1 C 34 % 1013,9 hPa 0,0 mm 19,4 km/h (3 Bft) SW 225 1 min 0,9 C 18,2 km/h (3 Bft)
22.02.2016 14:05 16,7 C 19,2 C 34 % 1013,9 hPa 0,0 mm 19,4 km/h (3 Bft) NW 315 1 min 0,8 C 25,9 km/h (4 Bft)
22.02.2016 14:06 16,7 C 19,2 C 34 % 1013,9 hPa 0,0 mm 19,4 km/h (3 Bft) NW 315 1 min 0,8 C 25,9 km/h (4 Bft)
22.02.2016 14:07 16,5 C 19,1 C 34 % 1013,9 hPa 0,0 mm 19,7 km/h (3 Bft) W 270 1 min 0,6 C 18,5 km/h (3 Bft)
22.02.2016 14:08 16,5 C 19,1 C 34 % 1013,9 hPa 0,0 mm 19,7 km/h (3 Bft) W 270 1 min 0,6 C 18,5 km/h (3 Bft)
22.02.2016 14:09 16,7 C 19,1 C 34 % 1013,9 hPa 0,0 mm 18,2 km/h (3 Bft) W-SW 247 1 min 0,8 C 28,6 km/h (4 Bft)
22.02.2016 14:10 16,7 C 19,1 C 34 % 1013,9 hPa 0,0 mm 18,2 km/h (3 Bft) W-SW 247 1 min 0,8 C 28,6 km/h (4 Bft)
22.02.2016 14:11 16,7 C 19,1 C 34 % 1013,9 hPa 0,0 mm 19,4 km/h (3 Bft) NW 315 1 min 0,8 C 26,8 km/h (4 Bft)
22.02.2016 14:12 16,7 C 19,1 C 34 % 1013,9 hPa 0,0 mm 19,4 km/h (3 Bft) NW 315 1 min 0,8 C 26,8 km/h (4 Bft)
22.02.2016 14:13 16,7 C 19,2 C 34 % 1013,9 hPa 0,0 mm 17,6 km/h (3 Bft) NW 315 1 min 0,8 C 9,5 km/h (2 Bft)
22.02.2016 14:14 16,7 C 19,2 C 34 % 1013,9 hPa 0,0 mm 17,6 km/h (3 Bft) NW 315 1 min 0,8 C 9,5 km/h (2 Bft)
22.02.2016 14:15 16,8 C 19,3 C 34 % 1013,9 hPa 0,0 mm 18,2 km/h (3 Bft) W-SW 247 1 min 0,9 C 24,7 km/h (4 Bft)
22.02.2016 14:16 16,8 C 19,3 C 34 % 1013,9 hPa 0,0 mm 18,2 km/h (3 Bft) W-SW 247 1 min 0,9 C 24,7 km/h (4 Bft)
22.02.2016 14:17 16,8 C 19,3 C 34 % 1013,9 hPa 0,0 mm 17,3 km/h (3 Bft) W-SW 247 1 min 0,9 C 15,5 km/h (3 Bft)
22.02.2016 14:18 16,8 C 19,3 C 34 % 1013,9 hPa 0,0 mm 17,3 km/h (3 Bft) W-SW 247 1 min 0,9 C 15,5 km/h (3 Bft)
22.02.2016 14:19 16,8 C 19,3 C 34 % 1013,9 hPa 0,0 mm 18,2 km/h (3 Bft) W-SW 247 1 min 0,9 C 28,0 km/h (4 Bft)
22.02.2016 14:20 16,8 C 19,3 C 34 % 1013,9 hPa 0,0 mm 18,2 km/h (3 Bft) W-SW 247 1 min 0,9 C 28,0 km/h (4 Bft)
22.02.2016 14:21 16,8 C 19,3 C 34 % 1013,9 hPa 0,0 mm 17,6 km/h (3 Bft) W-SW 247 1 min 0,9 C 20,3 km/h (4 Bft)
22.02.2016 14:22 16,8 C 19,3 C 34 % 1013,9 hPa 0,0 mm 17,6 km/h (3 Bft) W-SW 247 1 min 0,9 C 20,3 km/h (4 Bft)
22.02.2016 14:23 16,8 C 19,3 C 34 % 1013,3 hPa 0,0 mm 17,6 km/h (3 Bft) W-NW 292 1 min 0,9 C 17,6 km/h (3 Bft)
22.02.2016 14:24 16,8 C 19,3 C 34 % 1013,3 hPa 0,0 mm 17,6 km/h (3 Bft) W-NW 292 1 min 0,9 C 17,6 km/h (3 Bft)
22.02.2016 14:25 16,8 C 19,3 C 34 % 1013,3 hPa 0,0 mm 17,6 km/h (3 Bft) W 270 1 min 0,9 C 23,8 km/h (4 Bft)
22.02.2016 14:26 16,8 C 19,3 C 34 % 1013,3 hPa 0,0 mm 17,6 km/h (3 Bft) W 270 1 min 0,9 C 23,8 km/h (4 Bft)
22.02.2016 14:27 16,8 C 19,3 C 33 % 1013,3 hPa 0,0 mm 18,2 km/h (3 Bft) W 270 1 min 0,4 C 26,2 km/h (4 Bft)
22.02.2016 14:28 16,8 C 19,3 C 33 % 1013,3 hPa 0,0 mm 18,2 km/h (3 Bft) W 270 1 min 0,4 C 26,2 km/h (4 Bft)
22.02.2016 14:29 16,6 C 19,2 C 33 % 1013,3 hPa 0,0 mm 20,3 km/h (4 Bft) W 270 1 min 0,3 C 20,3 km/h (4 Bft)
22.02.2016 14:30 16,6 C 19,2 C 33 % 1013,3 hPa 0,0 mm 20,3 km/h (4 Bft) W 270 1 min 0,3 C 20,3 km/h (4 Bft)
22.02.2016 14:31 16,4 C 18,9 C 33 % 1013,3 hPa 0,0 mm 20,0 km/h (4 Bft) W-NW 292 1 min 0,1 C 26,5 km/h (4 Bft)
22.02.2016 14:32 16,4 C 18,9 C 33 % 1013,3 hPa 0,0 mm 20,0 km/h (4 Bft) W-NW 292 1 min 0,1 C 26,5 km/h (4 Bft)
22.02.2016 14:33 16,2 C 18,7 C 33 % 1013,3 hPa 0,0 mm 20,9 km/h (4 Bft) N-NW 337 1 min -0,1 C 38,1 km/h (5 Bft)
22.02.2016 14:34 16,2 C 18,7 C 33 % 1013,3 hPa 0,0 mm 20,9 km/h (4 Bft) N-NW 337 1 min -0,1 C 38,1 km/h (5 Bft)
22.02.2016 14:35 16,2 C 18,5 C 33 % 1013,3 hPa 0,0 mm 20,3 km/h (4 Bft) W 270 1 min -0,1 C 18,5 km/h (3 Bft)
22.02.2016 14:36 16,2 C 18,5 C 33 % 1013,3 hPa 0,0 mm 20,3 km/h (4 Bft) W 270 1 min -0,1 C 18,5 km/h (3 Bft)
22.02.2016 14:37 16,1 C 18,3 C 34 % 1013,3 hPa 0,0 mm 19,1 km/h (3 Bft) W 270 1 min 0,2 C 12,2 km/h (2 Bft)
22.02.2016 14:38 16,1 C 18,3 C 34 % 1013,3 hPa 0,0 mm 19,1 km/h (3 Bft) W 270 1 min 0,2 C 12,2 km/h (2 Bft)
22.02.2016 14:39 16,0 C 18,1 C 34 % 1013,3 hPa 0,0 mm 18,2 km/h (3 Bft) W 270 1 min 0,2 C 14,6 km/h (3 Bft)
22.02.2016 14:41 16,0 C 17,9 C 34 % 1013,3 hPa 0,0 mm 17,6 km/h (3 Bft) W-SW 247 0 min 0,2 C 28,0 km/h (4 Bft)
22.02.2016 14:42 16,0 C 17,9 C 34 % 1013,3 hPa 0,0 mm 17,6 km/h (3 Bft) W-SW 247 0 min 0,2 C 28,0 km/h (4 Bft)
22.02.2016 14:43 15,8 C 17,8 C 32 % 1013,1 hPa 0,0 mm 17,3 km/h (3 Bft) W-SW 247 1 min -0,9 C 15,2 km/h (3 Bft)
22.02.2016 14:44 15,8 C 17,8 C 32 % 1013,1 hPa 0,0 mm 17,3 km/h (3 Bft) W-SW 247 1 min -0,9 C 15,2 km/h (3 Bft)
22.02.2016 14:45 15,7 C 17,5 C 32 % 1013,1 hPa 0,0 mm 16,1 km/h (3 Bft) W 270 0 min -0,9 C 24,7 km/h (4 Bft)
22.02.2016 14:46 15,7 C 17,5 C 32 % 1013,1 hPa 0,0 mm 16,1 km/h (3 Bft) W 270 0 min -0,9 C 24,7 km/h (4 Bft)
22.02.2016 14:47 15,7 C 17,3 C 33 % 1013,1 hPa 0,0 mm 17,0 km/h (3 Bft) O-SO 112 0 min -0,5 C 21,2 km/h (4 Bft)
22.02.2016 14:48 15,7 C 17,3 C 33 % 1013,1 hPa 0,0 mm 17,0 km/h (3 Bft) O-SO 112 0 min -0,5 C 21,2 km/h (4 Bft)
22.02.2016 14:49 15,7 C 17,3 C 32 % 1013,1 hPa 0,0 mm 18,5 km/h (3 Bft) W-SW 247 0 min -0,9 C 31,3 km/h (5 Bft)
22.02.2016 14:50 15,7 C 17,3 C 32 % 1013,1 hPa 0,0 mm 18,5 km/h (3 Bft) W-SW 247 0 min -0,9 C 31,3 km/h (5 Bft)
22.02.2016 14:51 15,7 C 17,2 C 32 % 1013,1 hPa 0,0 mm 18,8 km/h (3 Bft) W 270 0 min -0,9 C 27,1 km/h (4 Bft)
22.02.2016 14:52 15,7 C 17,2 C 32 % 1013,1 hPa 0,0 mm 18,8 km/h (3 Bft) W 270 0 min -0,9 C 27,1 km/h (4 Bft)
22.02.2016 14:53 15,7 C 17,1 C 32 % 1013,1 hPa 0,0 mm 17,6 km/h (3 Bft) SW 225 0 min -0,9 C 29,8 km/h (5 Bft)
22.02.2016 14:54 15,7 C 17,1 C 32 % 1013,1 hPa 0,0 mm 17,6 km/h (3 Bft) SW 225 0 min -0,9 C 29,8 km/h (5 Bft)
22.02.2016 14:55 15,5 C 17,0 C 32 % 1013,1 hPa 0,0 mm 18,2 km/h (3 Bft) W 270 0 min -1,1 C 15,5 km/h (3 Bft)
22.02.2016 14:56 15,5 C 16,9 C 32 % 1013,1 hPa 0,0 mm 18,2 km/h (3 Bft) W 270 0 min -1,1 C 15,5 km/h (3 Bft)
22.02.2016 14:57 15,4 C 16,6 C 32 % 1013,1 hPa 0,0 mm 20,3 km/h (4 Bft) W-SW 247 0 min -1,2 C 25,6 km/h (4 Bft)
22.02.2016 14:58 15,4 C 16,4 C 32 % 1013,1 hPa 0,0 mm 20,3 km/h (4 Bft) W-SW 247 0 min -1,2 C 25,6 km/h (4 Bft)
22.02.2016 14:59 15,3 C 16,3 C 32 % 1013,1 hPa 0,0 mm 20,9 km/h (4 Bft) W-NW 292 0 min -1,3 C 43,5 km/h (6 Bft)
22.02.2016 15:00 15,3 C 16,1 C 32 % 1013,1 hPa 0,0 mm 20,9 km/h (4 Bft) W-NW 292 0 min -1,3 C 43,5 km/h (6 Bft)
22.02.2016 15:01 15,1 C 15,9 C 31 % 1013,1 hPa 0,0 mm 21,5 km/h (4 Bft) W-SW 247 0 min -1,9 C 17,6 km/h (3 Bft)
22.02.2016 15:02 15,1 C 15,6 C 31 % 1013,1 hPa 0,0 mm 21,5 km/h (4 Bft) W-SW 247 0 min -1,9 C 17,6 km/h (3 Bft)
22.02.2016 15:03 15,0 C 15,5 C 32 % 1012,8 hPa 0,0 mm 21,8 km/h (4 Bft) W-NW 292 0 min -1,5 C 22,1 km/h (4 Bft)
22.02.2016 15:04 15,0 C 15,3 C 32 % 1012,8 hPa 0,0 mm 21,8 km/h (4 Bft) W-NW 292 0 min -1,5 C 22,1 km/h (4 Bft)
22.02.2016 15:05 14,9 C 15,4 C 32 % 1012,8 hPa 0,0 mm 21,5 km/h (4 Bft) W 270 0 min -1,6 C 15,2 km/h (3 Bft)
22.02.2016 15:06 14,9 C 15,2 C 32 % 1012,8 hPa 0,0 mm 21,5 km/h (4 Bft) W 270 0 min -1,6 C 15,2 km/h (3 Bft)
22.02.2016 15:07 14,9 C 15,2 C 32 % 1012,8 hPa 0,0 mm 21,5 km/h (4 Bft) W 270 0 min -1,6 C 17,0 km/h (3 Bft)
22.02.2016 15:08 14,9 C 15,0 C 32 % 1012,8 hPa 0,0 mm 21,5 km/h (4 Bft) W 270 0 min -1,6 C 17,0 km/h (3 Bft)
22.02.2016 15:09 14,8 C 15,1 C 32 % 1012,8 hPa 0,0 mm 20,0 km/h (4 Bft) NO 45 0 min -1,7 C 18,2 km/h (3 Bft)
22.02.2016 15:10 14,8 C 14,9 C 32 % 1012,8 hPa 0,0 mm 20,0 km/h (4 Bft) NO 45 0 min -1,7 C 18,2 km/h (3 Bft)
22.02.2016 15:11 14,8 C 14,9 C 32 % 1012,8 hPa 0,0 mm 17,0 km/h (3 Bft) W 270 0 min -1,7 C 11,9 km/h (2 Bft)
22.02.2016 15:12 14,8 C 14,9 C 32 % 1012,8 hPa 0,0 mm 17,0 km/h (3 Bft) W 270 0 min -1,7 C 11,9 km/h (2 Bft)
22.02.2016 15:13 14,8 C 15,0 C 32 % 1012,8 hPa 0,0 mm 16,4 km/h (3 Bft) NW 315 0 min -1,7 C 13,1 km/h (3 Bft)
22.02.2016 15:14 14,8 C 15,0 C 32 % 1012,8 hPa 0,0 mm 16,4 km/h (3 Bft) NW 315 0 min -1,7 C 13,1 km/h (3 Bft)
22.02.2016 15:15 14,8 C 15,1 C 33 % 1012,8 hPa 0,0 mm 15,5 km/h (3 Bft) W-NW 292 0 min -1,3 C 14,9 km/h (3 Bft)
22.02.2016 15:16 14,8 C 15,1 C 33 % 1012,8 hPa 0,0 mm 15,5 km/h (3 Bft) W-NW 292 0 min -1,3 C 14,9 km/h (3 Bft)
22.02.2016 15:17 14,8 C 15,2 C 33 % 1012,8 hPa 0,0 mm 14,0 km/h (3 Bft) W 270 0 min -1,3 C 11,3 km/h (2 Bft)
22.02.2016 15:18 14,8 C 15,2 C 33 % 1012,8 hPa 0,0 mm 14,0 km/h (3 Bft) W 270 0 min -1,3 C 11,3 km/h (2 Bft)
22.02.2016 15:19 14,7 C 15,2 C 33 % 1012,8 hPa 0,0 mm 12,5 km/h (3 Bft) W-SW 247 0 min -1,4 C 11,9 km/h (2 Bft)
22.02.2016 15:20 14,7 C 15,2 C 33 % 1012,8 hPa 0,0 mm 12,5 km/h (3 Bft) W-SW 247 0 min -1,4 C 11,9 km/h (2 Bft)
22.02.2016 15:21 14,7 C 15,2 C 33 % 1012,8 hPa 0,0 mm 11,0 km/h (2 Bft) W 270 0 min -1,4 C 9,8 km/h (2 Bft)
22.02.2016 15:22 14,7 C 15,2 C 33 % 1012,8 hPa 0,0 mm 11,0 km/h (2 Bft) W 270 0 min -1,4 C 9,8 km/h (2 Bft)
22.02.2016 15:23 14,7 C 15,2 C 34 % 1012,5 hPa 0,0 mm 10,1 km/h (2 Bft) SO 135 0 min -1,0 C 14,0 km/h (3 Bft)
22.02.2016 15:24 14,7 C 15,2 C 34 % 1012,5 hPa 0,0 mm 10,1 km/h (2 Bft) SO 135 0 min -1,0 C 14,0 km/h (3 Bft)
22.02.2016 15:25 14,7 C 15,3 C 34 % 1012,5 hPa 0,0 mm 9,5 km/h (2 Bft) S-SW 202 0 min -1,0 C 7,7 km/h (2 Bft)
22.02.2016 15:26 14,7 C 15,3 C 34 % 1012,5 hPa 0,0 mm 9,5 km/h (2 Bft) S-SW 202 0 min -1,0 C 7,7 km/h (2 Bft)
22.02.2016 15:27 14,7 C 15,3 C 34 % 1012,5 hPa 0,0 mm 10,1 km/h (2 Bft) W-SW 247 0 min -1,0 C 11,9 km/h (2 Bft)
22.02.2016 15:28 14,7 C 15,3 C 34 % 1012,5 hPa 0,0 mm 10,1 km/h (2 Bft) W-SW 247 0 min -1,0 C 11,9 km/h (2 Bft)
22.02.2016 15:29 14,7 C 15,4 C 34 % 1012,5 hPa 0,0 mm 10,1 km/h (2 Bft) W-SW 247 0 min -1,0 C 17,3 km/h (3 Bft)
22.02.2016 15:30 14,7 C 15,4 C 34 % 1012,5 hPa 0,0 mm 10,1 km/h (2 Bft) W-SW 247 0 min -1,0 C 17,3 km/h (3 Bft)
22.02.2016 15:31 14,8 C 15,4 C 34 % 1012,5 hPa 0,0 mm 11,0 km/h (2 Bft) W 270 0 min -0,9 C 33,4 km/h (5 Bft)
22.02.2016 15:32 14,8 C 15,4 C 34 % 1012,5 hPa 0,0 mm 11,0 km/h (2 Bft) W 270 0 min -0,9 C 33,4 km/h (5 Bft)
22.02.2016 15:33 14,8 C 15,4 C 34 % 1012,5 hPa 0,0 mm 12,2 km/h (2 Bft) S-SW 202 0 min -0,9 C 8,3 km/h (2 Bft)
22.02.2016 15:34 14,8 C 15,4 C 34 % 1012,5 hPa 0,0 mm 12,2 km/h (2 Bft) S-SW 202 0 min -0,9 C 8,3 km/h (2 Bft)
22.02.2016 15:35 14,8 C 15,5 C 34 % 1012,5 hPa 0,0 mm 11,9 km/h (2 Bft) W-SW 247 0 min -0,9 C 7,2 km/h (2 Bft)
22.02.2016 15:36 14,8 C 15,5 C 34 % 1012,5 hPa 0,0 mm 11,9 km/h (2 Bft) W-SW 247 0 min -0,9 C 7,2 km/h (2 Bft)
22.02.2016 15:37 14,8 C 15,6 C 34 % 1012,5 hPa 0,0 mm 11,0 km/h (2 Bft) W-NW 292 0 min -0,9 C 8,3 km/h (2 Bft)
22.02.2016 15:38 14,8 C 15,6 C 34 % 1012,5 hPa 0,0 mm 11,0 km/h (2 Bft) W-NW 292 0 min -0,9 C 8,3 km/h (2 Bft)
22.02.2016 15:39 14,9 C 15,6 C 34 % 1012,5 hPa 0,0 mm 10,7 km/h (2 Bft) W-SW 247 0 min -0,8 C 9,5 km/h (2 Bft)
22.02.2016 15:40 14,9 C 15,6 C 34 % 1012,5 hPa 0,0 mm 10,7 km/h (2 Bft) W-SW 247 0 min -0,8 C 9,5 km/h (2 Bft)
22.02.2016 15:41 14,9 C 15,7 C 35 % 1012,5 hPa 0,0 mm 10,1 km/h (2 Bft) W-NW 292 0 min -0,4 C 10,1 km/h (2 Bft)
22.02.2016 15:42 14,9 C 15,7 C 35 % 1012,5 hPa 0,0 mm 10,1 km/h (2 Bft) W-NW 292 0 min -0,4 C 10,1 km/h (2 Bft)
22.02.2016 15:43 15,0 C 15,8 C 35 % 1012,2 hPa 0,0 mm 8,3 km/h (2 Bft) SW 225 0 min -0,3 C 17,0 km/h (3 Bft)
22.02.2016 15:44 15,0 C 15,8 C 35 % 1012,2 hPa 0,0 mm 8,3 km/h (2 Bft) SW 225 0 min -0,3 C 17,0 km/h (3 Bft)
22.02.2016 15:45 15,0 C 16,0 C 35 % 1012,2 hPa 0,0 mm 8,3 km/h (2 Bft) W-NW 292 0 min -0,3 C 19,1 km/h (3 Bft)
22.02.2016 15:46 15,0 C 16,0 C 35 % 1012,2 hPa 0,0 mm 8,3 km/h (2 Bft) W-NW 292 0 min -0,3 C 19,1 km/h (3 Bft)
22.02.2016 15:47 15,0 C 16,1 C 35 % 1012,2 hPa 0,0 mm 9,2 km/h (2 Bft) W 270 0 min -0,3 C 20,0 km/h (4 Bft)
22.02.2016 15:48 15,0 C 16,1 C 35 % 1012,2 hPa 0,0 mm 9,2 km/h (2 Bft) W 270 0 min -0,3 C 20,0 km/h (4 Bft)
22.02.2016 15:49 15,0 C 16,2 C 35 % 1012,2 hPa 0,0 mm 10,1 km/h (2 Bft) W-SW 247 0 min -0,3 C 14,9 km/h (3 Bft)
22.02.2016 15:50 15,0 C 16,2 C 35 % 1012,2 hPa 0,0 mm 10,1 km/h (2 Bft) W-SW 247 0 min -0,3 C 14,9 km/h (3 Bft)
22.02.2016 15:51 14,9 C 16,1 C 35 % 1012,2 hPa 0,0 mm 10,7 km/h (2 Bft) W-SW 247 0 min -0,4 C 10,1 km/h (2 Bft)
22.02.2016 15:52 14,9 C 16,1 C 35 % 1012,2 hPa 0,0 mm 10,7 km/h (2 Bft) W-SW 247 0 min -0,4 C 10,1 km/h (2 Bft)
22.02.2016 15:53 14,9 C 16,0 C 35 % 1012,2 hPa 0,0 mm 11,0 km/h (2 Bft) SW 225 0 min -0,4 C 7,2 km/h (2 Bft)
22.02.2016 15:54 14,9 C 16,0 C 35 % 1012,2 hPa 0,0 mm 11,0 km/h (2 Bft) SW 225 0 min -0,4 C 7,2 km/h (2 Bft)
22.02.2016 15:55 14,9 C 15,8 C 35 % 1012,2 hPa 0,0 mm 11,6 km/h (2 Bft) W-SW 247 0 min -0,4 C 19,4 km/h (3 Bft)
22.02.2016 15:56 14,9 C 15,8 C 35 % 1012,2 hPa 0,0 mm 11,6 km/h (2 Bft) W-SW 247 0 min -0,4 C 19,4 km/h (3 Bft)
22.02.2016 15:57 14,8 C 15,7 C 35 % 1012,2 hPa 0,0 mm 11,3 km/h (2 Bft) W-SW 247 0 min -0,5 C 15,8 km/h (3 Bft)
22.02.2016 15:58 14,8 C 15,7 C 35 % 1012,2 hPa 0,0 mm 11,3 km/h (2 Bft) W-SW 247 0 min -0,5 C 15,8 km/h (3 Bft)
22.02.2016 15:59 14,7 C 15,5 C 35 % 1012,2 hPa 0,0 mm 10,4 km/h (2 Bft) W 270 0 min -0,6 C 9,8 km/h (2 Bft)
22.02.2016 16:00 14,7 C 15,5 C 35 % 1012,2 hPa 0,0 mm 10,4 km/h (2 Bft) W 270 0 min -0,6 C 9,8 km/h (2 Bft)
22.02.2016 16:01 14,6 C 15,4 C 36 % 1012,2 hPa 0,0 mm 9,8 km/h (2 Bft) W-NW 292 0 min -0,3 C 6,0 km/h (2 Bft)
22.02.2016 16:02 14,6 C 15,4 C 36 % 1012,2 hPa 0,0 mm 9,8 km/h (2 Bft) W-NW 292 0 min -0,3 C 6,0 km/h (2 Bft)
22.02.2016 16:03 14,6 C 15,2 C 35 % 1012,2 hPa 0,0 mm 11,0 km/h (2 Bft) NW 315 0 min -0,7 C 27,4 km/h (4 Bft)
22.02.2016 16:04 14,6 C 15,2 C 35 % 1012,2 hPa 0,0 mm 11,0 km/h (2 Bft) NW 315 0 min -0,7 C 27,4 km/h (4 Bft)
22.02.2016 16:05 14,5 C 15,1 C 35 % 1012,2 hPa 0,0 mm 11,9 km/h (2 Bft) W-SW 247 0 min -0,8 C 18,8 km/h (3 Bft)
22.02.2016 16:06 14,5 C 15,1 C 35 % 1012,2 hPa 0,0 mm 11,9 km/h (2 Bft) W-SW 247 0 min -0,8 C 18,8 km/h (3 Bft)
22.02.2016 16:07 14,4 C 15,0 C 35 % 1012,2 hPa 0,0 mm 11,9 km/h (2 Bft) W 270 0 min -0,9 C 18,2 km/h (3 Bft)
22.02.2016 16:08 14,4 C 15,0 C 35 % 1012,2 hPa 0,0 mm 11,9 km/h (2 Bft) W 270 0 min -0,9 C 18,2 km/h (3 Bft)
22.02.2016 16:09 14,4 C 14,9 C 35 % 1012,2 hPa 0,0 mm 12,2 km/h (2 Bft) W 270 0 min -0,9 C 17,6 km/h (3 Bft)
22.02.2016 16:10 14,4 C 14,9 C 35 % 1012,2 hPa 0,0 mm 12,2 km/h (2 Bft) W 270 0 min -0,9 C 17,6 km/h (3 Bft)
22.02.2016 16:11 14,3 C 14,8 C 35 % 1012,2 hPa 0,0 mm 12,8 km/h (3 Bft) SW 225 0 min -0,9 C 18,8 km/h (3 Bft)
22.02.2016 16:12 14,3 C 14,8 C 35 % 1012,2 hPa 0,0 mm 12,8 km/h (3 Bft) SW 225 0 min -0,9 C 18,8 km/h (3 Bft)
22.02.2016 16:13 14,3 C 14,7 C 36 % 1012,2 hPa 0,0 mm 12,8 km/h (3 Bft) NW 315 0 min -0,6 C 12,8 km/h (3 Bft)
22.02.2016 16:14 14,3 C 14,7 C 36 % 1012,2 hPa 0,0 mm 12,8 km/h (3 Bft) NW 315 0 min -0,6 C 12,8 km/h (3 Bft)
22.02.2016 16:15 14,3 C 14,7 C 35 % 1012,2 hPa 0,0 mm 12,2 km/h (2 Bft) O-NO 67 0 min -0,9 C 17,9 km/h (3 Bft)
22.02.2016 16:16 14,3 C 14,7 C 35 % 1012,2 hPa 0,0 mm 12,2 km/h (2 Bft) O-NO 67 0 min -0,9 C 17,9 km/h (3 Bft)
22.02.2016 16:17 14,3 C 14,5 C 35 % 1012,2 hPa 0,0 mm 13,7 km/h (3 Bft) W-SW 247 0 min -0,9 C 21,8 km/h (4 Bft)
22.02.2016 16:18 14,3 C 14,5 C 35 % 1012,2 hPa 0,0 mm 13,7 km/h (3 Bft) W-SW 247 0 min -0,9 C 21,8 km/h (4 Bft)
22.02.2016 16:19 14,3 C 14,5 C 35 % 1012,2 hPa 0,0 mm 13,7 km/h (3 Bft) W-SW 247 0 min -0,9 C 17,3 km/h (3 Bft)
22.02.2016 16:20 14,3 C 14,5 C 35 % 1012,2 hPa 0,0 mm 13,7 km/h (3 Bft) W-SW 247 0 min -0,9 C 17,3 km/h (3 Bft)
22.02.2016 16:21 14,2 C 14,4 C 35 % 1012,2 hPa 0,0 mm 12,8 km/h (3 Bft) SW 225 0 min -1,0 C 6,0 km/h (2 Bft)
22.02.2016 16:22 14,2 C 14,4 C 35 % 1012,2 hPa 0,0 mm 12,8 km/h (3 Bft) SW 225 0 min -1,0 C 6,0 km/h (2 Bft)
22.02.2016 16:23 14,1 C 14,3 C 35 % 1011,8 hPa 0,0 mm 12,5 km/h (3 Bft) SW 225 0 min -1,1 C 10,1 km/h (2 Bft)
22.02.2016 16:24 14,1 C 14,3 C 35 % 1011,8 hPa 0,0 mm 12,5 km/h (3 Bft) SW 225 0 min -1,1 C 10,1 km/h (2 Bft)
22.02.2016 16:25 14,0 C 14,4 C 36 % 1011,8 hPa 0,0 mm 10,4 km/h (2 Bft) W 270 0 min -0,8 C 6,0 km/h (2 Bft)
22.02.2016 16:26 14,0 C 14,4 C 36 % 1011,8 hPa 0,0 mm 10,4 km/h (2 Bft) W 270 0 min -0,8 C 6,0 km/h (2 Bft)
22.02.2016 16:27 14,0 C 14,3 C 36 % 1011,8 hPa 0,0 mm 9,5 km/h (2 Bft) W-SW 247 0 min -0,8 C 3,9 km/h (1 Bft)
22.02.2016 16:28 14,0 C 14,3 C 36 % 1011,8 hPa 0,0 mm 9,5 km/h (2 Bft) W-SW 247 0 min -0,8 C 3,9 km/h (1 Bft)
22.02.2016 16:29 13,9 C 14,2 C 36 % 1011,8 hPa 0,0 mm 7,7 km/h (2 Bft) S-SW 202 0 min -0,9 C 11,0 km/h (2 Bft)
22.02.2016 16:30 13,9 C 14,2 C 36 % 1011,8 hPa 0,0 mm 7,7 km/h (2 Bft) S-SW 202 0 min -0,9 C 11,0 km/h (2 Bft)
22.02.2016 16:31 13,9 C 14,2 C 36 % 1011,8 hPa 0,0 mm 8,0 km/h (2 Bft) W 270 0 min -0,9 C 19,4 km/h (3 Bft)
22.02.2016 16:32 13,9 C 14,2 C 36 % 1011,8 hPa 0,0 mm 8,0 km/h (2 Bft) W 270 0 min -0,9 C 19,4 km/h (3 Bft)
22.02.2016 16:33 13,9 C 14,2 C 36 % 1011,8 hPa 0,0 mm 8,6 km/h (2 Bft) W-NW 292 0 min -0,9 C 11,3 km/h (2 Bft)
22.02.2016 16:34 13,9 C 14,2 C 36 % 1011,8 hPa 0,0 mm 8,6 km/h (2 Bft) W-NW 292 0 min -0,9 C 11,3 km/h (2 Bft)
22.02.2016 16:35 13,8 C 14,1 C 36 % 1011,8 hPa 0,0 mm 9,2 km/h (2 Bft) W-SW 247 0 min -1,0 C 14,9 km/h (3 Bft)
22.02.2016 16:36 13,8 C 14,1 C 36 % 1011,8 hPa 0,0 mm 9,2 km/h (2 Bft) W-SW 247 0 min -1,0 C 14,9 km/h (3 Bft)
22.02.2016 16:37 13,8 C 14,0 C 36 % 1011,8 hPa 0,0 mm 10,1 km/h (2 Bft) SW 225 0 min -1,0 C 15,5 km/h (3 Bft)
22.02.2016 16:38 13,8 C 14,0 C 36 % 1011,8 hPa 0,0 mm 10,1 km/h (2 Bft) SW 225 0 min -1,0 C 15,5 km/h (3 Bft)
22.02.2016 16:39 13,8 C 14,0 C 36 % 1011,8 hPa 0,0 mm 10,7 km/h (2 Bft) W-SW 247 0 min -1,0 C 15,2 km/h (3 Bft)
22.02.2016 16:40 13,8 C 14,0 C 36 % 1011,8 hPa 0,0 mm 10,7 km/h (2 Bft) W-SW 247 0 min -1,0 C 15,2 km/h (3 Bft)
22.02.2016 16:41 13,8 C 13,9 C 36 % 1011,8 hPa 0,0 mm 10,4 km/h (2 Bft) SW 225 0 min -1,0 C 7,5 km/h (2 Bft)
22.02.2016 16:42 13,8 C 13,9 C 36 % 1011,8 hPa 0,0 mm 10,4 km/h (2 Bft) SW 225 0 min -1,0 C 7,5 km/h (2 Bft)
22.02.2016 16:43 13,6 C 13,9 C 36 % 1011,4 hPa 0,0 mm 9,8 km/h (2 Bft) W-SW 247 0 min -1,2 C 9,5 km/h (2 Bft)
22.02.2016 16:44 13,6 C 13,9 C 36 % 1011,4 hPa 0,0 mm 9,8 km/h (2 Bft) W-SW 247 0 min -1,2 C 9,5 km/h (2 Bft)
22.02.2016 16:45 13,5 C 13,8 C 37 % 1011,4 hPa 0,0 mm 10,4 km/h (2 Bft) NW 315 0 min -0,9 C 9,8 km/h (2 Bft)
22.02.2016 16:46 13,5 C 13,8 C 37 % 1011,4 hPa 0,0 mm 10,4 km/h (2 Bft) NW 315 0 min -0,9 C 9,8 km/h (2 Bft)
22.02.2016 16:47 13,5 C 13,8 C 37 % 1011,4 hPa 0,0 mm 9,8 km/h (2 Bft) W-SW 247 0 min -0,9 C 8,3 km/h (2 Bft)
22.02.2016 16:48 13,5 C 13,8 C 37 % 1011,4 hPa 0,0 mm 9,8 km/h (2 Bft) W-SW 247 0 min -0,9 C 8,3 km/h (2 Bft)
22.02.2016 16:49 13,6 C 13,7 C 36 % 1011,4 hPa 0,0 mm 9,8 km/h (2 Bft) W-SW 247 0 min -1,2 C 17,3 km/h (3 Bft)
22.02.2016 16:50 13,6 C 13,7 C 36 % 1011,4 hPa 0,0 mm 9,8 km/h (2 Bft) W-SW 247 0 min -1,2 C 17,3 km/h (3 Bft)
22.02.2016 16:51 13,5 C 13,7 C 37 % 1011,4 hPa 0,0 mm 10,1 km/h (2 Bft) NW 315 0 min -0,9 C 16,1 km/h (3 Bft)
22.02.2016 16:52 13,5 C 13,7 C 37 % 1011,4 hPa 0,0 mm 10,1 km/h (2 Bft) NW 315 0 min -0,9 C 16,1 km/h (3 Bft)
22.02.2016 16:53 13,5 C 13,6 C 37 % 1011,4 hPa 0,0 mm 10,1 km/h (2 Bft) S 180 0 min -0,9 C 13,7 km/h (3 Bft)
22.02.2016 16:54 13,5 C 13,6 C 37 % 1011,4 hPa 0,0 mm 10,1 km/h (2 Bft) S 180 0 min -0,9 C 13,7 km/h (3 Bft)
22.02.2016 16:55 13,4 C 13,5 C 37 % 1011,4 hPa 0,0 mm 10,7 km/h (2 Bft) W-SW 247 0 min -1,0 C 16,4 km/h (3 Bft)
22.02.2016 16:56 13,4 C 13,5 C 37 % 1011,4 hPa 0,0 mm 10,7 km/h (2 Bft) W-SW 247 0 min -1,0 C 16,4 km/h (3 Bft)
22.02.2016 16:57 13,5 C 13,5 C 36 % 1011,4 hPa 0,0 mm 11,9 km/h (2 Bft) W 270 0 min -1,3 C 15,5 km/h (3 Bft)
22.02.2016 16:58 13,5 C 13,5 C 36 % 1011,4 hPa 0,0 mm 11,9 km/h (2 Bft) W 270 0 min -1,3 C 15,5 km/h (3 Bft)
22.02.2016 16:59 13,4 C 13,4 C 37 % 1011,4 hPa 0,0 mm 11,3 km/h (2 Bft) SW 225 0 min -1,0 C 8,3 km/h (2 Bft)
22.02.2016 17:00 13,4 C 13,4 C 37 % 1011,4 hPa 0,0 mm 11,3 km/h (2 Bft) SW 225 0 min -1,0 C 8,3 km/h (2 Bft)
22.02.2016 17:01 13,2 C 13,5 C 37 % 1011,4 hPa 0,0 mm 10,4 km/h (2 Bft) W 270 0 min -1,2 C 11,6 km/h (2 Bft)
22.02.2016 17:02 13,2 C 13,5 C 37 % 1011,4 hPa 0,0 mm 10,4 km/h (2 Bft) W 270 0 min -1,2 C 11,6 km/h (2 Bft)
22.02.2016 17:03 13,1 C 13,3 C 37 % 1011,4 hPa 0,0 mm 10,7 km/h (2 Bft) W 270 0 min -1,2 C 12,5 km/h (3 Bft)
22.02.2016 17:04 13,1 C 13,3 C 37 % 1011,4 hPa 0,0 mm 10,7 km/h (2 Bft) W 270 0 min -1,2 C 12,5 km/h (3 Bft)
22.02.2016 17:05 13,0 C 13,2 C 37 % 1011,4 hPa 0,0 mm 10,4 km/h (2 Bft) W 270 0 min -1,3 C 14,3 km/h (3 Bft)
22.02.2016 17:06 13,0 C 13,2 C 37 % 1011,4 hPa 0,0 mm 10,4 km/h (2 Bft) W 270 0 min -1,3 C 14,3 km/h (3 Bft)
22.02.2016 17:07 13,0 C 13,2 C 37 % 1011,4 hPa 0,0 mm 10,4 km/h (2 Bft) NW 315 0 min -1,3 C 14,9 km/h (3 Bft)
22.02.2016 17:08 13,0 C 13,2 C 37 % 1011,4 hPa 0,0 mm 10,4 km/h (2 Bft) NW 315 0 min -1,3 C 14,9 km/h (3 Bft)
22.02.2016 17:09 13,1 C 13,1 C 37 % 1011,4 hPa 0,0 mm 9,8 km/h (2 Bft) SW 225 0 min -1,2 C 10,7 km/h (2 Bft)
22.02.2016 17:10 13,1 C 13,1 C 37 % 1011,4 hPa 0,0 mm 9,8 km/h (2 Bft) SW 225 0 min -1,2 C 10,7 km/h (2 Bft)
22.02.2016 17:11 13,1 C 13,1 C 37 % 1011,4 hPa 0,0 mm 10,4 km/h (2 Bft) W 270 0 min -1,2 C 15,8 km/h (3 Bft)
22.02.2016 17:12 13,1 C 13,1 C 37 % 1011,4 hPa 0,0 mm 10,4 km/h (2 Bft) W 270 0 min -1,2 C 15,8 km/h (3 Bft)
22.02.2016 17:13 13,0 C 13,0 C 38 % 1011,4 hPa 0,0 mm 11,0 km/h (2 Bft) W-SW 247 0 min -1,0 C 11,9 km/h (2 Bft)
22.02.2016 17:14 13,0 C 13,0 C 38 % 1011,4 hPa 0,0 mm 11,0 km/h (2 Bft) W-SW 247 0 min -1,0 C 11,9 km/h (2 Bft)
22.02.2016 17:15 13,0 C 12,9 C 38 % 1011,4 hPa 0,0 mm 12,5 km/h (3 Bft) W 270 0 min -1,0 C 16,7 km/h (3 Bft)
22.02.2016 17:16 13,0 C 12,9 C 38 % 1011,4 hPa 0,0 mm 12,5 km/h (3 Bft) W 270 0 min -1,0 C 16,7 km/h (3 Bft)
22.02.2016 17:17 13,0 C 12,9 C 38 % 1011,4 hPa 0,0 mm 12,2 km/h (2 Bft) W-NW 292 0 min -1,0 C 8,3 km/h (2 Bft)
22.02.2016 17:18 13,0 C 12,9 C 38 % 1011,4 hPa 0,0 mm 12,2 km/h (2 Bft) W-NW 292 0 min -1,0 C 8,3 km/h (2 Bft)
22.02.2016 17:19 12,9 C 12,9 C 38 % 1011,4 hPa 0,0 mm 11,0 km/h (2 Bft) W-SW 247 0 min -1,1 C 7,2 km/h (2 Bft)
22.02.2016 17:20 12,9 C 12,9 C 38 % 1011,4 hPa 0,0 mm 11,0 km/h (2 Bft) W-SW 247 0 min -1,1 C 7,2 km/h (2 Bft)
22.02.2016 17:21 12,8 C 12,8 C 38 % 1011,4 hPa 0,0 mm 11,0 km/h (2 Bft) S 180 0 min -1,2 C 16,1 km/h (3 Bft)
22.02.2016 17:22 12,8 C 12,8 C 38 % 1011,4 hPa 0,0 mm 11,0 km/h (2 Bft) S 180 0 min -1,2 C 16,1 km/h (3 Bft)
22.02.2016 17:23 12,7 C 12,7 C 38 % 1011,1 hPa 0,0 mm 10,7 km/h (2 Bft) W 270 0 min -1,2 C 9,8 km/h (2 Bft)
22.02.2016 17:24 12,7 C 12,7 C 38 % 1011,1 hPa 0,0 mm 10,7 km/h (2 Bft) W 270 0 min -1,2 C 9,8 km/h (2 Bft)
22.02.2016 17:25 12,7 C 12,7 C 38 % 1011,1 hPa 0,0 mm 10,7 km/h (2 Bft) W-NW 292 0 min -1,2 C 18,5 km/h (3 Bft)
22.02.2016 17:26 12,7 C 12,7 C 38 % 1011,1 hPa 0,0 mm 10,7 km/h (2 Bft) W-NW 292 0 min -1,2 C 18,5 km/h (3 Bft)
22.02.2016 17:27 12,7 C 12,7 C 38 % 1011,1 hPa 0,0 mm 10,7 km/h (2 Bft) W-NW 292 0 min -1,2 C 11,9 km/h (2 Bft)
22.02.2016 17:28 12,7 C 12,7 C 38 % 1011,1 hPa 0,0 mm 10,7 km/h (2 Bft) W-NW 292 0 min -1,2 C 11,9 km/h (2 Bft)
22.02.2016 17:29 12,6 C 12,6 C 38 % 1011,1 hPa 0,0 mm 11,0 km/h (2 Bft) SW 225 0 min -1,3 C 17,0 km/h (3 Bft)
22.02.2016 17:30 12,6 C 12,6 C 38 % 1011,1 hPa 0,0 mm 11,0 km/h (2 Bft) SW 225 0 min -1,3 C 17,0 km/h (3 Bft)
22.02.2016 17:31 12,5 C 12,5 C 38 % 1011,1 hPa 0,0 mm 11,0 km/h (2 Bft) W 270 0 min -1,4 C 8,3 km/h (2 Bft)
22.02.2016 17:32 12,5 C 12,5 C 38 % 1011,1 hPa 0,0 mm 11,0 km/h (2 Bft) W 270 0 min -1,4 C 8,3 km/h (2 Bft)
22.02.2016 17:33 12,4 C 12,5 C 39 % 1011,1 hPa 0,0 mm 10,7 km/h (2 Bft) W 270 0 min -1,2 C 11,9 km/h (2 Bft)
22.02.2016 17:34 12,4 C 12,5 C 39 % 1011,1 hPa 0,0 mm 10,7 km/h (2 Bft) W 270 0 min -1,2 C 11,9 km/h (2 Bft)
22.02.2016 17:35 12,3 C 12,5 C 39 % 1011,1 hPa 0,0 mm 9,8 km/h (2 Bft) SW 225 0 min -1,2 C 5,7 km/h (1 Bft)
22.02.2016 17:36 12,3 C 12,5 C 39 % 1011,1 hPa 0,0 mm 9,8 km/h (2 Bft) SW 225 0 min -1,2 C 5,7 km/h (1 Bft)
22.02.2016 17:37 12,3 C 12,3 C 39 % 1011,1 hPa 0,0 mm 8,9 km/h (2 Bft) W-SW 247 0 min -1,2 C 5,7 km/h (1 Bft)
22.02.2016 17:38 12,3 C 12,3 C 39 % 1011,1 hPa 0,0 mm 8,9 km/h (2 Bft) W-SW 247 0 min -1,2 C 5,7 km/h (1 Bft)
22.02.2016 17:39 12,2 C 12,3 C 39 % 1011,1 hPa 0,0 mm 8,0 km/h (2 Bft) N-NW 337 0 min -1,3 C 7,5 km/h (2 Bft)
22.02.2016 17:40 12,2 C 12,3 C 39 % 1011,1 hPa 0,0 mm 8,0 km/h (2 Bft) N-NW 337 0 min -1,3 C 7,5 km/h (2 Bft)
22.02.2016 17:41 12,1 C 12,2 C 39 % 1011,1 hPa 0,0 mm 8,0 km/h (2 Bft) W-SW 247 0 min -1,4 C 7,2 km/h (2 Bft)
22.02.2016 17:43 12,0 C 12,1 C 40 % 1010,8 hPa 0,0 mm 8,3 km/h (2 Bft) W-SW 247 0 min -1,2 C 12,2 km/h (2 Bft)
22.02.2016 17:44 12,0 C 12,1 C 40 % 1010,8 hPa 0,0 mm 8,3 km/h (2 Bft) W-SW 247 0 min -1,2 C 12,2 km/h (2 Bft)
22.02.2016 17:45 12,0 C 12,0 C 40 % 1010,8 hPa 0,0 mm 8,0 km/h (2 Bft) W-NW 292 0 min -1,2 C 10,1 km/h (2 Bft)
22.02.2016 17:46 12,0 C 12,0 C 40 % 1010,8 hPa 0,0 mm 8,0 km/h (2 Bft) W-NW 292 0 min -1,2 C 10,1 km/h (2 Bft)
22.02.2016 17:47 12,0 C 12,0 C 41 % 1010,8 hPa 0,0 mm 7,7 km/h (2 Bft) S 180 0 min -0,8 C 11,0 km/h (2 Bft)
22.02.2016 17:48 12,0 C 12,0 C 41 % 1010,8 hPa 0,0 mm 7,7 km/h (2 Bft) S 180 0 min -0,8 C 11,0 km/h (2 Bft)
22.02.2016 17:49 12,1 C 12,0 C 41 % 1010,8 hPa 0,0 mm 8,6 km/h (2 Bft) SW 225 0 min -0,7 C 9,2 km/h (2 Bft)
22.02.2016 17:50 12,1 C 12,0 C 41 % 1010,8 hPa 0,0 mm 8,6 km/h (2 Bft) SW 225 0 min -0,7 C 9,2 km/h (2 Bft)
22.02.2016 17:51 12,0 C 12,0 C 41 % 1010,8 hPa 0,0 mm 8,6 km/h (2 Bft) W 270 0 min -0,8 C 11,3 km/h (2 Bft)
22.02.2016 17:52 12,0 C 12,0 C 41 % 1010,8 hPa 0,0 mm 8,6 km/h (2 Bft) W 270 0 min -0,8 C 11,3 km/h (2 Bft)
22.02.2016 17:53 11,8 C 11,9 C 41 % 1010,8 hPa 0,0 mm 8,6 km/h (2 Bft) W 270 0 min -1,0 C 16,7 km/h (3 Bft)
22.02.2016 17:54 11,8 C 11,9 C 41 % 1010,8 hPa 0,0 mm 8,6 km/h (2 Bft) W 270 0 min -1,0 C 16,7 km/h (3 Bft)
22.02.2016 17:55 11,7 C 11,8 C 41 % 1010,8 hPa 0,0 mm 8,0 km/h (2 Bft) W-SW 247 0 min -1,1 C 8,3 km/h (2 Bft)
22.02.2016 17:56 11,7 C 11,8 C 41 % 1010,8 hPa 0,0 mm 8,0 km/h (2 Bft) W-SW 247 0 min -1,1 C 8,3 km/h (2 Bft)
22.02.2016 17:57 11,7 C 11,7 C 41 % 1010,8 hPa 0,0 mm 8,6 km/h (2 Bft) SW 225 0 min -1,1 C 10,4 km/h (2 Bft)
22.02.2016 17:58 11,7 C 11,7 C 41 % 1010,8 hPa 0,0 mm 8,6 km/h (2 Bft) SW 225 0 min -1,1 C 10,4 km/h (2 Bft)
22.02.2016 17:59 11,7 C 11,7 C 41 % 1010,8 hPa 0,0 mm 8,3 km/h (2 Bft) SW 225 0 min -1,1 C 15,8 km/h (3 Bft)
22.02.2016 18:00 11,7 C 11,7 C 41 % 1010,8 hPa 0,0 mm 8,3 km/h (2 Bft) SW 225 0 min -1,1 C 15,8 km/h (3 Bft)
22.02.2016 18:01 11,7 C 11,7 C 41 % 1010,8 hPa 0,0 mm 8,0 km/h (2 Bft) W-SW 247 0 min -1,1 C 9,2 km/h (2 Bft)
22.02.2016 18:02 11,7 C 11,7 C 41 % 1010,8 hPa 0,0 mm 8,0 km/h (2 Bft) W-SW 247 0 min -1,1 C 9,2 km/h (2 Bft)
22.02.2016 18:03 11,5 C 11,5 C 41 % 1010,9 hPa 0,0 mm 8,0 km/h (2 Bft) W 270 0 min -1,3 C 7,7 km/h (2 Bft)
22.02.2016 18:04 11,5 C 11,5 C 41 % 1010,9 hPa 0,0 mm 8,0 km/h (2 Bft) W 270 0 min -1,3 C 7,7 km/h (2 Bft)
22.02.2016 18:05 11,4 C 11,4 C 41 % 1010,9 hPa 0,0 mm 7,7 km/h (2 Bft) O-SO 112 0 min -1,4 C 11,3 km/h (2 Bft)
22.02.2016 18:06 11,4 C 11,4 C 41 % 1010,9 hPa 0,0 mm 7,7 km/h (2 Bft) O-SO 112 0 min -1,4 C 11,3 km/h (2 Bft)
22.02.2016 18:07 11,3 C 11,3 C 41 % 1010,9 hPa 0,0 mm 7,2 km/h (2 Bft) W 270 0 min -1,5 C 3,3 km/h (1 Bft)
22.02.2016 18:08 11,3 C 11,3 C 41 % 1010,9 hPa 0,0 mm 7,2 km/h (2 Bft) W 270 0 min -1,5 C 3,3 km/h (1 Bft)
22.02.2016 18:09 11,2 C 11,2 C 41 % 1010,9 hPa 0,0 mm 6,9 km/h (2 Bft) W-SW 247 0 min -1,6 C 8,9 km/h (2 Bft)
22.02.2016 18:10 11,2 C 11,2 C 41 % 1010,9 hPa 0,0 mm 6,9 km/h (2 Bft) W-SW 247 0 min -1,6 C 8,9 km/h (2 Bft)
22.02.2016 18:11 11,1 C 11,1 C 41 % 1010,9 hPa 0,0 mm 6,6 km/h (2 Bft) W 270 0 min -1,6 C 12,5 km/h (3 Bft)
22.02.2016 18:12 11,1 C 11,1 C 41 % 1010,9 hPa 0,0 mm 6,6 km/h (2 Bft) W 270 0 min -1,6 C 12,5 km/h (3 Bft)
22.02.2016 18:13 11,4 C 11,3 C 41 % 1010,9 hPa 0,0 mm 8,0 km/h (2 Bft) W-NW 292 0 min -1,4 C 10,7 km/h (2 Bft)
22.02.2016 18:14 11,4 C 11,3 C 41 % 1010,9 hPa 0,0 mm 8,0 km/h (2 Bft) W-NW 292 0 min -1,4 C 10,7 km/h (2 Bft)
22.02.2016 18:15 11,4 C 11,3 C 41 % 1010,9 hPa 0,0 mm 8,6 km/h (2 Bft) W 270 0 min -1,4 C 10,7 km/h (2 Bft)
22.02.2016 18:16 11,4 C 11,3 C 41 % 1010,9 hPa 0,0 mm 8,6 km/h (2 Bft) W 270 0 min -1,4 C 10,7 km/h (2 Bft)
22.02.2016 18:17 11,3 C 11,3 C 41 % 1010,9 hPa 0,0 mm 8,0 km/h (2 Bft) W-SW 247 0 min -1,5 C 7,5 km/h (2 Bft)
22.02.2016 18:18 11,3 C 11,3 C 41 % 1010,9 hPa 0,0 mm 8,0 km/h (2 Bft) W-SW 247 0 min -1,5 C 7,5 km/h (2 Bft)
22.02.2016 18:19 11,5 C 11,4 C 41 % 1010,9 hPa 0,0 mm 9,5 km/h (2 Bft) W-NW 292 0 min -1,3 C 9,8 km/h (2 Bft)
22.02.2016 18:20 11,5 C 11,4 C 41 % 1010,9 hPa 0,0 mm 9,5 km/h (2 Bft) W-NW 292 0 min -1,3 C 9,8 km/h (2 Bft)
22.02.2016 18:21 11,5 C 11,4 C 41 % 1010,9 hPa 0,0 mm 10,1 km/h (2 Bft) NW 315 0 min -1,3 C 13,1 km/h (3 Bft)
22.02.2016 18:22 11,5 C 11,4 C 41 % 1010,9 hPa 0,0 mm 10,1 km/h (2 Bft) NW 315 0 min -1,3 C 13,1 km/h (3 Bft)
22.02.2016 18:23 11,5 C 11,3 C 41 % 1011,1 hPa 0,0 mm 10,4 km/h (2 Bft) W 270 0 min -1,3 C 24,4 km/h (4 Bft)
22.02.2016 18:24 11,5 C 11,3 C 41 % 1011,1 hPa 0,0 mm 10,4 km/h (2 Bft) W 270 0 min -1,3 C 24,4 km/h (4 Bft)
22.02.2016 18:25 11,8 C 11,5 C 41 % 1011,1 hPa 0,0 mm 11,6 km/h (2 Bft) W-NW 292 0 min -1,0 C 15,8 km/h (3 Bft)
22.02.2016 18:26 11,8 C 11,5 C 41 % 1011,1 hPa 0,0 mm 11,6 km/h (2 Bft) W-NW 292 0 min -1,0 C 15,8 km/h (3 Bft)
22.02.2016 18:27 11,7 C 11,4 C 41 % 1011,1 hPa 0,0 mm 12,8 km/h (3 Bft) NW 315 0 min -1,1 C 11,0 km/h (2 Bft)
22.02.2016 18:28 11,7 C 11,4 C 41 % 1011,1 hPa 0,0 mm 12,8 km/h (3 Bft) NW 315 0 min -1,1 C 11,0 km/h (2 Bft)
22.02.2016 18:29 11,6 C 11,4 C 41 % 1011,1 hPa 0,0 mm 12,5 km/h (3 Bft) W 270 0 min -1,2 C 11,6 km/h (2 Bft)
22.02.2016 18:30 11,6 C 11,4 C 41 % 1011,1 hPa 0,0 mm 12,5 km/h (3 Bft) W 270 0 min -1,2 C 11,6 km/h (2 Bft)
22.02.2016 18:31 11,4 C 11,3 C 41 % 1011,1 hPa 0,0 mm 12,2 km/h (2 Bft) W-NW 292 0 min -1,4 C 6,6 km/h (2 Bft)
22.02.2016 18:32 11,4 C 11,3 C 41 % 1011,1 hPa 0,0 mm 12,2 km/h (2 Bft) W-NW 292 0 min -1,4 C 6,6 km/h (2 Bft)
22.02.2016 18:33 11,2 C 11,2 C 41 % 1011,1 hPa 0,0 mm 11,0 km/h (2 Bft) NW 315 0 min -1,6 C 9,2 km/h (2 Bft)
22.02.2016 18:34 11,2 C 11,2 C 41 % 1011,1 hPa 0,0 mm 11,0 km/h (2 Bft) NW 315 0 min -1,6 C 9,2 km/h (2 Bft)
22.02.2016 18:35 11,2 C 11,3 C 41 % 1011,1 hPa 0,0 mm 9,2 km/h (2 Bft) W 270 0 min -1,6 C 12,8 km/h (3 Bft)
22.02.2016 18:36 11,2 C 11,3 C 41 % 1011,1 hPa 0,0 mm 9,2 km/h (2 Bft) W 270 0 min -1,6 C 12,8 km/h (3 Bft)
22.02.2016 18:37 11,5 C 11,4 C 41 % 1011,1 hPa 0,0 mm 9,2 km/h (2 Bft) W-NW 292 0 min -1,3 C 17,0 km/h (3 Bft)
22.02.2016 18:38 11,5 C 11,4 C 41 % 1011,1 hPa 0,0 mm 9,2 km/h (2 Bft) W-NW 292 0 min -1,3 C 17,0 km/h (3 Bft)
22.02.2016 18:39 11,6 C 11,5 C 41 % 1011,1 hPa 0,0 mm 9,5 km/h (2 Bft) SW 225 0 min -1,2 C 10,7 km/h (2 Bft)
22.02.2016 18:40 11,6 C 11,5 C 41 % 1011,1 hPa 0,0 mm 9,5 km/h (2 Bft) SW 225 0 min -1,2 C 10,7 km/h (2 Bft)
22.02.2016 18:41 11,4 C 11,4 C 41 % 1011,1 hPa 0,0 mm 9,5 km/h (2 Bft) W 270 0 min -1,4 C 11,6 km/h (2 Bft)
22.02.2016 18:42 11,4 C 11,4 C 41 % 1011,1 hPa 0,0 mm 9,5 km/h (2 Bft) W 270 0 min -1,4 C 11,6 km/h (2 Bft)
22.02.2016 18:43 11,5 C 11,4 C 41 % 1011,2 hPa 0,0 mm 10,4 km/h (2 Bft) NW 315 0 min -1,3 C 8,0 km/h (2 Bft)
22.02.2016 18:44 11,5 C 11,4 C 41 % 1011,2 hPa 0,0 mm 10,4 km/h (2 Bft) NW 315 0 min -1,3 C 8,0 km/h (2 Bft)
22.02.2016 18:45 11,3 C 11,3 C 41 % 1011,2 hPa 0,0 mm 10,1 km/h (2 Bft) W-SW 247 0 min -1,5 C 7,2 km/h (2 Bft)
22.02.2016 18:46 11,3 C 11,3 C 41 % 1011,2 hPa 0,0 mm 10,1 km/h (2 Bft) W-SW 247 0 min -1,5 C 7,2 km/h (2 Bft)
22.02.2016 18:47 11,3 C 11,3 C 42 % 1011,2 hPa 0,0 mm 9,5 km/h (2 Bft) W-SW 247 0 min -1,1 C 5,7 km/h (1 Bft)
22.02.2016 18:48 11,3 C 11,3 C 42 % 1011,2 hPa 0,0 mm 9,5 km/h (2 Bft) W-SW 247 0 min -1,1 C 5,7 km/h (1 Bft)
22.02.2016 18:49 11,3 C 11,4 C 42 % 1011,2 hPa 0,0 mm 8,9 km/h (2 Bft) W 270 0 min -1,1 C 14,9 km/h (3 Bft)
22.02.2016 18:50 11,3 C 11,4 C 42 % 1011,2 hPa 0,0 mm 8,9 km/h (2 Bft) W 270 0 min -1,1 C 14,9 km/h (3 Bft)
22.02.2016 18:51 11,3 C 11,4 C 42 % 1011,2 hPa 0,0 mm 8,9 km/h (2 Bft) W 270 0 min -1,1 C 6,9 km/h (2 Bft)
22.02.2016 18:52 11,3 C 11,4 C 42 % 1011,2 hPa 0,0 mm 8,9 km/h (2 Bft) W 270 0 min -1,1 C 6,9 km/h (2 Bft)
22.02.2016 18:53 11,1 C 11,4 C 42 % 1011,2 hPa 0,0 mm 7,5 km/h (2 Bft) W 270 0 min -1,3 C 4,5 km/h (1 Bft)
22.02.2016 18:54 11,1 C 11,4 C 42 % 1011,2 hPa 0,0 mm 7,5 km/h (2 Bft) W 270 0 min -1,3 C 4,5 km/h (1 Bft)
22.02.2016 18:55 11,0 C 11,3 C 42 % 1011,2 hPa 0,0 mm 7,5 km/h (2 Bft) W 270 0 min -1,4 C 6,0 km/h (2 Bft)
22.02.2016 18:56 11,0 C 11,3 C 42 % 1011,2 hPa 0,0 mm 7,5 km/h (2 Bft) W 270 0 min -1,4 C 6,0 km/h (2 Bft)
22.02.2016 18:57 11,0 C 11,3 C 42 % 1011,2 hPa 0,0 mm 7,2 km/h (2 Bft) W-SW 247 0 min -1,4 C 6,3 km/h (2 Bft)
22.02.2016 18:58 11,0 C 11,3 C 42 % 1011,2 hPa 0,0 mm 7,2 km/h (2 Bft) W-SW 247 0 min -1,4 C 6,3 km/h (2 Bft)
22.02.2016 18:59 11,0 C 11,2 C 42 % 1011,2 hPa 0,0 mm 6,3 km/h (2 Bft) W 270 0 min -1,4 C 4,2 km/h (1 Bft)
22.02.2016 19:00 11,0 C 11,2 C 42 % 1011,2 hPa 0,0 mm 6,3 km/h (2 Bft) W 270 0 min -1,4 C 4,2 km/h (1 Bft)
22.02.2016 19:01 10,8 C 11,1 C 43 % 1011,2 hPa 0,0 mm 4,5 km/h (1 Bft) W 270 0 min -1,3 C 0,0 km/h (0 Bft)
22.02.2016 19:02 10,8 C 11,1 C 43 % 1011,2 hPa 0,0 mm 4,5 km/h (1 Bft) W 270 0 min -1,3 C 0,0 km/h (0 Bft)
22.02.2016 19:03 10,8 C 11,1 C 43 % 1011,2 hPa 0,0 mm 4,8 km/h (1 Bft) W-NW 292 0 min -1,3 C 9,8 km/h (2 Bft)
22.02.2016 19:04 10,8 C 11,1 C 43 % 1011,2 hPa 0,0 mm 4,8 km/h (1 Bft) W-NW 292 0 min -1,3 C 9,8 km/h (2 Bft)
22.02.2016 19:05 10,8 C 11,1 C 43 % 1011,2 hPa 0,0 mm 5,4 km/h (1 Bft) W-NW 292 0 min -1,3 C 12,2 km/h (2 Bft)
22.02.2016 19:06 10,8 C 11,1 C 43 % 1011,2 hPa 0,0 mm 5,4 km/h (1 Bft) W-NW 292 0 min -1,3 C 12,2 km/h (2 Bft)
22.02.2016 19:07 10,9 C 11,1 C 43 % 1011,2 hPa 0,0 mm 5,4 km/h (1 Bft) S 180 0 min -1,2 C 6,0 km/h (2 Bft)
22.02.2016 19:08 10,9 C 11,1 C 43 % 1011,2 hPa 0,0 mm 5,4 km/h (1 Bft) S 180 0 min -1,2 C 6,0 km/h (2 Bft)
22.02.2016 19:09 11,0 C 11,1 C 43 % 1011,2 hPa 0,0 mm 5,4 km/h (1 Bft) S 180 0 min -1,1 C 6,0 km/h (2 Bft)
22.02.2016 19:10 11,0 C 11,1 C 43 % 1011,2 hPa 0,0 mm 5,4 km/h (1 Bft) S 180 0 min -1,1 C 6,0 km/h (2 Bft)
22.02.2016 19:11 11,2 C 11,1 C 43 % 1011,2 hPa 0,0 mm 6,0 km/h (2 Bft) W-SW 247 0 min -0,9 C 6,6 km/h (2 Bft)
22.02.2016 19:12 11,2 C 11,1 C 43 % 1011,2 hPa 0,0 mm 6,0 km/h (2 Bft) W-SW 247 0 min -0,9 C 6,6 km/h (2 Bft)
22.02.2016 19:13 11,2 C 11,1 C 43 % 1011,2 hPa 0,0 mm 6,3 km/h (2 Bft) SW 225 0 min -0,9 C 8,9 km/h (2 Bft)
22.02.2016 19:14 11,2 C 11,1 C 43 % 1011,2 hPa 0,0 mm 6,3 km/h (2 Bft) SW 225 0 min -0,9 C 8,9 km/h (2 Bft)
22.02.2016 19:15 11,1 C 11,1 C 43 % 1011,2 hPa 0,0 mm 5,4 km/h (1 Bft) SO 135 0 min -1,0 C 0,0 km/h (0 Bft)
22.02.2016 19:16 11,1 C 11,1 C 43 % 1011,2 hPa 0,0 mm 5,4 km/h (1 Bft) SO 135 0 min -1,0 C 0,0 km/h (0 Bft)
22.02.2016 19:17 11,0 C 11,0 C 43 % 1011,2 hPa 0,0 mm 3,9 km/h (1 Bft) SW 225 0 min -1,1 C 4,5 km/h (1 Bft)
22.02.2016 19:18 11,0 C 11,0 C 43 % 1011,2 hPa 0,0 mm 3,9 km/h (1 Bft) SW 225 0 min -1,1 C 4,5 km/h (1 Bft)
22.02.2016 19:19 11,0 C 11,0 C 43 % 1011,2 hPa 0,0 mm 3,9 km/h (1 Bft) SW 225 0 min -1,1 C 9,2 km/h (2 Bft)
22.02.2016 19:20 11,0 C 11,0 C 43 % 1011,2 hPa 0,0 mm 3,9 km/h (1 Bft) SW 225 0 min -1,1 C 9,2 km/h (2 Bft)
22.02.2016 19:21 11,0 C 11,0 C 44 % 1011,2 hPa 0,0 mm 4,2 km/h (1 Bft) SW 225 0 min -0,8 C 6,3 km/h (2 Bft)
22.02.2016 19:22 11,0 C 11,0 C 44 % 1011,2 hPa 0,0 mm 4,2 km/h (1 Bft) SW 225 0 min -0,8 C 6,3 km/h (2 Bft)
22.02.2016 19:23 10,9 C 10,9 C 44 % 1011,1 hPa 0,0 mm 3,9 km/h (1 Bft) W-SW 247 0 min -0,9 C 3,0 km/h (1 Bft)
22.02.2016 19:24 10,9 C 10,9 C 44 % 1011,1 hPa 0,0 mm 3,9 km/h (1 Bft) W-SW 247 0 min -0,9 C 3,0 km/h (1 Bft)
22.02.2016 19:25 11,0 C 11,0 C 43 % 1011,1 hPa 0,0 mm 4,5 km/h (1 Bft) W-SW 247 0 min -1,1 C 4,8 km/h (1 Bft)
22.02.2016 19:26 11,0 C 11,0 C 43 % 1011,1 hPa 0,0 mm 4,5 km/h (1 Bft) W-SW 247 0 min -1,1 C 4,8 km/h (1 Bft)
22.02.2016 19:27 11,0 C 11,0 C 44 % 1011,1 hPa 0,0 mm 5,1 km/h (1 Bft) SW 225 0 min -0,8 C 0,0 km/h (0 Bft)
22.02.2016 19:28 11,0 C 11,0 C 44 % 1011,1 hPa 0,0 mm 5,1 km/h (1 Bft) SW 225 0 min -0,8 C 0,0 km/h (0 Bft)
22.02.2016 19:29 10,8 C 10,9 C 44 % 1011,1 hPa 0,0 mm 5,7 km/h (1 Bft) S 180 0 min -1,0 C 7,5 km/h (2 Bft)
22.02.2016 19:30 10,8 C 10,9 C 44 % 1011,1 hPa 0,0 mm 5,7 km/h (1 Bft) S 180 0 min -1,0 C 7,5 km/h (2 Bft)
22.02.2016 19:31 10,8 C 10,9 C 44 % 1011,1 hPa 0,0 mm 6,0 km/h (2 Bft) W-SW 247 0 min -1,0 C 8,0 km/h (2 Bft)
22.02.2016 19:32 10,8 C 10,9 C 44 % 1011,1 hPa 0,0 mm 6,0 km/h (2 Bft) W-SW 247 0 min -1,0 C 8,0 km/h (2 Bft)
22.02.2016 19:33 10,8 C 10,9 C 44 % 1011,1 hPa 0,0 mm 6,3 km/h (2 Bft) W-SW 247 0 min -1,0 C 10,4 km/h (2 Bft)
22.02.2016 19:34 10,8 C 10,9 C 44 % 1011,1 hPa 0,0 mm 6,3 km/h (2 Bft) W-SW 247 0 min -1,0 C 10,4 km/h (2 Bft)
22.02.2016 19:35 11,0 C 11,0 C 44 % 1011,1 hPa 0,0 mm 6,6 km/h (2 Bft) SW 225 0 min -0,8 C 6,6 km/h (2 Bft)
22.02.2016 19:36 11,0 C 11,0 C 44 % 1011,1 hPa 0,0 mm 6,6 km/h (2 Bft) SW 225 0 min -0,8 C 6,6 km/h (2 Bft)
22.02.2016 19:37 11,0 C 11,0 C 44 % 1011,1 hPa 0,0 mm 6,6 km/h (2 Bft) SW 225 0 min -0,8 C 6,9 km/h (2 Bft)
22.02.2016 19:38 11,0 C 11,0 C 44 % 1011,1 hPa 0,0 mm 6,6 km/h (2 Bft) SW 225 0 min -0,8 C 6,9 km/h (2 Bft)
22.02.2016 19:39 11,0 C 11,0 C 44 % 1011,1 hPa 0,0 mm 7,2 km/h (2 Bft) S 180 0 min -0,8 C 8,0 km/h (2 Bft)
22.02.2016 19:40 11,0 C 11,0 C 44 % 1011,1 hPa 0,0 mm 7,2 km/h (2 Bft) S 180 0 min -0,8 C 8,0 km/h (2 Bft)
22.02.2016 19:41 11,0 C 11,0 C 44 % 1011,1 hPa 0,0 mm 7,2 km/h (2 Bft) W-SW 247 0 min -0,8 C 7,5 km/h (2 Bft)
22.02.2016 19:42 11,0 C 11,0 C 44 % 1011,1 hPa 0,0 mm 7,2 km/h (2 Bft) W-SW 247 0 min -0,8 C 7,5 km/h (2 Bft)
22.02.2016 19:43 11,0 C 11,0 C 44 % 1011,2 hPa 0,0 mm 7,5 km/h (2 Bft) W 270 0 min -0,8 C 11,0 km/h (2 Bft)
22.02.2016 19:44 11,0 C 11,0 C 44 % 1011,2 hPa 0,0 mm 7,5 km/h (2 Bft) W 270 0 min -0,8 C 11,0 km/h (2 Bft)
22.02.2016 19:45 10,9 C 11,0 C 44 % 1011,2 hPa 0,0 mm 7,2 km/h (2 Bft) SW 225 0 min -0,9 C 9,2 km/h (2 Bft)
22.02.2016 19:46 10,9 C 11,0 C 44 % 1011,2 hPa 0,0 mm 7,2 km/h (2 Bft) SW 225 0 min -0,9 C 9,2 km/h (2 Bft)
22.02.2016 19:47 10,9 C 11,0 C 44 % 1011,2 hPa 0,0 mm 6,9 km/h (2 Bft) NW 315 0 min -0,9 C 3,0 km/h (1 Bft)
22.02.2016 19:48 10,9 C 11,0 C 44 % 1011,2 hPa 0,0 mm 6,9 km/h (2 Bft) NW 315 0 min -0,9 C 3,0 km/h (1 Bft)
22.02.2016 19:49 11,0 C 11,0 C 44 % 1011,2 hPa 0,0 mm 7,5 km/h (2 Bft) W 270 0 min -0,8 C 8,3 km/h (2 Bft)
22.02.2016 19:50 11,0 C 11,0 C 44 % 1011,2 hPa 0,0 mm 7,5 km/h (2 Bft) W 270 0 min -0,8 C 8,3 km/h (2 Bft)
22.02.2016 19:51 11,1 C 11,1 C 44 % 1011,2 hPa 0,0 mm 7,7 km/h (2 Bft) NW 315 0 min -0,7 C 9,8 km/h (2 Bft)
22.02.2016 19:52 11,1 C 11,1 C 44 % 1011,2 hPa 0,0 mm 7,7 km/h (2 Bft) NW 315 0 min -0,7 C 9,8 km/h (2 Bft)
22.02.2016 19:53 11,1 C 11,1 C 44 % 1011,2 hPa 0,0 mm 7,5 km/h (2 Bft) W-SW 247 0 min -0,7 C 4,5 km/h (1 Bft)
22.02.2016 19:54 11,1 C 11,1 C 44 % 1011,2 hPa 0,0 mm 7,5 km/h (2 Bft) W-SW 247 0 min -0,7 C 4,5 km/h (1 Bft)
22.02.2016 19:55 10,9 C 11,0 C 44 % 1011,2 hPa 0,0 mm 6,9 km/h (2 Bft) W-SW 247 0 min -0,9 C 13,1 km/h (3 Bft)
22.02.2016 19:56 10,9 C 11,0 C 44 % 1011,2 hPa 0,0 mm 6,9 km/h (2 Bft) W-SW 247 0 min -0,9 C 13,1 km/h (3 Bft)
22.02.2016 19:57 11,1 C 11,1 C 44 % 1011,2 hPa 0,0 mm 7,5 km/h (2 Bft) W 270 0 min -0,7 C 9,2 km/h (2 Bft)
22.02.2016 19:58 11,1 C 11,1 C 44 % 1011,2 hPa 0,0 mm 7,5 km/h (2 Bft) W 270 0 min -0,7 C 9,2 km/h (2 Bft)
22.02.2016 19:59 11,1 C 11,1 C 44 % 1011,2 hPa 0,0 mm 7,7 km/h (2 Bft) W 270 0 min -0,7 C 11,9 km/h (2 Bft)
22.02.2016 20:00 11,1 C 11,1 C 44 % 1011,2 hPa 0,0 mm 7,7 km/h (2 Bft) W 270 0 min -0,7 C 11,9 km/h (2 Bft)
22.02.2016 20:01 11,2 C 11,2 C 44 % 1011,2 hPa 0,0 mm 7,7 km/h (2 Bft) W 270 0 min -0,6 C 17,3 km/h (3 Bft)
22.02.2016 20:02 11,2 C 11,2 C 44 % 1011,2 hPa 0,0 mm 7,7 km/h (2 Bft) W 270 0 min -0,6 C 17,3 km/h (3 Bft)
22.02.2016 20:03 11,2 C 11,2 C 44 % 1011,3 hPa 0,0 mm 8,0 km/h (2 Bft) W 270 0 min -0,6 C 6,9 km/h (2 Bft)
22.02.2016 20:04 11,2 C 11,2 C 44 % 1011,3 hPa 0,0 mm 8,0 km/h (2 Bft) W 270 0 min -0,6 C 6,9 km/h (2 Bft)
22.02.2016 20:05 11,1 C 11,2 C 44 % 1011,3 hPa 0,0 mm 8,9 km/h (2 Bft) W 270 0 min -0,7 C 11,6 km/h (2 Bft)
22.02.2016 20:06 11,1 C 11,2 C 44 % 1011,3 hPa 0,0 mm 8,9 km/h (2 Bft) W 270 0 min -0,7 C 11,6 km/h (2 Bft)
22.02.2016 20:07 11,1 C 11,1 C 44 % 1011,3 hPa 0,0 mm 9,5 km/h (2 Bft) W 270 0 min -0,7 C 22,1 km/h (4 Bft)
22.02.2016 20:08 11,1 C 11,1 C 44 % 1011,3 hPa 0,0 mm 9,5 km/h (2 Bft) W 270 0 min -0,7 C 22,1 km/h (4 Bft)
22.02.2016 20:09 11,3 C 11,2 C 44 % 1011,3 hPa 0,0 mm 10,7 km/h (2 Bft) W 270 0 min -0,5 C 16,4 km/h (3 Bft)
22.02.2016 20:10 11,3 C 11,2 C 44 % 1011,3 hPa 0,0 mm 10,7 km/h (2 Bft) W 270 0 min -0,5 C 16,4 km/h (3 Bft)
22.02.2016 20:11 11,3 C 11,3 C 44 % 1011,3 hPa 0,0 mm 10,4 km/h (2 Bft) W-SW 247 0 min -0,5 C 9,2 km/h (2 Bft)
22.02.2016 20:12 11,3 C 11,3 C 44 % 1011,3 hPa 0,0 mm 10,4 km/h (2 Bft) W-SW 247 0 min -0,5 C 9,2 km/h (2 Bft)
22.02.2016 20:13 11,2 C 11,2 C 45 % 1011,3 hPa 0,0 mm 10,1 km/h (2 Bft) W-SW 247 0 min -0,3 C 13,1 km/h (3 Bft)
22.02.2016 20:14 11,2 C 11,2 C 45 % 1011,3 hPa 0,0 mm 10,1 km/h (2 Bft) W-SW 247 0 min -0,3 C 13,1 km/h (3 Bft)
22.02.2016 20:15 11,1 C 11,2 C 45 % 1011,3 hPa 0,0 mm 9,8 km/h (2 Bft) W-NW 292 0 min -0,4 C 14,3 km/h (3 Bft)
22.02.2016 20:16 11,1 C 11,2 C 45 % 1011,3 hPa 0,0 mm 9,8 km/h (2 Bft) W-NW 292 0 min -0,4 C 14,3 km/h (3 Bft)
22.02.2016 20:17 11,1 C 11,1 C 45 % 1011,3 hPa 0,0 mm 10,4 km/h (2 Bft) NW 315 0 min -0,4 C 15,5 km/h (3 Bft)
22.02.2016 20:18 11,1 C 11,1 C 45 % 1011,3 hPa 0,0 mm 10,4 km/h (2 Bft) NW 315 0 min -0,4 C 15,5 km/h (3 Bft)
22.02.2016 20:19 11,2 C 11,2 C 45 % 1011,3 hPa 0,0 mm 9,5 km/h (2 Bft) W-NW 292 0 min -0,3 C 9,2 km/h (2 Bft)
22.02.2016 20:20 11,2 C 11,2 C 45 % 1011,3 hPa 0,0 mm 9,5 km/h (2 Bft) W-NW 292 0 min -0,3 C 9,2 km/h (2 Bft)
22.02.2016 20:21 11,1 C 11,3 C 45 % 1011,3 hPa 0,0 mm 8,3 km/h (2 Bft) W-NW 292 0 min -0,4 C 8,0 km/h (2 Bft)
22.02.2016 20:22 11,1 C 11,3 C 45 % 1011,3 hPa 0,0 mm 8,3 km/h (2 Bft) W-NW 292 0 min -0,4 C 8,0 km/h (2 Bft)
22.02.2016 20:23 10,9 C 11,2 C 45 % 1011,5 hPa 0,0 mm 8,0 km/h (2 Bft) W 270 0 min -0,6 C 11,3 km/h (2 Bft)
22.02.2016 20:24 10,9 C 11,2 C 45 % 1011,5 hPa 0,0 mm 8,0 km/h (2 Bft) W 270 0 min -0,6 C 11,3 km/h (2 Bft)
22.02.2016 20:25 10,9 C 11,2 C 45 % 1011,5 hPa 0,0 mm 8,0 km/h (2 Bft) W 270 0 min -0,6 C 6,3 km/h (2 Bft)
22.02.2016 20:26 10,9 C 11,2 C 45 % 1011,5 hPa 0,0 mm 8,0 km/h (2 Bft) W 270 0 min -0,6 C 6,3 km/h (2 Bft)
22.02.2016 20:27 10,8 C 11,2 C 45 % 1011,5 hPa 0,0 mm 7,5 km/h (2 Bft) W-SW 247 0 min -0,6 C 3,9 km/h (1 Bft)
22.02.2016 20:28 10,8 C 11,2 C 45 % 1011,5 hPa 0,0 mm 7,5 km/h (2 Bft) W-SW 247 0 min -0,6 C 3,9 km/h (1 Bft)
22.02.2016 20:29 10,7 C 11,1 C 46 % 1011,5 hPa 0,0 mm 6,0 km/h (2 Bft) W-NW 292 0 min -0,4 C 5,7 km/h (1 Bft)
22.02.2016 20:30 10,7 C 11,1 C 46 % 1011,5 hPa 0,0 mm 6,0 km/h (2 Bft) W-NW 292 0 min -0,4 C 5,7 km/h (1 Bft)
22.02.2016 20:31 10,7 C 11,0 C 46 % 1011,5 hPa 0,0 mm 6,0 km/h (2 Bft) W 270 0 min -0,4 C 5,4 km/h (1 Bft)
22.02.2016 20:32 10,7 C 11,0 C 46 % 1011,5 hPa 0,0 mm 6,0 km/h (2 Bft) W 270 0 min -0,4 C 5,4 km/h (1 Bft)
22.02.2016 20:33 10,6 C 11,0 C 46 % 1011,5 hPa 0,0 mm 5,1 km/h (1 Bft) NW 315 0 min -0,5 C 0,0 km/h (0 Bft)
22.02.2016 20:34 10,6 C 11,0 C 46 % 1011,5 hPa 0,0 mm 5,1 km/h (1 Bft) NW 315 0 min -0,5 C 0,0 km/h (0 Bft)
22.02.2016 20:35 10,6 C 10,9 C 46 % 1011,5 hPa 0,0 mm 4,5 km/h (1 Bft) W-NW 292 0 min -0,5 C 7,5 km/h (2 Bft)
22.02.2016 20:36 10,6 C 10,9 C 46 % 1011,5 hPa 0,0 mm 4,5 km/h (1 Bft) W-NW 292 0 min -0,5 C 7,5 km/h (2 Bft)
22.02.2016 20:37 10,5 C 10,8 C 46 % 1011,5 hPa 0,0 mm 3,6 km/h (1 Bft) NW 315 0 min -0,6 C 5,7 km/h (1 Bft)
22.02.2016 20:38 10,5 C 10,8 C 46 % 1011,5 hPa 0,0 mm 3,6 km/h (1 Bft) NW 315 0 min -0,6 C 5,7 km/h (1 Bft)
22.02.2016 20:39 10,4 C 10,7 C 46 % 1011,5 hPa 0,0 mm 3,9 km/h (1 Bft) W-NW 292 0 min -0,7 C 7,5 km/h (2 Bft)
22.02.2016 20:40 10,4 C 10,7 C 46 % 1011,5 hPa 0,0 mm 3,9 km/h (1 Bft) W-NW 292 0 min -0,7 C 7,5 km/h (2 Bft)
22.02.2016 20:42 10,5 C 10,7 C 47 % 1011,6 hPa 0,0 mm 5,7 km/h (1 Bft) W 270 0 min -0,3 C 8,9 km/h (2 Bft)
22.02.2016 20:43 10,5 C 10,7 C 47 % 1011,6 hPa 0,0 mm 5,7 km/h (1 Bft) W 270 0 min -0,3 C 8,9 km/h (2 Bft)
22.02.2016 20:44 10,5 C 10,7 C 47 % 1011,6 hPa 0,0 mm 5,7 km/h (1 Bft) W 270 0 min -0,3 C 8,9 km/h (2 Bft)
22.02.2016 20:45 10,7 C 10,7 C 47 % 1011,6 hPa 0,0 mm 7,5 km/h (2 Bft) N-NW 337 0 min -0,1 C 12,2 km/h (2 Bft)
22.02.2016 20:46 10,7 C 10,7 C 47 % 1011,6 hPa 0,0 mm 7,5 km/h (2 Bft) N-NW 337 0 min -0,1 C 12,2 km/h (2 Bft)
22.02.2016 20:47 10,7 C 10,7 C 47 % 1011,6 hPa 0,0 mm 8,9 km/h (2 Bft) S-SW 202 0 min -0,1 C 20,6 km/h (4 Bft)
22.02.2016 20:48 10,7 C 10,7 C 47 % 1011,6 hPa 0,0 mm 8,9 km/h (2 Bft) S-SW 202 0 min -0,1 C 20,6 km/h (4 Bft)
22.02.2016 20:49 10,7 C 10,6 C 47 % 1011,6 hPa 0,0 mm 10,1 km/h (2 Bft) W 270 0 min -0,1 C 17,9 km/h (3 Bft)
22.02.2016 20:50 10,7 C 10,6 C 47 % 1011,6 hPa 0,0 mm 10,1 km/h (2 Bft) W 270 0 min -0,1 C 17,9 km/h (3 Bft)
22.02.2016 20:51 10,7 C 10,6 C 48 % 1011,6 hPa 0,0 mm 10,1 km/h (2 Bft) NW 315 0 min 0,1 C 12,8 km/h (3 Bft)
22.02.2016 20:52 10,7 C 10,6 C 48 % 1011,6 hPa 0,0 mm 10,1 km/h (2 Bft) NW 315 0 min 0,1 C 12,8 km/h (3 Bft)
22.02.2016 20:53 10,8 C 10,6 C 48 % 1011,6 hPa 0,0 mm 11,3 km/h (2 Bft) NW 315 0 min 0,2 C 20,9 km/h (4 Bft)
22.02.2016 20:54 10,8 C 10,6 C 48 % 1011,6 hPa 0,0 mm 11,3 km/h (2 Bft) NW 315 0 min 0,2 C 20,9 km/h (4 Bft)
22.02.2016 20:55 10,8 C 10,7 C 48 % 1011,6 hPa 0,0 mm 10,4 km/h (2 Bft) W 270 0 min 0,2 C 17,0 km/h (3 Bft)
22.02.2016 20:56 10,8 C 10,7 C 48 % 1011,6 hPa 0,0 mm 10,4 km/h (2 Bft) W 270 0 min 0,2 C 17,0 km/h (3 Bft)
22.02.2016 20:57 10,7 C 10,6 C 48 % 1011,6 hPa 0,0 mm 11,3 km/h (2 Bft) N-NW 337 0 min 0,1 C 20,6 km/h (4 Bft)
22.02.2016 20:58 10,7 C 10,6 C 48 % 1011,6 hPa 0,0 mm 11,3 km/h (2 Bft) N-NW 337 0 min 0,1 C 20,6 km/h (4 Bft)
22.02.2016 20:59 10,7 C 10,5 C 48 % 1011,6 hPa 0,0 mm 11,6 km/h (2 Bft) SW 225 0 min 0,1 C 14,6 km/h (3 Bft)
22.02.2016 21:00 10,7 C 10,5 C 48 % 1011,6 hPa 0,0 mm 11,6 km/h (2 Bft) SW 225 0 min 0,1 C 14,6 km/h (3 Bft)
22.02.2016 21:01 10,7 C 10,5 C 49 % 1011,6 hPa 0,0 mm 11,9 km/h (2 Bft) W-SW 247 0 min 0,4 C 16,1 km/h (3 Bft)
22.02.2016 21:02 10,7 C 10,5 C 49 % 1011,6 hPa 0,0 mm 11,9 km/h (2 Bft) W-SW 247 0 min 0,4 C 16,1 km/h (3 Bft)
22.02.2016 21:03 10,7 C 10,5 C 49 % 1011,6 hPa 0,0 mm 11,9 km/h (2 Bft) W 270 0 min 0,4 C 9,8 km/h (2 Bft)
22.02.2016 21:04 10,7 C 10,5 C 49 % 1011,6 hPa 0,0 mm 11,9 km/h (2 Bft) W 270 0 min 0,4 C 9,8 km/h (2 Bft)
22.02.2016 21:05 10,7 C 10,5 C 49 % 1011,6 hPa 0,0 mm 11,6 km/h (2 Bft) W 270 0 min 0,4 C 14,3 km/h (3 Bft)
22.02.2016 21:06 10,7 C 10,5 C 49 % 1011,6 hPa 0,0 mm 11,6 km/h (2 Bft) W 270 0 min 0,4 C 14,3 km/h (3 Bft)
22.02.2016 21:07 10,6 C 10,5 C 49 % 1011,6 hPa 0,0 mm 11,3 km/h (2 Bft) S 180 0 min 0,3 C 5,4 km/h (1 Bft)
22.02.2016 21:08 10,6 C 10,5 C 49 % 1011,6 hPa 0,0 mm 11,3 km/h (2 Bft) S 180 0 min 0,3 C 5,4 km/h (1 Bft)
22.02.2016 21:09 10,7 C 10,5 C 49 % 1011,6 hPa 0,0 mm 11,6 km/h (2 Bft) NW 315 0 min 0,4 C 9,8 km/h (2 Bft)
22.02.2016 21:10 10,7 C 10,5 C 49 % 1011,6 hPa 0,0 mm 11,6 km/h (2 Bft) NW 315 0 min 0,4 C 9,8 km/h (2 Bft)
22.02.2016 21:11 10,7 C 10,5 C 49 % 1011,6 hPa 0,0 mm 11,0 km/h (2 Bft) W 270 0 min 0,4 C 7,7 km/h (2 Bft)
22.02.2016 21:13 10,6 C 10,5 C 49 % 1011,6 hPa 0,0 mm 10,7 km/h (2 Bft) NW 315 0 min 0,3 C 13,1 km/h (3 Bft)
22.02.2016 21:14 10,6 C 10,5 C 49 % 1011,6 hPa 0,0 mm 10,7 km/h (2 Bft) NW 315 0 min 0,3 C 13,1 km/h (3 Bft)
22.02.2016 21:15 10,5 C 10,4 C 50 % 1011,6 hPa 0,0 mm 9,8 km/h (2 Bft) W-NW 292 0 min 0,5 C 8,0 km/h (2 Bft)
22.02.2016 21:16 10,5 C 10,4 C 50 % 1011,6 hPa 0,0 mm 9,8 km/h (2 Bft) W-NW 292 0 min 0,5 C 8,0 km/h (2 Bft)
22.02.2016 21:17 10,6 C 10,5 C 50 % 1011,6 hPa 0,0 mm 10,1 km/h (2 Bft) NW 315 0 min 0,6 C 21,2 km/h (4 Bft)
22.02.2016 21:18 10,6 C 10,5 C 50 % 1011,6 hPa 0,0 mm 10,1 km/h (2 Bft) NW 315 0 min 0,6 C 21,2 km/h (4 Bft)
22.02.2016 21:19 10,6 C 10,5 C 50 % 1011,6 hPa 0,0 mm 9,8 km/h (2 Bft) W-NW 292 0 min 0,6 C 11,0 km/h (2 Bft)
22.02.2016 21:20 10,6 C 10,5 C 50 % 1011,6 hPa 0,0 mm 9,8 km/h (2 Bft) W-NW 292 0 min 0,6 C 11,0 km/h (2 Bft)
22.02.2016 21:21 10,6 C 10,4 C 51 % 1011,6 hPa 0,0 mm 10,4 km/h (2 Bft) W-NW 292 0 min 0,9 C 30,7 km/h (5 Bft)
22.02.2016 21:23 10,7 C 10,4 C 51 % 1011,9 hPa 0,0 mm 12,5 km/h (3 Bft) W 270 0 min 1,0 C 33,1 km/h (5 Bft)
22.02.2016 21:24 10,7 C 10,4 C 51 % 1011,9 hPa 0,0 mm 12,5 km/h (3 Bft) W 270 0 min 1,0 C 33,1 km/h (5 Bft)
22.02.2016 21:25 10,8 C 10,5 C 52 % 1011,9 hPa 0,0 mm 14,0 km/h (3 Bft) W 270 0 min 1,3 C 16,1 km/h (3 Bft)
22.02.2016 21:26 10,8 C 10,5 C 52 % 1011,9 hPa 0,0 mm 14,0 km/h (3 Bft) W 270 0 min 1,3 C 16,1 km/h (3 Bft)
22.02.2016 21:27 10,7 C 10,4 C 52 % 1011,9 hPa 0,0 mm 15,5 km/h (3 Bft) W-NW 292 0 min 1,3 C 16,7 km/h (3 Bft)
22.02.2016 21:28 10,7 C 10,4 C 52 % 1011,9 hPa 0,0 mm 15,5 km/h (3 Bft) W-NW 292 0 min 1,3 C 16,7 km/h (3 Bft)
22.02.2016 21:29 10,7 C 10,4 C 52 % 1011,9 hPa 0,0 mm 15,8 km/h (3 Bft) NW 315 0 min 1,3 C 24,7 km/h (4 Bft)
22.02.2016 21:30 10,7 C 10,4 C 52 % 1011,9 hPa 0,0 mm 15,8 km/h (3 Bft) NW 315 0 min 1,3 C 24,7 km/h (4 Bft)
22.02.2016 21:31 10,6 C 10,4 C 53 % 1011,9 hPa 0,0 mm 16,4 km/h (3 Bft) W-SW 247 0 min 1,4 C 11,9 km/h (2 Bft)
22.02.2016 21:32 10,6 C 10,3 C 53 % 1011,9 hPa 0,0 mm 16,4 km/h (3 Bft) W-SW 247 0 min 1,4 C 11,9 km/h (2 Bft)
22.02.2016 21:33 10,5 C 10,3 C 54 % 1011,9 hPa 0,0 mm 16,7 km/h (3 Bft) NW 315 0 min 1,6 C 34,0 km/h (5 Bft)
22.02.2016 21:34 10,5 C 10,1 C 54 % 1011,9 hPa 0,0 mm 16,7 km/h (3 Bft) NW 315 0 min 1,6 C 34,0 km/h (5 Bft)
22.02.2016 21:35 10,4 C 10,2 C 54 % 1011,9 hPa 0,0 mm 15,8 km/h (3 Bft) S-SW 202 0 min 1,5 C 11,3 km/h (2 Bft)
22.02.2016 21:36 10,4 C 10,1 C 54 % 1011,9 hPa 0,0 mm 15,8 km/h (3 Bft) S-SW 202 0 min 1,5 C 11,3 km/h (2 Bft)
22.02.2016 21:37 10,4 C 10,2 C 55 % 1011,9 hPa 0,0 mm 16,1 km/h (3 Bft) W-NW 292 0 min 1,8 C 30,7 km/h (5 Bft)
22.02.2016 21:38 10,4 C 10,0 C 55 % 1011,9 hPa 0,0 mm 16,1 km/h (3 Bft) W-NW 292 0 min 1,8 C 30,7 km/h (5 Bft)
22.02.2016 21:39 10,3 C 10,1 C 56 % 1011,9 hPa 0,0 mm 17,0 km/h (3 Bft) NW 315 0 min 1,9 C 19,4 km/h (3 Bft)
22.02.2016 21:40 10,3 C 9,9 C 56 % 1011,9 hPa 0,0 mm 17,0 km/h (3 Bft) NW 315 0 min 1,9 C 19,4 km/h (3 Bft)
22.02.2016 21:41 10,2 C 10,0 C 56 % 1011,9 hPa 0,0 mm 16,7 km/h (3 Bft) W 270 0 min 1,8 C 16,7 km/h (3 Bft)
22.02.2016 21:42 10,2 C 9,9 C 56 % 1011,9 hPa 0,0 mm 16,7 km/h (3 Bft) W 270 0 min 1,8 C 16,7 km/h (3 Bft)
22.02.2016 21:43 10,1 C 9,9 C 57 % 1011,6 hPa 0,0 mm 17,6 km/h (3 Bft) W-NW 292 0 min 2,0 C 16,7 km/h (3 Bft)
22.02.2016 21:44 10,1 C 9,7 C 57 % 1011,6 hPa 0,0 mm 17,6 km/h (3 Bft) W-NW 292 0 min 2,0 C 16,7 km/h (3 Bft)
22.02.2016 21:45 10,1 C 9,8 C 57 % 1011,6 hPa 0,0 mm 17,6 km/h (3 Bft) O-NO 67 0 min 2,0 C 32,8 km/h (5 Bft)
22.02.2016 21:46 10,1 C 9,6 C 57 % 1011,6 hPa 0,0 mm 17,6 km/h (3 Bft) O-NO 67 0 min 2,0 C 32,8 km/h (5 Bft)
22.02.2016 21:47 10,1 C 9,6 C 57 % 1011,6 hPa 0,0 mm 18,2 km/h (3 Bft) W-SW 247 0 min 2,0 C 16,4 km/h (3 Bft)
22.02.2016 21:48 10,1 C 9,6 C 57 % 1011,6 hPa 0,0 mm 18,2 km/h (3 Bft) W-SW 247 0 min 2,0 C 16,4 km/h (3 Bft)
22.02.2016 21:49 10,1 C 9,8 C 58 % 1011,6 hPa 0,0 mm 16,7 km/h (3 Bft) NW 315 0 min 2,2 C 24,7 km/h (4 Bft)
22.02.2016 21:50 10,1 C 9,7 C 58 % 1011,6 hPa 0,0 mm 16,7 km/h (3 Bft) NW 315 0 min 2,2 C 24,7 km/h (4 Bft)
22.02.2016 21:51 10,1 C 9,7 C 58 % 1011,6 hPa 0,0 mm 17,3 km/h (3 Bft) W-NW 292 0 min 2,2 C 29,5 km/h (5 Bft)
22.02.2016 21:52 10,1 C 9,7 C 58 % 1011,6 hPa 0,0 mm 17,3 km/h (3 Bft) W-NW 292 0 min 2,2 C 29,5 km/h (5 Bft)
22.02.2016 21:53 10,1 C 9,8 C 58 % 1011,6 hPa 0,0 mm 17,9 km/h (3 Bft) W-NW 292 0 min 2,2 C 34,9 km/h (5 Bft)
22.02.2016 21:54 10,1 C 9,6 C 58 % 1011,6 hPa 0,0 mm 17,9 km/h (3 Bft) W-NW 292 0 min 2,2 C 34,9 km/h (5 Bft)
22.02.2016 21:55 10,1 C 9,8 C 58 % 1011,6 hPa 0,0 mm 18,8 km/h (3 Bft) W-SW 247 0 min 2,2 C 43,2 km/h (6 Bft)
22.02.2016 21:56 10,1 C 9,6 C 58 % 1011,6 hPa 0,0 mm 18,8 km/h (3 Bft) W-SW 247 0 min 2,2 C 43,2 km/h (6 Bft)
22.02.2016 21:57 10,1 C 9,8 C 58 % 1011,6 hPa 0,0 mm 17,6 km/h (3 Bft) NW 315 0 min 2,2 C 21,8 km/h (4 Bft)
22.02.2016 21:58 10,1 C 9,6 C 58 % 1011,6 hPa 0,0 mm 17,6 km/h (3 Bft) NW 315 0 min 2,2 C 21,8 km/h (4 Bft)
22.02.2016 21:59 10,1 C 9,6 C 58 % 1011,6 hPa 0,0 mm 18,2 km/h (3 Bft) NW 315 0 min 2,2 C 22,1 km/h (4 Bft)
22.02.2016 22:00 10,1 C 9,6 C 58 % 1011,6 hPa 0,0 mm 18,2 km/h (3 Bft) NW 315 0 min 2,2 C 22,1 km/h (4 Bft)
22.02.2016 22:01 10,0 C 9,6 C 58 % 1011,6 hPa 0,0 mm 17,9 km/h (3 Bft) W-SW 247 0 min 2,1 C 22,4 km/h (4 Bft)
22.02.2016 22:02 10,0 C 9,6 C 58 % 1011,6 hPa 0,0 mm 17,9 km/h (3 Bft) W-SW 247 0 min 2,1 C 22,4 km/h (4 Bft)
22.02.2016 22:03 10,0 C 9,7 C 58 % 1011,8 hPa 0,0 mm 19,1 km/h (3 Bft) NW 315 0 min 2,1 C 32,2 km/h (5 Bft)
22.02.2016 22:04 10,0 C 9,5 C 58 % 1011,8 hPa 0,0 mm 19,1 km/h (3 Bft) NW 315 0 min 2,1 C 32,2 km/h (5 Bft)
22.02.2016 22:05 10,0 C 9,5 C 59 % 1011,8 hPa 0,0 mm 19,1 km/h (3 Bft) NW 315 0 min 2,4 C 47,1 km/h (6 Bft)
22.02.2016 22:06 10,0 C 9,5 C 59 % 1011,8 hPa 0,0 mm 19,1 km/h (3 Bft) NW 315 0 min 2,4 C 47,1 km/h (6 Bft)
22.02.2016 22:07 10,0 C 9,6 C 59 % 1011,8 hPa 0,0 mm 18,5 km/h (3 Bft) W-SW 247 0 min 2,4 C 19,4 km/h (3 Bft)
22.02.2016 22:08 10,0 C 9,5 C 59 % 1011,8 hPa 0,0 mm 18,5 km/h (3 Bft) W-SW 247 0 min 2,4 C 19,4 km/h (3 Bft)
22.02.2016 22:09 9,9 C 9,6 C 59 % 1011,8 hPa 0,0 mm 18,8 km/h (3 Bft) NW 315 0 min 2,3 C 22,7 km/h (4 Bft)
22.02.2016 22:10 9,9 C 9,4 C 59 % 1011,8 hPa 0,0 mm 18,8 km/h (3 Bft) NW 315 0 min 2,3 C 22,7 km/h (4 Bft)
22.02.2016 22:11 9,9 C 9,5 C 59 % 1011,8 hPa 0,0 mm 19,4 km/h (3 Bft) W 270 0 min 2,3 C 19,7 km/h (3 Bft)
22.02.2016 22:12 9,9 C 9,4 C 59 % 1011,8 hPa 0,0 mm 19,4 km/h (3 Bft) W 270 0 min 2,3 C 19,7 km/h (3 Bft)
22.02.2016 22:13 9,9 C 9,4 C 59 % 1011,8 hPa 0,0 mm 18,8 km/h (3 Bft) W-SW 247 0 min 2,3 C 14,0 km/h (3 Bft)
22.02.2016 22:14 9,9 C 9,4 C 59 % 1011,8 hPa 0,0 mm 18,8 km/h (3 Bft) W-SW 247 0 min 2,3 C 14,0 km/h (3 Bft)
22.02.2016 22:15 9,9 C 9,5 C 59 % 1011,8 hPa 0,0 mm 17,6 km/h (3 Bft) W-SW 247 0 min 2,3 C 21,8 km/h (4 Bft)
22.02.2016 22:16 9,9 C 9,4 C 59 % 1011,8 hPa 0,0 mm 17,6 km/h (3 Bft) W-SW 247 0 min 2,3 C 21,8 km/h (4 Bft)
22.02.2016 22:17 9,8 C 9,5 C 59 % 1011,8 hPa 0,0 mm 15,5 km/h (3 Bft) W 270 0 min 2,2 C 13,4 km/h (3 Bft)
22.02.2016 22:18 9,8 C 9,4 C 59 % 1011,8 hPa 0,0 mm 15,5 km/h (3 Bft) W 270 0 min 2,2 C 13,4 km/h (3 Bft)
22.02.2016 22:19 9,7 C 9,5 C 59 % 1011,8 hPa 0,0 mm 15,2 km/h (3 Bft) W 270 0 min 2,1 C 15,2 km/h (3 Bft)
22.02.2016 22:20 9,7 C 9,3 C 59 % 1011,8 hPa 0,0 mm 15,2 km/h (3 Bft) W 270 0 min 2,1 C 15,2 km/h (3 Bft)
22.02.2016 22:21 9,7 C 9,3 C 59 % 1011,8 hPa 0,0 mm 14,0 km/h (3 Bft) W 270 0 min 2,1 C 14,3 km/h (3 Bft)
22.02.2016 22:22 9,7 C 9,3 C 59 % 1011,8 hPa 0,0 mm 14,0 km/h (3 Bft) W 270 0 min 2,1 C 14,3 km/h (3 Bft)
22.02.2016 22:23 9,6 C 9,3 C 59 % 1011,6 hPa 0,0 mm 12,5 km/h (3 Bft) W 270 0 min 2,0 C 17,3 km/h (3 Bft)
22.02.2016 22:24 9,6 C 9,3 C 59 % 1011,6 hPa 0,0 mm 12,5 km/h (3 Bft) W 270 0 min 2,0 C 17,3 km/h (3 Bft)
22.02.2016 22:25 9,6 C 9,3 C 60 % 1011,6 hPa 0,0 mm 13,1 km/h (3 Bft) W 270 0 min 2,2 C 33,7 km/h (5 Bft)
22.02.2016 22:26 9,6 C 9,3 C 60 % 1011,6 hPa 0,0 mm 13,1 km/h (3 Bft) W 270 0 min 2,2 C 33,7 km/h (5 Bft)
22.02.2016 22:27 9,6 C 9,3 C 60 % 1011,6 hPa 0,0 mm 13,4 km/h (3 Bft) W 270 0 min 2,2 C 17,6 km/h (3 Bft)
22.02.2016 22:28 9,6 C 9,3 C 60 % 1011,6 hPa 0,0 mm 13,4 km/h (3 Bft) W 270 0 min 2,2 C 17,6 km/h (3 Bft)
22.02.2016 22:29 9,5 C 9,1 C 60 % 1011,6 hPa 0,0 mm 14,0 km/h (3 Bft) O 90 0 min 2,1 C 37,9 km/h (5 Bft)
22.02.2016 22:30 9,5 C 9,1 C 60 % 1011,6 hPa 0,0 mm 14,0 km/h (3 Bft) O 90 0 min 2,1 C 37,9 km/h (5 Bft)
22.02.2016 22:31 9,6 C 9,3 C 60 % 1011,6 hPa 0,0 mm 15,2 km/h (3 Bft) W-NW 292 0 min 2,2 C 18,8 km/h (3 Bft)
22.02.2016 22:32 9,6 C 9,1 C 60 % 1011,6 hPa 0,0 mm 15,2 km/h (3 Bft) W-NW 292 0 min 2,2 C 18,8 km/h (3 Bft)
22.02.2016 22:33 9,6 C 9,3 C 61 % 1011,6 hPa 0,0 mm 16,7 km/h (3 Bft) W 270 0 min 2,5 C 32,2 km/h (5 Bft)
22.02.2016 22:34 9,6 C 9,1 C 61 % 1011,6 hPa 0,0 mm 16,7 km/h (3 Bft) W 270 0 min 2,5 C 32,2 km/h (5 Bft)
22.02.2016 22:35 9,6 C 9,2 C 61 % 1011,6 hPa 0,0 mm 18,5 km/h (3 Bft) W 270 0 min 2,5 C 35,2 km/h (5 Bft)
22.02.2016 22:36 9,6 C 9,0 C 61 % 1011,6 hPa 0,0 mm 18,5 km/h (3 Bft) W 270 0 min 2,5 C 35,2 km/h (5 Bft)
22.02.2016 22:37 9,6 C 9,0 C 61 % 1011,6 hPa 0,0 mm 18,5 km/h (3 Bft) W-SW 247 0 min 2,5 C 26,5 km/h (4 Bft)
22.02.2016 22:38 9,6 C 9,0 C 61 % 1011,6 hPa 0,0 mm 18,5 km/h (3 Bft) W-SW 247 0 min 2,5 C 26,5 km/h (4 Bft)
22.02.2016 22:39 9,5 C 9,1 C 62 % 1011,6 hPa 0,0 mm 20,9 km/h (4 Bft) W-SW 247 0 min 2,6 C 48,0 km/h (6 Bft)
22.02.2016 22:40 9,5 C 8,9 C 62 % 1011,6 hPa 0,0 mm 20,9 km/h (4 Bft) W-SW 247 0 min 2,6 C 48,0 km/h (6 Bft)
22.02.2016 22:41 9,6 C 9,0 C 62 % 1011,6 hPa 0,0 mm 21,2 km/h (4 Bft) W 270 0 min 2,7 C 22,1 km/h (4 Bft)
22.02.2016 22:42 9,6 C 9,0 C 62 % 1011,6 hPa 0,0 mm 21,2 km/h (4 Bft) W 270 0 min 2,7 C 22,1 km/h (4 Bft)
22.02.2016 22:43 9,5 C 8,9 C 62 % 1011,8 hPa 0,0 mm 20,9 km/h (4 Bft) W-NW 292 0 min 2,6 C 22,9 km/h (4 Bft)
22.02.2016 22:44 9,5 C 8,9 C 62 % 1011,8 hPa 0,0 mm 20,9 km/h (4 Bft) W-NW 292 0 min 2,6 C 22,9 km/h (4 Bft)
22.02.2016 22:45 9,4 C 9,0 C 62 % 1011,8 hPa 0,0 mm 19,4 km/h (3 Bft) S-SW 202 0 min 2,5 C 16,7 km/h (3 Bft)
22.02.2016 22:46 9,4 C 8,9 C 62 % 1011,8 hPa 0,0 mm 19,4 km/h (3 Bft) S-SW 202 0 min 2,5 C 16,7 km/h (3 Bft)
22.02.2016 22:47 9,4 C 9,0 C 63 % 1011,8 hPa 0,0 mm 19,1 km/h (3 Bft) W 270 0 min 2,7 C 16,1 km/h (3 Bft)
22.02.2016 22:48 9,4 C 8,8 C 63 % 1011,8 hPa 0,0 mm 19,1 km/h (3 Bft) W 270 0 min 2,7 C 16,1 km/h (3 Bft)
22.02.2016 22:49 9,4 C 9,0 C 63 % 1011,8 hPa 0,0 mm 18,5 km/h (3 Bft) W 270 0 min 2,7 C 28,9 km/h (5 Bft)
22.02.2016 22:50 9,4 C 8,9 C 63 % 1011,8 hPa 0,0 mm 18,5 km/h (3 Bft) W 270 0 min 2,7 C 28,9 km/h (5 Bft)
22.02.2016 22:51 9,4 C 9,1 C 64 % 1011,8 hPa 0,0 mm 16,4 km/h (3 Bft) NW 315 0 min 2,9 C 23,5 km/h (4 Bft)
22.02.2016 22:52 9,4 C 8,9 C 64 % 1011,8 hPa 0,0 mm 16,4 km/h (3 Bft) NW 315 0 min 2,9 C 23,5 km/h (4 Bft)
22.02.2016 22:53 9,4 C 9,1 C 64 % 1011,8 hPa 0,0 mm 17,0 km/h (3 Bft) W-SW 247 0 min 2,9 C 14,0 km/h (3 Bft)
22.02.2016 22:54 9,4 C 8,9 C 64 % 1011,8 hPa 0,0 mm 17,0 km/h (3 Bft) W-SW 247 0 min 2,9 C 14,0 km/h (3 Bft)
22.02.2016 22:55 9,4 C 9,0 C 64 % 1011,8 hPa 0,0 mm 18,2 km/h (3 Bft) W-SW 247 0 min 2,9 C 16,1 km/h (3 Bft)
22.02.2016 22:56 9,4 C 8,9 C 64 % 1011,8 hPa 0,0 mm 18,2 km/h (3 Bft) W-SW 247 0 min 2,9 C 16,1 km/h (3 Bft)
22.02.2016 22:57 9,4 C 9,0 C 64 % 1011,8 hPa 0,0 mm 19,7 km/h (3 Bft) W-NW 292 0 min 2,9 C 26,8 km/h (4 Bft)
22.02.2016 22:58 9,4 C 8,8 C 64 % 1011,8 hPa 0,0 mm 19,7 km/h (3 Bft) W-NW 292 0 min 2,9 C 26,8 km/h (4 Bft)
22.02.2016 22:59 9,4 C 8,8 C 65 % 1011,8 hPa 0,0 mm 19,4 km/h (3 Bft) W 270 0 min 3,2 C 28,6 km/h (4 Bft)
22.02.2016 23:00 9,4 C 8,8 C 65 % 1011,8 hPa 0,0 mm 19,4 km/h (3 Bft) W 270 0 min 3,2 C 28,6 km/h (4 Bft)
22.02.2016 23:01 9,4 C 9,0 C 64 % 1011,8 hPa 0,0 mm 20,0 km/h (4 Bft) O-NO 67 0 min 2,9 C 20,6 km/h (4 Bft)
22.02.2016 23:02 9,4 C 8,8 C 64 % 1011,8 hPa 0,0 mm 20,0 km/h (4 Bft) O-NO 67 0 min 2,9 C 20,6 km/h (4 Bft)
22.02.2016 23:03 9,3 C 8,9 C 64 % 1011,9 hPa 0,0 mm 18,5 km/h (3 Bft) W 270 0 min 2,8 C 23,5 km/h (4 Bft)
22.02.2016 23:04 9,3 C 8,8 C 64 % 1011,9 hPa 0,0 mm 18,5 km/h (3 Bft) W 270 0 min 2,8 C 23,5 km/h (4 Bft)
22.02.2016 23:05 9,3 C 9,0 C 65 % 1011,9 hPa 0,0 mm 16,7 km/h (3 Bft) W-SW 247 0 min 3,1 C 25,3 km/h (4 Bft)
22.02.2016 23:06 9,3 C 8,8 C 65 % 1011,9 hPa 0,0 mm 16,7 km/h (3 Bft) W-SW 247 0 min 3,1 C 25,3 km/h (4 Bft)
22.02.2016 23:07 9,2 C 8,9 C 65 % 1011,9 hPa 0,0 mm 15,2 km/h (3 Bft) SW 225 0 min 3,0 C 24,4 km/h (4 Bft)
22.02.2016 23:08 9,2 C 8,8 C 65 % 1011,9 hPa 0,0 mm 15,2 km/h (3 Bft) SW 225 0 min 3,0 C 24,4 km/h (4 Bft)
22.02.2016 23:09 9,2 C 8,8 C 65 % 1011,9 hPa 0,0 mm 14,9 km/h (3 Bft) W-SW 247 0 min 3,0 C 11,3 km/h (2 Bft)
22.02.2016 23:10 9,2 C 8,8 C 65 % 1011,9 hPa 0,0 mm 14,9 km/h (3 Bft) W-SW 247 0 min 3,0 C 11,3 km/h (2 Bft)
22.02.2016 23:11 9,3 C 8,9 C 65 % 1011,9 hPa 0,0 mm 14,9 km/h (3 Bft) W-NW 292 0 min 3,1 C 23,2 km/h (4 Bft)
22.02.2016 23:12 9,3 C 8,9 C 65 % 1011,9 hPa 0,0 mm 14,9 km/h (3 Bft) W-NW 292 0 min 3,1 C 23,2 km/h (4 Bft)
22.02.2016 23:13 9,3 C 8,9 C 65 % 1011,9 hPa 0,0 mm 15,2 km/h (3 Bft) W 270 0 min 3,1 C 17,9 km/h (3 Bft)
22.02.2016 23:14 9,3 C 8,9 C 65 % 1011,9 hPa 0,0 mm 15,2 km/h (3 Bft) W 270 0 min 3,1 C 17,9 km/h (3 Bft)
22.02.2016 23:15 9,3 C 8,9 C 65 % 1011,9 hPa 0,0 mm 15,2 km/h (3 Bft) W-NW 292 0 min 3,1 C 24,7 km/h (4 Bft)
22.02.2016 23:16 9,3 C 8,9 C 65 % 1011,9 hPa 0,0 mm 15,2 km/h (3 Bft) W-NW 292 0 min 3,1 C 24,7 km/h (4 Bft)
22.02.2016 23:17 9,3 C 9,0 C 65 % 1011,9 hPa 0,0 mm 15,5 km/h (3 Bft) W-SW 247 0 min 3,1 C 17,0 km/h (3 Bft)
22.02.2016 23:18 9,3 C 8,9 C 65 % 1011,9 hPa 0,0 mm 15,5 km/h (3 Bft) W-SW 247 0 min 3,1 C 17,0 km/h (3 Bft)
22.02.2016 23:19 9,3 C 9,0 C 65 % 1011,9 hPa 0,0 mm 16,4 km/h (3 Bft) S 180 0 min 3,1 C 20,3 km/h (4 Bft)
22.02.2016 23:20 9,3 C 8,8 C 65 % 1011,9 hPa 0,0 mm 16,4 km/h (3 Bft) S 180 0 min 3,1 C 20,3 km/h (4 Bft)
22.02.2016 23:21 9,2 C 8,8 C 65 % 1011,9 hPa 0,0 mm 16,7 km/h (3 Bft) W 270 0 min 3,0 C 21,8 km/h (4 Bft)
22.02.2016 23:22 9,2 C 8,8 C 65 % 1011,9 hPa 0,0 mm 16,7 km/h (3 Bft) W 270 0 min 3,0 C 21,8 km/h (4 Bft)
22.02.2016 23:23 9,2 C 8,9 C 65 % 1011,9 hPa 0,0 mm 17,0 km/h (3 Bft) W-SW 247 0 min 3,0 C 38,7 km/h (5 Bft)
22.02.2016 23:24 9,2 C 8,7 C 65 % 1011,9 hPa 0,0 mm 17,0 km/h (3 Bft) W-SW 247 0 min 3,0 C 38,7 km/h (5 Bft)
22.02.2016 23:25 9,2 C 8,8 C 64 % 1011,9 hPa 0,0 mm 18,2 km/h (3 Bft) W-SW 247 0 min 2,8 C 33,1 km/h (5 Bft)
22.02.2016 23:26 9,2 C 8,7 C 64 % 1011,9 hPa 0,0 mm 18,2 km/h (3 Bft) W-SW 247 0 min 2,8 C 33,1 km/h (5 Bft)
22.02.2016 23:27 9,2 C 8,8 C 64 % 1011,9 hPa 0,0 mm 17,3 km/h (3 Bft) W-SW 247 0 min 2,8 C 16,4 km/h (3 Bft)
22.02.2016 23:28 9,2 C 8,7 C 64 % 1011,9 hPa 0,0 mm 17,3 km/h (3 Bft) W-SW 247 0 min 2,8 C 16,4 km/h (3 Bft)
22.02.2016 23:29 9,1 C 8,8 C 64 % 1011,9 hPa 0,0 mm 17,9 km/h (3 Bft) W-SW 247 0 min 2,7 C 24,7 km/h (4 Bft)
22.02.2016 23:30 9,1 C 8,6 C 64 % 1011,9 hPa 0,0 mm 17,9 km/h (3 Bft) W-SW 247 0 min 2,7 C 24,7 km/h (4 Bft)
22.02.2016 23:31 9,1 C 8,8 C 64 % 1011,9 hPa 0,0 mm 17,3 km/h (3 Bft) W-SW 247 0 min 2,7 C 21,5 km/h (4 Bft)
22.02.2016 23:32 9,1 C 8,6 C 64 % 1011,9 hPa 0,0 mm 17,3 km/h (3 Bft) W-SW 247 0 min 2,7 C 21,5 km/h (4 Bft)
22.02.2016 23:33 9,1 C 8,8 C 64 % 1011,9 hPa 0,0 mm 17,6 km/h (3 Bft) W 270 0 min 2,7 C 36,7 km/h (5 Bft)
22.02.2016 23:34 9,1 C 8,6 C 64 % 1011,9 hPa 0,0 mm 17,6 km/h (3 Bft) W 270 0 min 2,7 C 36,7 km/h (5 Bft)
22.02.2016 23:35 9,1 C 8,6 C 65 % 1011,9 hPa 0,0 mm 17,3 km/h (3 Bft) W 270 0 min 2,9 C 25,6 km/h (4 Bft)
22.02.2016 23:36 9,1 C 8,6 C 65 % 1011,9 hPa 0,0 mm 17,3 km/h (3 Bft) W 270 0 min 2,9 C 25,6 km/h (4 Bft)
22.02.2016 23:37 9,1 C 8,7 C 65 % 1011,9 hPa 0,0 mm 18,8 km/h (3 Bft) W 270 0 min 2,9 C 39,6 km/h (6 Bft)
22.02.2016 23:38 9,1 C 8,5 C 65 % 1011,9 hPa 0,0 mm 18,8 km/h (3 Bft) W 270 0 min 2,9 C 39,6 km/h (6 Bft)
22.02.2016 23:39 9,1 C 8,7 C 64 % 1011,9 hPa 0,0 mm 20,3 km/h (4 Bft) W 270 0 min 2,7 C 30,1 km/h (5 Bft)
22.02.2016 23:40 9,1 C 8,5 C 64 % 1011,9 hPa 0,0 mm 20,3 km/h (4 Bft) W 270 0 min 2,7 C 30,1 km/h (5 Bft)
22.02.2016 23:41 9,1 C 8,5 C 65 % 1011,9 hPa 0,0 mm 20,3 km/h (4 Bft) W 270 0 min 2,9 C 20,6 km/h (4 Bft)
22.02.2016 23:43 9,0 C 8,6 C 65 % 1011,9 hPa 0,0 mm 21,2 km/h (4 Bft) W-SW 247 0 min 2,8 C 37,0 km/h (5 Bft)
22.02.2016 23:45 9,0 C 8,6 C 65 % 1011,9 hPa 0,0 mm 20,9 km/h (4 Bft) W 270 0 min 2,8 C 32,2 km/h (5 Bft)
22.02.2016 23:46 9,0 C 8,4 C 65 % 1011,9 hPa 0,0 mm 20,9 km/h (4 Bft) W 270 0 min 2,8 C 32,2 km/h (5 Bft)
22.02.2016 23:47 9,0 C 8,4 C 65 % 1011,9 hPa 0,0 mm 20,9 km/h (4 Bft) W 270 0 min 2,8 C 55,4 km/h (7 Bft)
22.02.2016 23:48 9,0 C 8,4 C 65 % 1011,9 hPa 0,0 mm 20,9 km/h (4 Bft) W 270 0 min 2,8 C 55,4 km/h (7 Bft)
22.02.2016 23:49 8,9 C 8,3 C 65 % 1011,9 hPa 0,0 mm 20,3 km/h (4 Bft) NW 315 0 min 2,7 C 29,2 km/h (5 Bft)
22.02.2016 23:50 8,9 C 8,3 C 65 % 1011,9 hPa 0,0 mm 20,3 km/h (4 Bft) NW 315 0 min 2,7 C 29,2 km/h (5 Bft)
22.02.2016 23:51 8,9 C 8,5 C 65 % 1011,9 hPa 0,0 mm 20,0 km/h (4 Bft) NW 315 0 min 2,7 C 21,5 km/h (4 Bft)
22.02.2016 23:52 8,9 C 8,3 C 65 % 1011,9 hPa 0,0 mm 20,0 km/h (4 Bft) NW 315 0 min 2,7 C 21,5 km/h (4 Bft)
22.02.2016 23:53 8,9 C 8,3 C 65 % 1011,9 hPa 0,0 mm 19,7 km/h (3 Bft) W-NW 292 0 min 2,7 C 20,3 km/h (4 Bft)
22.02.2016 23:54 8,9 C 8,3 C 65 % 1011,9 hPa 0,0 mm 19,7 km/h (3 Bft) W-NW 292 0 min 2,7 C 55,4 km/h (7 Bft)
22.02.2016 23:55 8,8 C 8,4 C 66 % 1011,9 hPa 0,0 mm 19,1 km/h (3 Bft) W 270 0 min 2,8 C 14,0 km/h (3 Bft)
22.02.2016 23:56 8,8 C 8,2 C 66 % 1011,9 hPa 0,0 mm 19,1 km/h (3 Bft) W 270 0 min 2,8 C 14,0 km/h (3 Bft)
22.02.2016 23:57 8,8 C 8,2 C 66 % 1011,9 hPa 0,0 mm 18,8 km/h (3 Bft) W 270 0 min 2,8 C 22,7 km/h (4 Bft)
22.02.2016 23:58 8,8 C 8,2 C 66 % 1011,9 hPa 0,0 mm 18,8 km/h (3 Bft) W 270 0 min 2,8 C 22,7 km/h (4 Bft)
22.02.2016 23:59 8,7 C 8,2 C 66 % 1011,9 hPa 0,0 mm 17,0 km/h (3 Bft) W-NW 292 0 min 2,7 C 17,0 km/h (3 Bft)
_ Min-Zeit 02:08 02:14 15:02 18:02 - 20:38 - - - 02:48 20:34
Minimum _ 4,5 C 7,0 C 31 % 1010,8 hPa - 3,6 km/h (1 Bft) - - - -6,1 C 0,0 km/h (0 Bft)
_ Max-Zeit 13:44 13:00 23:59 12:02 23:59 10:18 - - 11:40 23:00 23:54
Maximum _ 16,9 C 19,7 C 66 % 1016,4 hPa 0,0 mm 22,9 km/h
W-NW (4 Bft)
- - 2 min 3,2 C 55,4 km/h
W-NW (7 Bft)
Durchschnitt _ 11,8 C 12,4 C 43 % 1013,3 hPa #0,0 mm 13,0 km/h (3 Bft) W - #4:22 h -0,6 C 16,5 km/h (3 Bft)